<?xml version="1.0" encoding="UTF-8"?>
<gpx version="1.0" creator="GPSBabel - http://www.gpsbabel.org" xmlns="http://www.topografix.com/GPX/1/0">
  <time>2020-05-22T21:06:26.844Z</time>
  <bounds minlat="35.826396580" minlon="-105.638057220" maxlat="35.842447820" maxlon="-105.613862420"/>
  <trk>
    <name>Iron Gate Campground Hike.Pat.2020-05-21</name>
    <trkseg>
      <trkpt lat="35.827265430" lon="-105.637896430">
        <ele>2713.500</ele>
        <time>2020-05-21T17:24:10Z</time>
        <name>WPT</name>
      </trkpt>
      <trkpt lat="35.827304470" lon="-105.637906950">
        <ele>2712.500</ele>
        <time>2020-05-21T17:24:21Z</time>
        <name>WPT.1</name>
      </trkpt>
      <trkpt lat="35.827331770" lon="-105.637938230">
        <ele>2713.600</ele>
        <time>2020-05-21T17:24:25Z</time>
        <name>WPT.2</name>
      </trkpt>
      <trkpt lat="35.827366100" lon="-105.637958270">
        <ele>2713.500</ele>
        <time>2020-05-21T17:24:29Z</time>
        <name>WPT.3</name>
      </trkpt>
      <trkpt lat="35.827403000" lon="-105.637982330">
        <ele>2714.800</ele>
        <time>2020-05-21T17:24:34Z</time>
        <name>WPT.4</name>
      </trkpt>
      <trkpt lat="35.827439380" lon="-105.638000350">
        <ele>2714.800</ele>
        <time>2020-05-21T17:24:38Z</time>
        <name>WPT.5</name>
      </trkpt>
      <trkpt lat="35.827475660" lon="-105.638010920">
        <ele>2715.200</ele>
        <time>2020-05-21T17:24:42Z</time>
        <name>WPT.6</name>
      </trkpt>
      <trkpt lat="35.827520900" lon="-105.638017920">
        <ele>2715.900</ele>
        <time>2020-05-21T17:24:47Z</time>
        <name>WPT.7</name>
      </trkpt>
      <trkpt lat="35.827557960" lon="-105.638006830">
        <ele>2716.600</ele>
        <time>2020-05-21T17:24:51Z</time>
        <name>WPT.8</name>
      </trkpt>
      <trkpt lat="35.827594180" lon="-105.637995730">
        <ele>2716.200</ele>
        <time>2020-05-21T17:24:55Z</time>
        <name>WPT.9</name>
      </trkpt>
      <trkpt lat="35.827627380" lon="-105.637971690">
        <ele>2716.100</ele>
        <time>2020-05-21T17:24:59Z</time>
        <name>WPT.10</name>
      </trkpt>
      <trkpt lat="35.827664950" lon="-105.637946350">
        <ele>2715.300</ele>
        <time>2020-05-21T17:25:04Z</time>
        <name>WPT.11</name>
      </trkpt>
      <trkpt lat="35.827706370" lon="-105.637931480">
        <ele>2715.500</ele>
        <time>2020-05-21T17:25:09Z</time>
        <name>WPT.12</name>
      </trkpt>
      <trkpt lat="35.827747280" lon="-105.637914620">
        <ele>2715.400</ele>
        <time>2020-05-21T17:25:14Z</time>
        <name>WPT.13</name>
      </trkpt>
      <trkpt lat="35.827779840" lon="-105.637886810">
        <ele>2716.500</ele>
        <time>2020-05-21T17:25:21Z</time>
        <name>WPT.14</name>
      </trkpt>
      <trkpt lat="35.827802610" lon="-105.637845430">
        <ele>2716.300</ele>
        <time>2020-05-21T17:25:28Z</time>
        <name>WPT.15</name>
      </trkpt>
      <trkpt lat="35.827836710" lon="-105.637818550">
        <ele>2716.200</ele>
        <time>2020-05-21T17:25:33Z</time>
        <name>WPT.16</name>
      </trkpt>
      <trkpt lat="35.827871370" lon="-105.637795970">
        <ele>2715.400</ele>
        <time>2020-05-21T17:25:38Z</time>
        <name>WPT.17</name>
      </trkpt>
      <trkpt lat="35.827903210" lon="-105.637769080">
        <ele>2716.300</ele>
        <time>2020-05-21T17:25:45Z</time>
        <name>WPT.18</name>
      </trkpt>
      <trkpt lat="35.827935060" lon="-105.637744290">
        <ele>2716.600</ele>
        <time>2020-05-21T17:25:50Z</time>
        <name>WPT.19</name>
      </trkpt>
      <trkpt lat="35.827966080" lon="-105.637715500">
        <ele>2718.000</ele>
        <time>2020-05-21T17:25:55Z</time>
        <name>WPT.20</name>
      </trkpt>
      <trkpt lat="35.827996210" lon="-105.637687420">
        <ele>2719.500</ele>
        <time>2020-05-21T17:26:00Z</time>
        <name>WPT.21</name>
      </trkpt>
      <trkpt lat="35.828031510" lon="-105.637657930">
        <ele>2720.400</ele>
        <time>2020-05-21T17:26:05Z</time>
        <name>WPT.22</name>
      </trkpt>
      <trkpt lat="35.828063340" lon="-105.637631530">
        <ele>2721.900</ele>
        <time>2020-05-21T17:26:10Z</time>
        <name>WPT.23</name>
      </trkpt>
      <trkpt lat="35.828093500" lon="-105.637597840">
        <ele>2723.200</ele>
        <time>2020-05-21T17:26:15Z</time>
        <name>WPT.24</name>
      </trkpt>
      <trkpt lat="35.828126600" lon="-105.637579320">
        <ele>2723.700</ele>
        <time>2020-05-21T17:26:19Z</time>
        <name>WPT.25</name>
      </trkpt>
      <trkpt lat="35.828164560" lon="-105.637553100">
        <ele>2725.800</ele>
        <time>2020-05-21T17:26:24Z</time>
        <name>WPT.26</name>
      </trkpt>
      <trkpt lat="35.828196020" lon="-105.637522330">
        <ele>2726.500</ele>
        <time>2020-05-21T17:26:28Z</time>
        <name>WPT.27</name>
      </trkpt>
      <trkpt lat="35.828236450" lon="-105.637499030">
        <ele>2727.200</ele>
        <time>2020-05-21T17:26:32Z</time>
        <name>WPT.28</name>
      </trkpt>
      <trkpt lat="35.828265060" lon="-105.637466950">
        <ele>2726.400</ele>
        <time>2020-05-21T17:26:35Z</time>
        <name>WPT.29</name>
      </trkpt>
      <trkpt lat="35.828295990" lon="-105.637434570">
        <ele>2726.500</ele>
        <time>2020-05-21T17:26:39Z</time>
        <name>WPT.30</name>
      </trkpt>
      <trkpt lat="35.828328300" lon="-105.637400170">
        <ele>2726.300</ele>
        <time>2020-05-21T17:26:44Z</time>
        <name>WPT.31</name>
      </trkpt>
      <trkpt lat="35.828360890" lon="-105.637370720">
        <ele>2725.900</ele>
        <time>2020-05-21T17:26:48Z</time>
        <name>WPT.32</name>
      </trkpt>
      <trkpt lat="35.828394540" lon="-105.637336940">
        <ele>2726.200</ele>
        <time>2020-05-21T17:26:52Z</time>
        <name>WPT.33</name>
      </trkpt>
      <trkpt lat="35.828420600" lon="-105.637305800">
        <ele>2726.300</ele>
        <time>2020-05-21T17:26:56Z</time>
        <name>WPT.34</name>
      </trkpt>
      <trkpt lat="35.828450360" lon="-105.637272510">
        <ele>2725.800</ele>
        <time>2020-05-21T17:27:00Z</time>
        <name>WPT.35</name>
      </trkpt>
      <trkpt lat="35.828475970" lon="-105.637240040">
        <ele>2726.000</ele>
        <time>2020-05-21T17:27:04Z</time>
        <name>WPT.36</name>
      </trkpt>
      <trkpt lat="35.828507470" lon="-105.637206220">
        <ele>2727.300</ele>
        <time>2020-05-21T17:27:09Z</time>
        <name>WPT.37</name>
      </trkpt>
      <trkpt lat="35.828529200" lon="-105.637164180">
        <ele>2727.500</ele>
        <time>2020-05-21T17:27:13Z</time>
        <name>WPT.38</name>
      </trkpt>
      <trkpt lat="35.828544410" lon="-105.637112640">
        <ele>2727.000</ele>
        <time>2020-05-21T17:27:17Z</time>
        <name>WPT.39</name>
      </trkpt>
      <trkpt lat="35.828565730" lon="-105.637067040">
        <ele>2726.900</ele>
        <time>2020-05-21T17:27:21Z</time>
        <name>WPT.40</name>
      </trkpt>
      <trkpt lat="35.828594700" lon="-105.637028680">
        <ele>2727.400</ele>
        <time>2020-05-21T17:27:25Z</time>
        <name>WPT.41</name>
      </trkpt>
      <trkpt lat="35.828621490" lon="-105.636985930">
        <ele>2726.200</ele>
        <time>2020-05-21T17:27:29Z</time>
        <name>WPT.42</name>
      </trkpt>
      <trkpt lat="35.828656700" lon="-105.636954030">
        <ele>2727.700</ele>
        <time>2020-05-21T17:27:33Z</time>
        <name>WPT.43</name>
      </trkpt>
      <trkpt lat="35.828680910" lon="-105.636905970">
        <ele>2727.900</ele>
        <time>2020-05-21T17:27:38Z</time>
        <name>WPT.44</name>
      </trkpt>
      <trkpt lat="35.828712430" lon="-105.636879240">
        <ele>2729.800</ele>
        <time>2020-05-21T17:28:43Z</time>
        <name>WPT.45</name>
      </trkpt>
      <trkpt lat="35.828734070" lon="-105.636833160">
        <ele>2728.600</ele>
        <time>2020-05-21T17:28:47Z</time>
        <name>WPT.46</name>
      </trkpt>
      <trkpt lat="35.828756180" lon="-105.636790180">
        <ele>2728.800</ele>
        <time>2020-05-21T17:28:51Z</time>
        <name>WPT.47</name>
      </trkpt>
      <trkpt lat="35.828782470" lon="-105.636744220">
        <ele>2729.400</ele>
        <time>2020-05-21T17:28:55Z</time>
        <name>WPT.48</name>
      </trkpt>
      <trkpt lat="35.828812870" lon="-105.636718260">
        <ele>2729.900</ele>
        <time>2020-05-21T17:28:58Z</time>
        <name>WPT.49</name>
      </trkpt>
      <trkpt lat="35.828841940" lon="-105.636689230">
        <ele>2730.200</ele>
        <time>2020-05-21T17:29:01Z</time>
        <name>WPT.50</name>
      </trkpt>
      <trkpt lat="35.828878630" lon="-105.636653090">
        <ele>2730.300</ele>
        <time>2020-05-21T17:29:05Z</time>
        <name>WPT.51</name>
      </trkpt>
      <trkpt lat="35.828915130" lon="-105.636622380">
        <ele>2729.400</ele>
        <time>2020-05-21T17:29:09Z</time>
        <name>WPT.52</name>
      </trkpt>
      <trkpt lat="35.828950060" lon="-105.636607190">
        <ele>2728.700</ele>
        <time>2020-05-21T17:30:19Z</time>
        <name>WPT.53</name>
      </trkpt>
      <trkpt lat="35.828982030" lon="-105.636566710">
        <ele>2729.400</ele>
        <time>2020-05-21T17:30:23Z</time>
        <name>WPT.54</name>
      </trkpt>
      <trkpt lat="35.829010580" lon="-105.636536160">
        <ele>2728.700</ele>
        <time>2020-05-21T17:30:26Z</time>
        <name>WPT.55</name>
      </trkpt>
      <trkpt lat="35.829044480" lon="-105.636499940">
        <ele>2729.300</ele>
        <time>2020-05-21T17:30:30Z</time>
        <name>WPT.56</name>
      </trkpt>
      <trkpt lat="35.829070400" lon="-105.636463170">
        <ele>2730.300</ele>
        <time>2020-05-21T17:30:34Z</time>
        <name>WPT.57</name>
      </trkpt>
      <trkpt lat="35.829108580" lon="-105.636435620">
        <ele>2731.000</ele>
        <time>2020-05-21T17:30:38Z</time>
        <name>WPT.58</name>
      </trkpt>
      <trkpt lat="35.829135050" lon="-105.636404540">
        <ele>2731.600</ele>
        <time>2020-05-21T17:30:41Z</time>
        <name>WPT.59</name>
      </trkpt>
      <trkpt lat="35.829165100" lon="-105.636378520">
        <ele>2732.900</ele>
        <time>2020-05-21T17:30:44Z</time>
        <name>WPT.60</name>
      </trkpt>
      <trkpt lat="35.829203500" lon="-105.636351660">
        <ele>2734.100</ele>
        <time>2020-05-21T17:30:48Z</time>
        <name>WPT.61</name>
      </trkpt>
      <trkpt lat="35.829242740" lon="-105.636316080">
        <ele>2735.200</ele>
        <time>2020-05-21T17:30:52Z</time>
        <name>WPT.62</name>
      </trkpt>
      <trkpt lat="35.829275210" lon="-105.636285920">
        <ele>2734.800</ele>
        <time>2020-05-21T17:30:55Z</time>
        <name>WPT.63</name>
      </trkpt>
      <trkpt lat="35.829305050" lon="-105.636251210">
        <ele>2733.500</ele>
        <time>2020-05-21T17:30:58Z</time>
        <name>WPT.64</name>
      </trkpt>
      <trkpt lat="35.829334280" lon="-105.636222950">
        <ele>2735.000</ele>
        <time>2020-05-21T17:31:02Z</time>
        <name>WPT.65</name>
      </trkpt>
      <trkpt lat="35.829360360" lon="-105.636191160">
        <ele>2735.300</ele>
        <time>2020-05-21T17:31:06Z</time>
        <name>WPT.66</name>
      </trkpt>
      <trkpt lat="35.829390350" lon="-105.636161620">
        <ele>2735.800</ele>
        <time>2020-05-21T17:31:10Z</time>
        <name>WPT.67</name>
      </trkpt>
      <trkpt lat="35.829418760" lon="-105.636118620">
        <ele>2735.500</ele>
        <time>2020-05-21T17:31:14Z</time>
        <name>WPT.68</name>
      </trkpt>
      <trkpt lat="35.829446820" lon="-105.636082800">
        <ele>2736.200</ele>
        <time>2020-05-21T17:31:18Z</time>
        <name>WPT.69</name>
      </trkpt>
      <trkpt lat="35.829477830" lon="-105.636053800">
        <ele>2736.500</ele>
        <time>2020-05-21T17:31:22Z</time>
        <name>WPT.70</name>
      </trkpt>
      <trkpt lat="35.829506970" lon="-105.636024690">
        <ele>2736.300</ele>
        <time>2020-05-21T17:31:26Z</time>
        <name>WPT.71</name>
      </trkpt>
      <trkpt lat="35.829542000" lon="-105.636005120">
        <ele>2736.400</ele>
        <time>2020-05-21T17:31:31Z</time>
        <name>WPT.72</name>
      </trkpt>
      <trkpt lat="35.829569380" lon="-105.635967260">
        <ele>2736.600</ele>
        <time>2020-05-21T17:32:05Z</time>
        <name>WPT.73</name>
      </trkpt>
      <trkpt lat="35.829590120" lon="-105.635928790">
        <ele>2737.500</ele>
        <time>2020-05-21T17:32:09Z</time>
        <name>WPT.74</name>
      </trkpt>
      <trkpt lat="35.829624730" lon="-105.635896470">
        <ele>2738.000</ele>
        <time>2020-05-21T17:32:13Z</time>
        <name>WPT.75</name>
      </trkpt>
      <trkpt lat="35.829658110" lon="-105.635863060">
        <ele>2737.900</ele>
        <time>2020-05-21T17:32:17Z</time>
        <name>WPT.76</name>
      </trkpt>
      <trkpt lat="35.829694920" lon="-105.635826480">
        <ele>2738.100</ele>
        <time>2020-05-21T17:32:21Z</time>
        <name>WPT.77</name>
      </trkpt>
      <trkpt lat="35.829725980" lon="-105.635785880">
        <ele>2737.100</ele>
        <time>2020-05-21T17:32:25Z</time>
        <name>WPT.78</name>
      </trkpt>
      <trkpt lat="35.829761010" lon="-105.635751910">
        <ele>2737.400</ele>
        <time>2020-05-21T17:32:29Z</time>
        <name>WPT.79</name>
      </trkpt>
      <trkpt lat="35.829788110" lon="-105.635711110">
        <ele>2736.600</ele>
        <time>2020-05-21T17:32:33Z</time>
        <name>WPT.80</name>
      </trkpt>
      <trkpt lat="35.829821300" lon="-105.635675940">
        <ele>2736.400</ele>
        <time>2020-05-21T17:32:37Z</time>
        <name>WPT.81</name>
      </trkpt>
      <trkpt lat="35.829858680" lon="-105.635641570">
        <ele>2735.600</ele>
        <time>2020-05-21T17:32:41Z</time>
        <name>WPT.82</name>
      </trkpt>
      <trkpt lat="35.829890990" lon="-105.635601830">
        <ele>2734.700</ele>
        <time>2020-05-21T17:32:45Z</time>
        <name>WPT.83</name>
      </trkpt>
      <trkpt lat="35.829927350" lon="-105.635576780">
        <ele>2734.300</ele>
        <time>2020-05-21T17:32:49Z</time>
        <name>WPT.84</name>
      </trkpt>
      <trkpt lat="35.829955090" lon="-105.635545590">
        <ele>2734.500</ele>
        <time>2020-05-21T17:32:53Z</time>
        <name>WPT.85</name>
      </trkpt>
      <trkpt lat="35.829990240" lon="-105.635516180">
        <ele>2735.200</ele>
        <time>2020-05-21T17:32:58Z</time>
        <name>WPT.86</name>
      </trkpt>
      <trkpt lat="35.830027910" lon="-105.635492790">
        <ele>2734.800</ele>
        <time>2020-05-21T17:33:02Z</time>
        <name>WPT.87</name>
      </trkpt>
      <trkpt lat="35.830056810" lon="-105.635457470">
        <ele>2735.200</ele>
        <time>2020-05-21T17:33:06Z</time>
        <name>WPT.88</name>
      </trkpt>
      <trkpt lat="35.830085010" lon="-105.635419960">
        <ele>2736.700</ele>
        <time>2020-05-21T17:33:10Z</time>
        <name>WPT.89</name>
      </trkpt>
      <trkpt lat="35.830116590" lon="-105.635393490">
        <ele>2735.300</ele>
        <time>2020-05-21T17:33:13Z</time>
        <name>WPT.90</name>
      </trkpt>
      <trkpt lat="35.830148930" lon="-105.635358360">
        <ele>2735.000</ele>
        <time>2020-05-21T17:33:17Z</time>
        <name>WPT.91</name>
      </trkpt>
      <trkpt lat="35.830181960" lon="-105.635324600">
        <ele>2736.200</ele>
        <time>2020-05-21T17:33:21Z</time>
        <name>WPT.92</name>
      </trkpt>
      <trkpt lat="35.830210300" lon="-105.635292620">
        <ele>2736.900</ele>
        <time>2020-05-21T17:33:25Z</time>
        <name>WPT.93</name>
      </trkpt>
      <trkpt lat="35.830244970" lon="-105.635263300">
        <ele>2736.300</ele>
        <time>2020-05-21T17:33:29Z</time>
        <name>WPT.94</name>
      </trkpt>
      <trkpt lat="35.830272020" lon="-105.635214240">
        <ele>2736.500</ele>
        <time>2020-05-21T17:33:33Z</time>
        <name>WPT.95</name>
      </trkpt>
      <trkpt lat="35.830302990" lon="-105.635180750">
        <ele>2736.800</ele>
        <time>2020-05-21T17:33:37Z</time>
        <name>WPT.96</name>
      </trkpt>
      <trkpt lat="35.830340790" lon="-105.635147320">
        <ele>2736.700</ele>
        <time>2020-05-21T17:33:41Z</time>
        <name>WPT.97</name>
      </trkpt>
      <trkpt lat="35.830372230" lon="-105.635114360">
        <ele>2736.500</ele>
        <time>2020-05-21T17:33:45Z</time>
        <name>WPT.98</name>
      </trkpt>
      <trkpt lat="35.830399750" lon="-105.635069560">
        <ele>2736.300</ele>
        <time>2020-05-21T17:33:50Z</time>
        <name>WPT.99</name>
      </trkpt>
      <trkpt lat="35.830436010" lon="-105.635037480">
        <ele>2737.000</ele>
        <time>2020-05-21T17:33:54Z</time>
        <name>WPT.100</name>
      </trkpt>
      <trkpt lat="35.830456180" lon="-105.635000680">
        <ele>2736.100</ele>
        <time>2020-05-21T17:33:59Z</time>
        <name>WPT.101</name>
      </trkpt>
      <trkpt lat="35.830482030" lon="-105.634963280">
        <ele>2734.700</ele>
        <time>2020-05-21T17:34:05Z</time>
        <name>WPT.102</name>
      </trkpt>
      <trkpt lat="35.830516750" lon="-105.634951290">
        <ele>2737.200</ele>
        <time>2020-05-21T17:34:13Z</time>
        <name>WPT.103</name>
      </trkpt>
      <trkpt lat="35.830540340" lon="-105.634917730">
        <ele>2737.900</ele>
        <time>2020-05-21T17:34:17Z</time>
        <name>WPT.104</name>
      </trkpt>
      <trkpt lat="35.830572510" lon="-105.634894820">
        <ele>2738.400</ele>
        <time>2020-05-21T17:34:21Z</time>
        <name>WPT.105</name>
      </trkpt>
      <trkpt lat="35.830609150" lon="-105.634866120">
        <ele>2737.600</ele>
        <time>2020-05-21T17:34:25Z</time>
        <name>WPT.106</name>
      </trkpt>
      <trkpt lat="35.830641920" lon="-105.634835060">
        <ele>2740.700</ele>
        <time>2020-05-21T17:34:30Z</time>
        <name>WPT.107</name>
      </trkpt>
      <trkpt lat="35.830671190" lon="-105.634789450">
        <ele>2739.600</ele>
        <time>2020-05-21T17:34:34Z</time>
        <name>WPT.108</name>
      </trkpt>
      <trkpt lat="35.830696940" lon="-105.634739320">
        <ele>2738.400</ele>
        <time>2020-05-21T17:34:38Z</time>
        <name>WPT.109</name>
      </trkpt>
      <trkpt lat="35.830717730" lon="-105.634693150">
        <ele>2739.000</ele>
        <time>2020-05-21T17:34:42Z</time>
        <name>WPT.110</name>
      </trkpt>
      <trkpt lat="35.830740910" lon="-105.634652620">
        <ele>2739.500</ele>
        <time>2020-05-21T17:34:46Z</time>
        <name>WPT.111</name>
      </trkpt>
      <trkpt lat="35.830770810" lon="-105.634622840">
        <ele>2739.200</ele>
        <time>2020-05-21T17:34:49Z</time>
        <name>WPT.112</name>
      </trkpt>
      <trkpt lat="35.830806790" lon="-105.634590270">
        <ele>2739.200</ele>
        <time>2020-05-21T17:34:53Z</time>
        <name>WPT.113</name>
      </trkpt>
      <trkpt lat="35.830838530" lon="-105.634562730">
        <ele>2740.100</ele>
        <time>2020-05-21T17:34:56Z</time>
        <name>WPT.114</name>
      </trkpt>
      <trkpt lat="35.830869500" lon="-105.634535620">
        <ele>2740.200</ele>
        <time>2020-05-21T17:35:02Z</time>
        <name>WPT.115</name>
      </trkpt>
      <trkpt lat="35.830878810" lon="-105.634490950">
        <ele>2738.600</ele>
        <time>2020-05-21T17:35:41Z</time>
        <name>WPT.116</name>
      </trkpt>
      <trkpt lat="35.830882040" lon="-105.634440480">
        <ele>2736.900</ele>
        <time>2020-05-21T17:35:46Z</time>
        <name>WPT.117</name>
      </trkpt>
      <trkpt lat="35.830913540" lon="-105.634404890">
        <ele>2738.000</ele>
        <time>2020-05-21T17:35:50Z</time>
        <name>WPT.118</name>
      </trkpt>
      <trkpt lat="35.830947780" lon="-105.634389480">
        <ele>2739.800</ele>
        <time>2020-05-21T17:35:54Z</time>
        <name>WPT.119</name>
      </trkpt>
      <trkpt lat="35.830981340" lon="-105.634367800">
        <ele>2738.800</ele>
        <time>2020-05-21T17:35:57Z</time>
        <name>WPT.120</name>
      </trkpt>
      <trkpt lat="35.831018060" lon="-105.634337460">
        <ele>2740.100</ele>
        <time>2020-05-21T17:36:01Z</time>
        <name>WPT.121</name>
      </trkpt>
      <trkpt lat="35.831059930" lon="-105.634321150">
        <ele>2742.500</ele>
        <time>2020-05-21T17:36:06Z</time>
        <name>WPT.122</name>
      </trkpt>
      <trkpt lat="35.831094840" lon="-105.634298140">
        <ele>2744.500</ele>
        <time>2020-05-21T17:36:11Z</time>
        <name>WPT.123</name>
      </trkpt>
      <trkpt lat="35.831129600" lon="-105.634277820">
        <ele>2745.300</ele>
        <time>2020-05-21T17:36:15Z</time>
        <name>WPT.124</name>
      </trkpt>
      <trkpt lat="35.831160770" lon="-105.634252470">
        <ele>2744.900</ele>
        <time>2020-05-21T17:36:18Z</time>
        <name>WPT.125</name>
      </trkpt>
      <trkpt lat="35.831191130" lon="-105.634215020">
        <ele>2744.500</ele>
        <time>2020-05-21T17:36:22Z</time>
        <name>WPT.126</name>
      </trkpt>
      <trkpt lat="35.831220280" lon="-105.634177110">
        <ele>2744.200</ele>
        <time>2020-05-21T17:36:26Z</time>
        <name>WPT.127</name>
      </trkpt>
      <trkpt lat="35.831245970" lon="-105.634131040">
        <ele>2742.300</ele>
        <time>2020-05-21T17:36:30Z</time>
        <name>WPT.128</name>
      </trkpt>
      <trkpt lat="35.831274600" lon="-105.634088780">
        <ele>2740.700</ele>
        <time>2020-05-21T17:36:34Z</time>
        <name>WPT.129</name>
      </trkpt>
      <trkpt lat="35.831304190" lon="-105.634053980">
        <ele>2740.200</ele>
        <time>2020-05-21T17:36:38Z</time>
        <name>WPT.130</name>
      </trkpt>
      <trkpt lat="35.831336400" lon="-105.634027720">
        <ele>2740.900</ele>
        <time>2020-05-21T17:36:42Z</time>
        <name>WPT.131</name>
      </trkpt>
      <trkpt lat="35.831366110" lon="-105.633988160">
        <ele>2741.500</ele>
        <time>2020-05-21T17:36:47Z</time>
        <name>WPT.132</name>
      </trkpt>
      <trkpt lat="35.831402330" lon="-105.633955110">
        <ele>2742.200</ele>
        <time>2020-05-21T17:36:52Z</time>
        <name>WPT.133</name>
      </trkpt>
      <trkpt lat="35.831428420" lon="-105.633923930">
        <ele>2743.600</ele>
        <time>2020-05-21T17:36:56Z</time>
        <name>WPT.134</name>
      </trkpt>
      <trkpt lat="35.831458260" lon="-105.633895180">
        <ele>2743.100</ele>
        <time>2020-05-21T17:36:59Z</time>
        <name>WPT.135</name>
      </trkpt>
      <trkpt lat="35.831486190" lon="-105.633857500">
        <ele>2743.000</ele>
        <time>2020-05-21T17:37:03Z</time>
        <name>WPT.136</name>
      </trkpt>
      <trkpt lat="35.831515790" lon="-105.633824840">
        <ele>2742.200</ele>
        <time>2020-05-21T17:37:07Z</time>
        <name>WPT.137</name>
      </trkpt>
      <trkpt lat="35.831549730" lon="-105.633790630">
        <ele>2742.100</ele>
        <time>2020-05-21T17:37:12Z</time>
        <name>WPT.138</name>
      </trkpt>
      <trkpt lat="35.831573870" lon="-105.633753970">
        <ele>2742.400</ele>
        <time>2020-05-21T17:37:16Z</time>
        <name>WPT.139</name>
      </trkpt>
      <trkpt lat="35.831596570" lon="-105.633711420">
        <ele>2742.500</ele>
        <time>2020-05-21T17:37:20Z</time>
        <name>WPT.140</name>
      </trkpt>
      <trkpt lat="35.831627890" lon="-105.633687230">
        <ele>2743.600</ele>
        <time>2020-05-21T17:37:24Z</time>
        <name>WPT.141</name>
      </trkpt>
      <trkpt lat="35.831656670" lon="-105.633647090">
        <ele>2743.200</ele>
        <time>2020-05-21T17:37:29Z</time>
        <name>WPT.142</name>
      </trkpt>
      <trkpt lat="35.831691210" lon="-105.633613530">
        <ele>2743.300</ele>
        <time>2020-05-21T17:37:34Z</time>
        <name>WPT.143</name>
      </trkpt>
      <trkpt lat="35.831727280" lon="-105.633586670">
        <ele>2743.400</ele>
        <time>2020-05-21T17:37:39Z</time>
        <name>WPT.144</name>
      </trkpt>
      <trkpt lat="35.831759650" lon="-105.633560740">
        <ele>2742.100</ele>
        <time>2020-05-21T17:37:57Z</time>
        <name>WPT.145</name>
      </trkpt>
      <trkpt lat="35.831789510" lon="-105.633535030">
        <ele>2741.600</ele>
        <time>2020-05-21T17:38:00Z</time>
        <name>WPT.146</name>
      </trkpt>
      <trkpt lat="35.831814990" lon="-105.633501170">
        <ele>2740.900</ele>
        <time>2020-05-21T17:38:03Z</time>
        <name>WPT.147</name>
      </trkpt>
      <trkpt lat="35.831838390" lon="-105.633460430">
        <ele>2740.600</ele>
        <time>2020-05-21T17:38:07Z</time>
        <name>WPT.148</name>
      </trkpt>
      <trkpt lat="35.831855200" lon="-105.633416860">
        <ele>2739.000</ele>
        <time>2020-05-21T17:38:11Z</time>
        <name>WPT.149</name>
      </trkpt>
      <trkpt lat="35.831867000" lon="-105.633368110">
        <ele>2738.300</ele>
        <time>2020-05-21T17:38:21Z</time>
        <name>WPT.150</name>
      </trkpt>
      <trkpt lat="35.831901560" lon="-105.633350030">
        <ele>2738.000</ele>
        <time>2020-05-21T17:38:25Z</time>
        <name>WPT.151</name>
      </trkpt>
      <trkpt lat="35.831935730" lon="-105.633324030">
        <ele>2740.100</ele>
        <time>2020-05-21T17:38:29Z</time>
        <name>WPT.152</name>
      </trkpt>
      <trkpt lat="35.831965690" lon="-105.633288930">
        <ele>2739.200</ele>
        <time>2020-05-21T17:38:33Z</time>
        <name>WPT.153</name>
      </trkpt>
      <trkpt lat="35.831993120" lon="-105.633258970">
        <ele>2738.900</ele>
        <time>2020-05-21T17:38:36Z</time>
        <name>WPT.154</name>
      </trkpt>
      <trkpt lat="35.832018040" lon="-105.633226110">
        <ele>2737.900</ele>
        <time>2020-05-21T17:38:39Z</time>
        <name>WPT.155</name>
      </trkpt>
      <trkpt lat="35.832049470" lon="-105.633192050">
        <ele>2739.200</ele>
        <time>2020-05-21T17:38:43Z</time>
        <name>WPT.156</name>
      </trkpt>
      <trkpt lat="35.832070350" lon="-105.633155580">
        <ele>2741.600</ele>
        <time>2020-05-21T17:38:57Z</time>
        <name>WPT.157</name>
      </trkpt>
      <trkpt lat="35.832098100" lon="-105.633126150">
        <ele>2741.800</ele>
        <time>2020-05-21T17:39:01Z</time>
        <name>WPT.158</name>
      </trkpt>
      <trkpt lat="35.832115720" lon="-105.633083440">
        <ele>2742.000</ele>
        <time>2020-05-21T17:39:05Z</time>
        <name>WPT.159</name>
      </trkpt>
      <trkpt lat="35.832139980" lon="-105.633044680">
        <ele>2740.100</ele>
        <time>2020-05-21T17:39:18Z</time>
        <name>WPT.160</name>
      </trkpt>
      <trkpt lat="35.832171440" lon="-105.633018420">
        <ele>2741.800</ele>
        <time>2020-05-21T17:39:24Z</time>
        <name>WPT.161</name>
      </trkpt>
      <trkpt lat="35.832207550" lon="-105.632997570">
        <ele>2742.600</ele>
        <time>2020-05-21T17:39:34Z</time>
        <name>WPT.162</name>
      </trkpt>
      <trkpt lat="35.832233530" lon="-105.632950920">
        <ele>2741.500</ele>
        <time>2020-05-21T17:39:39Z</time>
        <name>WPT.163</name>
      </trkpt>
      <trkpt lat="35.832266530" lon="-105.632926440">
        <ele>2741.800</ele>
        <time>2020-05-21T17:39:43Z</time>
        <name>WPT.164</name>
      </trkpt>
      <trkpt lat="35.832271500" lon="-105.632879650">
        <ele>2740.700</ele>
        <time>2020-05-21T17:40:20Z</time>
        <name>WPT.165</name>
      </trkpt>
      <trkpt lat="35.832300780" lon="-105.632850770">
        <ele>2740.900</ele>
        <time>2020-05-21T17:40:25Z</time>
        <name>WPT.166</name>
      </trkpt>
      <trkpt lat="35.832334630" lon="-105.632828820">
        <ele>2742.300</ele>
        <time>2020-05-21T17:40:30Z</time>
        <name>WPT.167</name>
      </trkpt>
      <trkpt lat="35.832364680" lon="-105.632804130">
        <ele>2742.500</ele>
        <time>2020-05-21T17:40:34Z</time>
        <name>WPT.168</name>
      </trkpt>
      <trkpt lat="35.832398090" lon="-105.632773570">
        <ele>2742.100</ele>
        <time>2020-05-21T17:40:39Z</time>
        <name>WPT.169</name>
      </trkpt>
      <trkpt lat="35.832430090" lon="-105.632750510">
        <ele>2740.500</ele>
        <time>2020-05-21T17:40:42Z</time>
        <name>WPT.170</name>
      </trkpt>
      <trkpt lat="35.832469520" lon="-105.632724200">
        <ele>2738.800</ele>
        <time>2020-05-21T17:40:46Z</time>
        <name>WPT.171</name>
      </trkpt>
      <trkpt lat="35.832499980" lon="-105.632696850">
        <ele>2738.800</ele>
        <time>2020-05-21T17:40:50Z</time>
        <name>WPT.172</name>
      </trkpt>
      <trkpt lat="35.832538280" lon="-105.632672850">
        <ele>2739.200</ele>
        <time>2020-05-21T17:40:54Z</time>
        <name>WPT.173</name>
      </trkpt>
      <trkpt lat="35.832573090" lon="-105.632650270">
        <ele>2738.900</ele>
        <time>2020-05-21T17:40:58Z</time>
        <name>WPT.174</name>
      </trkpt>
      <trkpt lat="35.832611050" lon="-105.632625060">
        <ele>2738.300</ele>
        <time>2020-05-21T17:41:02Z</time>
        <name>WPT.175</name>
      </trkpt>
      <trkpt lat="35.832644050" lon="-105.632593390">
        <ele>2739.300</ele>
        <time>2020-05-21T17:41:06Z</time>
        <name>WPT.176</name>
      </trkpt>
      <trkpt lat="35.832680010" lon="-105.632571180">
        <ele>2739.500</ele>
        <time>2020-05-21T17:41:10Z</time>
        <name>WPT.177</name>
      </trkpt>
      <trkpt lat="35.832708510" lon="-105.632536680">
        <ele>2740.400</ele>
        <time>2020-05-21T17:41:14Z</time>
        <name>WPT.178</name>
      </trkpt>
      <trkpt lat="35.832741050" lon="-105.632514730">
        <ele>2741.700</ele>
        <time>2020-05-21T17:41:18Z</time>
        <name>WPT.179</name>
      </trkpt>
      <trkpt lat="35.832775000" lon="-105.632480070">
        <ele>2741.400</ele>
        <time>2020-05-21T17:41:23Z</time>
        <name>WPT.180</name>
      </trkpt>
      <trkpt lat="35.832808400" lon="-105.632438990">
        <ele>2740.800</ele>
        <time>2020-05-21T17:41:28Z</time>
        <name>WPT.181</name>
      </trkpt>
      <trkpt lat="35.832839540" lon="-105.632399330">
        <ele>2742.900</ele>
        <time>2020-05-21T17:41:33Z</time>
        <name>WPT.182</name>
      </trkpt>
      <trkpt lat="35.832868540" lon="-105.632363080">
        <ele>2743.600</ele>
        <time>2020-05-21T17:41:37Z</time>
        <name>WPT.183</name>
      </trkpt>
      <trkpt lat="35.832896590" lon="-105.632326330">
        <ele>2744.200</ele>
        <time>2020-05-21T17:41:42Z</time>
        <name>WPT.184</name>
      </trkpt>
      <trkpt lat="35.832931060" lon="-105.632292680">
        <ele>2745.000</ele>
        <time>2020-05-21T17:41:47Z</time>
        <name>WPT.185</name>
      </trkpt>
      <trkpt lat="35.832962860" lon="-105.632271000">
        <ele>2745.800</ele>
        <time>2020-05-21T17:41:51Z</time>
        <name>WPT.186</name>
      </trkpt>
      <trkpt lat="35.832994010" lon="-105.632233240">
        <ele>2745.200</ele>
        <time>2020-05-21T17:41:56Z</time>
        <name>WPT.187</name>
      </trkpt>
      <trkpt lat="35.833025720" lon="-105.632206950">
        <ele>2744.200</ele>
        <time>2020-05-21T17:42:01Z</time>
        <name>WPT.188</name>
      </trkpt>
      <trkpt lat="35.833050130" lon="-105.632171130">
        <ele>2743.700</ele>
        <time>2020-05-21T17:42:06Z</time>
        <name>WPT.189</name>
      </trkpt>
      <trkpt lat="35.833079010" lon="-105.632140330">
        <ele>2743.700</ele>
        <time>2020-05-21T17:42:10Z</time>
        <name>WPT.190</name>
      </trkpt>
      <trkpt lat="35.833115630" lon="-105.632109000">
        <ele>2744.100</ele>
        <time>2020-05-21T17:42:14Z</time>
        <name>WPT.191</name>
      </trkpt>
      <trkpt lat="35.833144180" lon="-105.632078040">
        <ele>2745.100</ele>
        <time>2020-05-21T17:42:18Z</time>
        <name>WPT.192</name>
      </trkpt>
      <trkpt lat="35.833181210" lon="-105.632042840">
        <ele>2744.900</ele>
        <time>2020-05-21T17:42:22Z</time>
        <name>WPT.193</name>
      </trkpt>
      <trkpt lat="35.833205650" lon="-105.632006290">
        <ele>2745.100</ele>
        <time>2020-05-21T17:42:26Z</time>
        <name>WPT.194</name>
      </trkpt>
      <trkpt lat="35.833234770" lon="-105.631978880">
        <ele>2745.500</ele>
        <time>2020-05-21T17:42:29Z</time>
        <name>WPT.195</name>
      </trkpt>
      <trkpt lat="35.833260720" lon="-105.631944830">
        <ele>2746.200</ele>
        <time>2020-05-21T17:42:33Z</time>
        <name>WPT.196</name>
      </trkpt>
      <trkpt lat="35.833287990" lon="-105.631911260">
        <ele>2746.000</ele>
        <time>2020-05-21T17:42:37Z</time>
        <name>WPT.197</name>
      </trkpt>
      <trkpt lat="35.833318570" lon="-105.631872770">
        <ele>2746.700</ele>
        <time>2020-05-21T17:42:41Z</time>
        <name>WPT.198</name>
      </trkpt>
      <trkpt lat="35.833350090" lon="-105.631845180">
        <ele>2747.700</ele>
        <time>2020-05-21T17:42:45Z</time>
        <name>WPT.199</name>
      </trkpt>
      <trkpt lat="35.833381590" lon="-105.631818590">
        <ele>2749.500</ele>
        <time>2020-05-21T17:42:50Z</time>
        <name>WPT.200</name>
      </trkpt>
      <trkpt lat="35.833417420" lon="-105.631786670">
        <ele>2750.800</ele>
        <time>2020-05-21T17:42:55Z</time>
        <name>WPT.201</name>
      </trkpt>
      <trkpt lat="35.833451050" lon="-105.631747410">
        <ele>2751.000</ele>
        <time>2020-05-21T17:42:59Z</time>
        <name>WPT.202</name>
      </trkpt>
      <trkpt lat="35.833442970" lon="-105.631695800">
        <ele>2748.100</ele>
        <time>2020-05-21T17:43:05Z</time>
        <name>WPT.203</name>
      </trkpt>
      <trkpt lat="35.833453740" lon="-105.631649210">
        <ele>2747.800</ele>
        <time>2020-05-21T17:43:13Z</time>
        <name>WPT.204</name>
      </trkpt>
      <trkpt lat="35.833478440" lon="-105.631615950">
        <ele>2747.800</ele>
        <time>2020-05-21T17:43:17Z</time>
        <name>WPT.205</name>
      </trkpt>
      <trkpt lat="35.833500480" lon="-105.631571680">
        <ele>2749.200</ele>
        <time>2020-05-21T17:43:22Z</time>
        <name>WPT.206</name>
      </trkpt>
      <trkpt lat="35.833524730" lon="-105.631525150">
        <ele>2749.200</ele>
        <time>2020-05-21T17:43:26Z</time>
        <name>WPT.207</name>
      </trkpt>
      <trkpt lat="35.833551660" lon="-105.631482910">
        <ele>2748.600</ele>
        <time>2020-05-21T17:43:30Z</time>
        <name>WPT.208</name>
      </trkpt>
      <trkpt lat="35.833575300" lon="-105.631438000">
        <ele>2749.500</ele>
        <time>2020-05-21T17:43:35Z</time>
        <name>WPT.209</name>
      </trkpt>
      <trkpt lat="35.833598720" lon="-105.631401980">
        <ele>2751.000</ele>
        <time>2020-05-21T17:43:39Z</time>
        <name>WPT.210</name>
      </trkpt>
      <trkpt lat="35.833620360" lon="-105.631356670">
        <ele>2751.200</ele>
        <time>2020-05-21T17:43:44Z</time>
        <name>WPT.211</name>
      </trkpt>
      <trkpt lat="35.833649510" lon="-105.631318230">
        <ele>2751.400</ele>
        <time>2020-05-21T17:43:49Z</time>
        <name>WPT.212</name>
      </trkpt>
      <trkpt lat="35.833678860" lon="-105.631286640">
        <ele>2751.400</ele>
        <time>2020-05-21T17:43:53Z</time>
        <name>WPT.213</name>
      </trkpt>
      <trkpt lat="35.833695820" lon="-105.631247150">
        <ele>2751.000</ele>
        <time>2020-05-21T17:44:12Z</time>
        <name>WPT.214</name>
      </trkpt>
      <trkpt lat="35.833731630" lon="-105.631218050">
        <ele>2750.400</ele>
        <time>2020-05-21T17:44:17Z</time>
        <name>WPT.215</name>
      </trkpt>
      <trkpt lat="35.833771440" lon="-105.631199350">
        <ele>2750.400</ele>
        <time>2020-05-21T17:44:22Z</time>
        <name>WPT.216</name>
      </trkpt>
      <trkpt lat="35.833808840" lon="-105.631179060">
        <ele>2751.100</ele>
        <time>2020-05-21T17:44:27Z</time>
        <name>WPT.217</name>
      </trkpt>
      <trkpt lat="35.833844150" lon="-105.631162700">
        <ele>2752.100</ele>
        <time>2020-05-21T17:44:31Z</time>
        <name>WPT.218</name>
      </trkpt>
      <trkpt lat="35.833879130" lon="-105.631147610">
        <ele>2751.400</ele>
        <time>2020-05-21T17:44:35Z</time>
        <name>WPT.219</name>
      </trkpt>
      <trkpt lat="35.833919430" lon="-105.631127370">
        <ele>2752.300</ele>
        <time>2020-05-21T17:44:40Z</time>
        <name>WPT.220</name>
      </trkpt>
      <trkpt lat="35.833953390" lon="-105.631109410">
        <ele>2752.700</ele>
        <time>2020-05-21T17:44:44Z</time>
        <name>WPT.221</name>
      </trkpt>
      <trkpt lat="35.833991470" lon="-105.631090170">
        <ele>2752.500</ele>
        <time>2020-05-21T17:44:48Z</time>
        <name>WPT.222</name>
      </trkpt>
      <trkpt lat="35.834028670" lon="-105.631066680">
        <ele>2752.500</ele>
        <time>2020-05-21T17:44:52Z</time>
        <name>WPT.223</name>
      </trkpt>
      <trkpt lat="35.834070620" lon="-105.631045350">
        <ele>2753.200</ele>
        <time>2020-05-21T17:44:56Z</time>
        <name>WPT.224</name>
      </trkpt>
      <trkpt lat="35.834109320" lon="-105.631041200">
        <ele>2754.400</ele>
        <time>2020-05-21T17:45:01Z</time>
        <name>WPT.225</name>
      </trkpt>
      <trkpt lat="35.834150870" lon="-105.631027090">
        <ele>2754.500</ele>
        <time>2020-05-21T17:45:05Z</time>
        <name>WPT.226</name>
      </trkpt>
      <trkpt lat="35.834191880" lon="-105.631009120">
        <ele>2753.900</ele>
        <time>2020-05-21T17:45:10Z</time>
        <name>WPT.227</name>
      </trkpt>
      <trkpt lat="35.834234620" lon="-105.631007680">
        <ele>2755.500</ele>
        <time>2020-05-21T17:45:16Z</time>
        <name>WPT.228</name>
      </trkpt>
      <trkpt lat="35.834273650" lon="-105.630987010">
        <ele>2754.300</ele>
        <time>2020-05-21T17:45:20Z</time>
        <name>WPT.229</name>
      </trkpt>
      <trkpt lat="35.834308920" lon="-105.630954590">
        <ele>2752.700</ele>
        <time>2020-05-21T17:45:32Z</time>
        <name>WPT.230</name>
      </trkpt>
      <trkpt lat="35.834342400" lon="-105.630925300">
        <ele>2752.700</ele>
        <time>2020-05-21T17:45:41Z</time>
        <name>WPT.231</name>
      </trkpt>
      <trkpt lat="35.834385800" lon="-105.630913690">
        <ele>2753.200</ele>
        <time>2020-05-21T17:45:45Z</time>
        <name>WPT.232</name>
      </trkpt>
      <trkpt lat="35.834423870" lon="-105.630894620">
        <ele>2753.600</ele>
        <time>2020-05-21T17:45:49Z</time>
        <name>WPT.233</name>
      </trkpt>
      <trkpt lat="35.834465720" lon="-105.630877930">
        <ele>2753.200</ele>
        <time>2020-05-21T17:45:53Z</time>
        <name>WPT.234</name>
      </trkpt>
      <trkpt lat="35.834500820" lon="-105.630860600">
        <ele>2753.600</ele>
        <time>2020-05-21T17:45:57Z</time>
        <name>WPT.235</name>
      </trkpt>
      <trkpt lat="35.834537330" lon="-105.630859280">
        <ele>2756.300</ele>
        <time>2020-05-21T17:46:01Z</time>
        <name>WPT.236</name>
      </trkpt>
      <trkpt lat="35.834574540" lon="-105.630827500">
        <ele>2756.300</ele>
        <time>2020-05-21T17:46:05Z</time>
        <name>WPT.237</name>
      </trkpt>
      <trkpt lat="35.834610600" lon="-105.630793100">
        <ele>2755.200</ele>
        <time>2020-05-21T17:46:09Z</time>
        <name>WPT.238</name>
      </trkpt>
      <trkpt lat="35.834642780" lon="-105.630771480">
        <ele>2755.800</ele>
        <time>2020-05-21T17:46:12Z</time>
        <name>WPT.239</name>
      </trkpt>
      <trkpt lat="35.834671830" lon="-105.630739990">
        <ele>2755.700</ele>
        <time>2020-05-21T17:46:16Z</time>
        <name>WPT.240</name>
      </trkpt>
      <trkpt lat="35.834706030" lon="-105.630698660">
        <ele>2754.600</ele>
        <time>2020-05-21T17:46:20Z</time>
        <name>WPT.241</name>
      </trkpt>
      <trkpt lat="35.834735210" lon="-105.630652150">
        <ele>2753.900</ele>
        <time>2020-05-21T17:46:24Z</time>
        <name>WPT.242</name>
      </trkpt>
      <trkpt lat="35.834756670" lon="-105.630608720">
        <ele>2752.600</ele>
        <time>2020-05-21T17:46:28Z</time>
        <name>WPT.243</name>
      </trkpt>
      <trkpt lat="35.834787450" lon="-105.630568300">
        <ele>2753.200</ele>
        <time>2020-05-21T17:46:32Z</time>
        <name>WPT.244</name>
      </trkpt>
      <trkpt lat="35.834812170" lon="-105.630525000">
        <ele>2753.300</ele>
        <time>2020-05-21T17:46:36Z</time>
        <name>WPT.245</name>
      </trkpt>
      <trkpt lat="35.834831080" lon="-105.630486610">
        <ele>2753.400</ele>
        <time>2020-05-21T17:46:39Z</time>
        <name>WPT.246</name>
      </trkpt>
      <trkpt lat="35.834860890" lon="-105.630445370">
        <ele>2754.500</ele>
        <time>2020-05-21T17:46:43Z</time>
        <name>WPT.247</name>
      </trkpt>
      <trkpt lat="35.834891700" lon="-105.630404130">
        <ele>2755.100</ele>
        <time>2020-05-21T17:46:48Z</time>
        <name>WPT.248</name>
      </trkpt>
      <trkpt lat="35.834915830" lon="-105.630364250">
        <ele>2756.300</ele>
        <time>2020-05-21T17:46:52Z</time>
        <name>WPT.249</name>
      </trkpt>
      <trkpt lat="35.834923360" lon="-105.630317800">
        <ele>2757.400</ele>
        <time>2020-05-21T17:46:56Z</time>
        <name>WPT.250</name>
      </trkpt>
      <trkpt lat="35.834921180" lon="-105.630262450">
        <ele>2757.800</ele>
        <time>2020-05-21T17:47:00Z</time>
        <name>WPT.251</name>
      </trkpt>
      <trkpt lat="35.834921270" lon="-105.630216490">
        <ele>2758.200</ele>
        <time>2020-05-21T17:47:04Z</time>
        <name>WPT.252</name>
      </trkpt>
      <trkpt lat="35.834932610" lon="-105.630162760">
        <ele>2757.800</ele>
        <time>2020-05-21T17:47:09Z</time>
        <name>WPT.253</name>
      </trkpt>
      <trkpt lat="35.834949810" lon="-105.630123660">
        <ele>2757.700</ele>
        <time>2020-05-21T17:47:13Z</time>
        <name>WPT.254</name>
      </trkpt>
      <trkpt lat="35.834968900" lon="-105.630078860">
        <ele>2757.200</ele>
        <time>2020-05-21T17:47:17Z</time>
        <name>WPT.255</name>
      </trkpt>
      <trkpt lat="35.834981930" lon="-105.630036520">
        <ele>2755.700</ele>
        <time>2020-05-21T17:47:21Z</time>
        <name>WPT.256</name>
      </trkpt>
      <trkpt lat="35.834991470" lon="-105.629988770">
        <ele>2756.600</ele>
        <time>2020-05-21T17:47:26Z</time>
        <name>WPT.257</name>
      </trkpt>
      <trkpt lat="35.834994690" lon="-105.629942210">
        <ele>2758.200</ele>
        <time>2020-05-21T17:47:31Z</time>
        <name>WPT.258</name>
      </trkpt>
      <trkpt lat="35.835011350" lon="-105.629902030">
        <ele>2758.900</ele>
        <time>2020-05-21T17:47:36Z</time>
        <name>WPT.259</name>
      </trkpt>
      <trkpt lat="35.835024400" lon="-105.629857780">
        <ele>2759.200</ele>
        <time>2020-05-21T17:47:40Z</time>
        <name>WPT.260</name>
      </trkpt>
      <trkpt lat="35.835039030" lon="-105.629806420">
        <ele>2759.800</ele>
        <time>2020-05-21T17:47:45Z</time>
        <name>WPT.261</name>
      </trkpt>
      <trkpt lat="35.835051100" lon="-105.629759040">
        <ele>2760.500</ele>
        <time>2020-05-21T17:47:50Z</time>
        <name>WPT.262</name>
      </trkpt>
      <trkpt lat="35.835065340" lon="-105.629713050">
        <ele>2761.000</ele>
        <time>2020-05-21T17:47:55Z</time>
        <name>WPT.263</name>
      </trkpt>
      <trkpt lat="35.835089530" lon="-105.629672920">
        <ele>2761.800</ele>
        <time>2020-05-21T17:48:00Z</time>
        <name>WPT.264</name>
      </trkpt>
      <trkpt lat="35.835102800" lon="-105.629623670">
        <ele>2760.600</ele>
        <time>2020-05-21T17:48:05Z</time>
        <name>WPT.265</name>
      </trkpt>
      <trkpt lat="35.835132200" lon="-105.629588140">
        <ele>2762.100</ele>
        <time>2020-05-21T17:48:10Z</time>
        <name>WPT.266</name>
      </trkpt>
      <trkpt lat="35.835165990" lon="-105.629569030">
        <ele>2763.500</ele>
        <time>2020-05-21T17:48:14Z</time>
        <name>WPT.267</name>
      </trkpt>
      <trkpt lat="35.835187770" lon="-105.629522460">
        <ele>2762.000</ele>
        <time>2020-05-21T17:48:19Z</time>
        <name>WPT.268</name>
      </trkpt>
      <trkpt lat="35.835203980" lon="-105.629482210">
        <ele>2761.100</ele>
        <time>2020-05-21T17:48:23Z</time>
        <name>WPT.269</name>
      </trkpt>
      <trkpt lat="35.835223240" lon="-105.629444770">
        <ele>2760.700</ele>
        <time>2020-05-21T17:48:27Z</time>
        <name>WPT.270</name>
      </trkpt>
      <trkpt lat="35.835252480" lon="-105.629418640">
        <ele>2761.600</ele>
        <time>2020-05-21T17:48:31Z</time>
        <name>WPT.271</name>
      </trkpt>
      <trkpt lat="35.835284450" lon="-105.629387750">
        <ele>2762.100</ele>
        <time>2020-05-21T17:48:35Z</time>
        <name>WPT.272</name>
      </trkpt>
      <trkpt lat="35.835313250" lon="-105.629351580">
        <ele>2761.500</ele>
        <time>2020-05-21T17:48:39Z</time>
        <name>WPT.273</name>
      </trkpt>
      <trkpt lat="35.835333270" lon="-105.629307170">
        <ele>2762.700</ele>
        <time>2020-05-21T17:48:44Z</time>
        <name>WPT.274</name>
      </trkpt>
      <trkpt lat="35.835363940" lon="-105.629271340">
        <ele>2765.200</ele>
        <time>2020-05-21T17:48:49Z</time>
        <name>WPT.275</name>
      </trkpt>
      <trkpt lat="35.835396670" lon="-105.629240740">
        <ele>2765.300</ele>
        <time>2020-05-21T17:48:53Z</time>
        <name>WPT.276</name>
      </trkpt>
      <trkpt lat="35.835428130" lon="-105.629202900">
        <ele>2764.700</ele>
        <time>2020-05-21T17:48:58Z</time>
        <name>WPT.277</name>
      </trkpt>
      <trkpt lat="35.835456270" lon="-105.629163560">
        <ele>2764.400</ele>
        <time>2020-05-21T17:49:02Z</time>
        <name>WPT.278</name>
      </trkpt>
      <trkpt lat="35.835482460" lon="-105.629131760">
        <ele>2763.900</ele>
        <time>2020-05-21T17:49:32Z</time>
        <name>WPT.279</name>
      </trkpt>
      <trkpt lat="35.835511370" lon="-105.629092080">
        <ele>2764.800</ele>
        <time>2020-05-21T17:49:37Z</time>
        <name>WPT.280</name>
      </trkpt>
      <trkpt lat="35.835539280" lon="-105.629055810">
        <ele>2765.500</ele>
        <time>2020-05-21T17:49:42Z</time>
        <name>WPT.281</name>
      </trkpt>
      <trkpt lat="35.835567430" lon="-105.629016210">
        <ele>2765.700</ele>
        <time>2020-05-21T17:49:47Z</time>
        <name>WPT.282</name>
      </trkpt>
      <trkpt lat="35.835588150" lon="-105.628976090">
        <ele>2764.700</ele>
        <time>2020-05-21T17:49:51Z</time>
        <name>WPT.283</name>
      </trkpt>
      <trkpt lat="35.835620900" lon="-105.628943710">
        <ele>2765.500</ele>
        <time>2020-05-21T17:49:55Z</time>
        <name>WPT.284</name>
      </trkpt>
      <trkpt lat="35.835654830" lon="-105.628913800">
        <ele>2766.600</ele>
        <time>2020-05-21T17:49:59Z</time>
        <name>WPT.285</name>
      </trkpt>
      <trkpt lat="35.835683620" lon="-105.628882430">
        <ele>2767.800</ele>
        <time>2020-05-21T17:50:03Z</time>
        <name>WPT.286</name>
      </trkpt>
      <trkpt lat="35.835718900" lon="-105.628853750">
        <ele>2768.500</ele>
        <time>2020-05-21T17:50:08Z</time>
        <name>WPT.287</name>
      </trkpt>
      <trkpt lat="35.835746990" lon="-105.628810420">
        <ele>2769.300</ele>
        <time>2020-05-21T17:50:13Z</time>
        <name>WPT.288</name>
      </trkpt>
      <trkpt lat="35.835777700" lon="-105.628782460">
        <ele>2770.400</ele>
        <time>2020-05-21T17:50:17Z</time>
        <name>WPT.289</name>
      </trkpt>
      <trkpt lat="35.835806630" lon="-105.628750880">
        <ele>2770.600</ele>
        <time>2020-05-21T17:50:21Z</time>
        <name>WPT.290</name>
      </trkpt>
      <trkpt lat="35.835834360" lon="-105.628719340">
        <ele>2770.300</ele>
        <time>2020-05-21T17:50:25Z</time>
        <name>WPT.291</name>
      </trkpt>
      <trkpt lat="35.835860220" lon="-105.628675770">
        <ele>2770.700</ele>
        <time>2020-05-21T17:50:30Z</time>
        <name>WPT.292</name>
      </trkpt>
      <trkpt lat="35.835887400" lon="-105.628639870">
        <ele>2772.000</ele>
        <time>2020-05-21T17:50:34Z</time>
        <name>WPT.293</name>
      </trkpt>
      <trkpt lat="35.835905710" lon="-105.628599710">
        <ele>2772.600</ele>
        <time>2020-05-21T17:50:38Z</time>
        <name>WPT.294</name>
      </trkpt>
      <trkpt lat="35.835932240" lon="-105.628562790">
        <ele>2773.600</ele>
        <time>2020-05-21T17:50:42Z</time>
        <name>WPT.295</name>
      </trkpt>
      <trkpt lat="35.835950470" lon="-105.628512200">
        <ele>2774.700</ele>
        <time>2020-05-21T17:50:47Z</time>
        <name>WPT.296</name>
      </trkpt>
      <trkpt lat="35.835957270" lon="-105.628465740">
        <ele>2774.000</ele>
        <time>2020-05-21T17:51:35Z</time>
        <name>WPT.297</name>
      </trkpt>
      <trkpt lat="35.835972050" lon="-105.628421220">
        <ele>2773.400</ele>
        <time>2020-05-21T17:51:39Z</time>
        <name>WPT.298</name>
      </trkpt>
      <trkpt lat="35.835992620" lon="-105.628380530">
        <ele>2773.200</ele>
        <time>2020-05-21T17:51:43Z</time>
        <name>WPT.299</name>
      </trkpt>
      <trkpt lat="35.836017090" lon="-105.628346220">
        <ele>2773.200</ele>
        <time>2020-05-21T17:51:47Z</time>
        <name>WPT.300</name>
      </trkpt>
      <trkpt lat="35.836049560" lon="-105.628314440">
        <ele>2775.500</ele>
        <time>2020-05-21T17:51:52Z</time>
        <name>WPT.301</name>
      </trkpt>
      <trkpt lat="35.836075530" lon="-105.628280550">
        <ele>2776.400</ele>
        <time>2020-05-21T17:51:56Z</time>
        <name>WPT.302</name>
      </trkpt>
      <trkpt lat="35.836090850" lon="-105.628237270">
        <ele>2775.100</ele>
        <time>2020-05-21T17:52:00Z</time>
        <name>WPT.303</name>
      </trkpt>
      <trkpt lat="35.836105890" lon="-105.628194440">
        <ele>2774.800</ele>
        <time>2020-05-21T17:52:04Z</time>
        <name>WPT.304</name>
      </trkpt>
      <trkpt lat="35.836120200" lon="-105.628152960">
        <ele>2774.700</ele>
        <time>2020-05-21T17:52:07Z</time>
        <name>WPT.305</name>
      </trkpt>
      <trkpt lat="35.836136530" lon="-105.628106670">
        <ele>2775.200</ele>
        <time>2020-05-21T17:52:11Z</time>
        <name>WPT.306</name>
      </trkpt>
      <trkpt lat="35.836157790" lon="-105.628065250">
        <ele>2775.800</ele>
        <time>2020-05-21T17:52:15Z</time>
        <name>WPT.307</name>
      </trkpt>
      <trkpt lat="35.836173120" lon="-105.628022140">
        <ele>2775.500</ele>
        <time>2020-05-21T17:52:19Z</time>
        <name>WPT.308</name>
      </trkpt>
      <trkpt lat="35.836190910" lon="-105.627978650">
        <ele>2775.500</ele>
        <time>2020-05-21T17:52:23Z</time>
        <name>WPT.309</name>
      </trkpt>
      <trkpt lat="35.836209490" lon="-105.627935850">
        <ele>2775.300</ele>
        <time>2020-05-21T17:52:27Z</time>
        <name>WPT.310</name>
      </trkpt>
      <trkpt lat="35.836233200" lon="-105.627888560">
        <ele>2776.700</ele>
        <time>2020-05-21T17:52:32Z</time>
        <name>WPT.311</name>
      </trkpt>
      <trkpt lat="35.836249380" lon="-105.627842880">
        <ele>2779.100</ele>
        <time>2020-05-21T17:52:37Z</time>
        <name>WPT.312</name>
      </trkpt>
      <trkpt lat="35.836272840" lon="-105.627794950">
        <ele>2779.700</ele>
        <time>2020-05-21T17:52:42Z</time>
        <name>WPT.313</name>
      </trkpt>
      <trkpt lat="35.836293980" lon="-105.627756790">
        <ele>2779.700</ele>
        <time>2020-05-21T17:52:46Z</time>
        <name>WPT.314</name>
      </trkpt>
      <trkpt lat="35.836310430" lon="-105.627714990">
        <ele>2779.600</ele>
        <time>2020-05-21T17:52:50Z</time>
        <name>WPT.315</name>
      </trkpt>
      <trkpt lat="35.836324990" lon="-105.627669640">
        <ele>2779.900</ele>
        <time>2020-05-21T17:52:54Z</time>
        <name>WPT.316</name>
      </trkpt>
      <trkpt lat="35.836338640" lon="-105.627616350">
        <ele>2779.800</ele>
        <time>2020-05-21T17:52:59Z</time>
        <name>WPT.317</name>
      </trkpt>
      <trkpt lat="35.836351860" lon="-105.627565790">
        <ele>2779.100</ele>
        <time>2020-05-21T17:53:04Z</time>
        <name>WPT.318</name>
      </trkpt>
      <trkpt lat="35.836363360" lon="-105.627522410">
        <ele>2779.700</ele>
        <time>2020-05-21T17:53:08Z</time>
        <name>WPT.319</name>
      </trkpt>
      <trkpt lat="35.836376700" lon="-105.627476700">
        <ele>2779.700</ele>
        <time>2020-05-21T17:53:12Z</time>
        <name>WPT.320</name>
      </trkpt>
      <trkpt lat="35.836393160" lon="-105.627435180">
        <ele>2780.500</ele>
        <time>2020-05-21T17:53:16Z</time>
        <name>WPT.321</name>
      </trkpt>
      <trkpt lat="35.836399050" lon="-105.627386080">
        <ele>2780.700</ele>
        <time>2020-05-21T17:53:20Z</time>
        <name>WPT.322</name>
      </trkpt>
      <trkpt lat="35.836411850" lon="-105.627336080">
        <ele>2781.500</ele>
        <time>2020-05-21T17:53:25Z</time>
        <name>WPT.323</name>
      </trkpt>
      <trkpt lat="35.836426800" lon="-105.627286640">
        <ele>2783.000</ele>
        <time>2020-05-21T17:53:30Z</time>
        <name>WPT.324</name>
      </trkpt>
      <trkpt lat="35.836436440" lon="-105.627232970">
        <ele>2783.800</ele>
        <time>2020-05-21T17:53:35Z</time>
        <name>WPT.325</name>
      </trkpt>
      <trkpt lat="35.836452170" lon="-105.627191320">
        <ele>2783.800</ele>
        <time>2020-05-21T17:53:39Z</time>
        <name>WPT.326</name>
      </trkpt>
      <trkpt lat="35.836474530" lon="-105.627151130">
        <ele>2785.300</ele>
        <time>2020-05-21T17:53:44Z</time>
        <name>WPT.327</name>
      </trkpt>
      <trkpt lat="35.836484960" lon="-105.627106010">
        <ele>2786.900</ele>
        <time>2020-05-21T17:53:49Z</time>
        <name>WPT.328</name>
      </trkpt>
      <trkpt lat="35.836504330" lon="-105.627063700">
        <ele>2787.800</ele>
        <time>2020-05-21T17:53:54Z</time>
        <name>WPT.329</name>
      </trkpt>
      <trkpt lat="35.836530590" lon="-105.627023050">
        <ele>2788.900</ele>
        <time>2020-05-21T17:53:59Z</time>
        <name>WPT.330</name>
      </trkpt>
      <trkpt lat="35.836552650" lon="-105.626984770">
        <ele>2788.500</ele>
        <time>2020-05-21T17:54:03Z</time>
        <name>WPT.331</name>
      </trkpt>
      <trkpt lat="35.836563980" lon="-105.626941370">
        <ele>2788.400</ele>
        <time>2020-05-21T17:54:06Z</time>
        <name>WPT.332</name>
      </trkpt>
      <trkpt lat="35.836584210" lon="-105.626899680">
        <ele>2789.500</ele>
        <time>2020-05-21T17:54:10Z</time>
        <name>WPT.333</name>
      </trkpt>
      <trkpt lat="35.836595770" lon="-105.626845670">
        <ele>2788.200</ele>
        <time>2020-05-21T17:54:14Z</time>
        <name>WPT.334</name>
      </trkpt>
      <trkpt lat="35.836609330" lon="-105.626802610">
        <ele>2788.500</ele>
        <time>2020-05-21T17:54:18Z</time>
        <name>WPT.335</name>
      </trkpt>
      <trkpt lat="35.836637020" lon="-105.626760410">
        <ele>2791.200</ele>
        <time>2020-05-21T17:54:23Z</time>
        <name>WPT.336</name>
      </trkpt>
      <trkpt lat="35.836647070" lon="-105.626713840">
        <ele>2791.700</ele>
        <time>2020-05-21T17:54:27Z</time>
        <name>WPT.337</name>
      </trkpt>
      <trkpt lat="35.836661270" lon="-105.626667850">
        <ele>2791.300</ele>
        <time>2020-05-21T17:54:31Z</time>
        <name>WPT.338</name>
      </trkpt>
      <trkpt lat="35.836673460" lon="-105.626622180">
        <ele>2789.700</ele>
        <time>2020-05-21T17:56:38Z</time>
        <name>WPT.339</name>
      </trkpt>
      <trkpt lat="35.836685900" lon="-105.626579990">
        <ele>2791.100</ele>
        <time>2020-05-21T17:56:42Z</time>
        <name>WPT.340</name>
      </trkpt>
      <trkpt lat="35.836696440" lon="-105.626524930">
        <ele>2791.800</ele>
        <time>2020-05-21T17:56:46Z</time>
        <name>WPT.341</name>
      </trkpt>
      <trkpt lat="35.836719860" lon="-105.626479250">
        <ele>2792.800</ele>
        <time>2020-05-21T17:56:51Z</time>
        <name>WPT.342</name>
      </trkpt>
      <trkpt lat="35.836740190" lon="-105.626430060">
        <ele>2794.700</ele>
        <time>2020-05-21T17:56:56Z</time>
        <name>WPT.343</name>
      </trkpt>
      <trkpt lat="35.836761240" lon="-105.626386950">
        <ele>2794.400</ele>
        <time>2020-05-21T17:57:00Z</time>
        <name>WPT.344</name>
      </trkpt>
      <trkpt lat="35.836789090" lon="-105.626346520">
        <ele>2795.700</ele>
        <time>2020-05-21T17:57:05Z</time>
        <name>WPT.345</name>
      </trkpt>
      <trkpt lat="35.836800760" lon="-105.626291330">
        <ele>2795.800</ele>
        <time>2020-05-21T17:57:10Z</time>
        <name>WPT.346</name>
      </trkpt>
      <trkpt lat="35.836814260" lon="-105.626246370">
        <ele>2795.400</ele>
        <time>2020-05-21T17:57:14Z</time>
        <name>WPT.347</name>
      </trkpt>
      <trkpt lat="35.836833750" lon="-105.626197250">
        <ele>2795.500</ele>
        <time>2020-05-21T17:57:19Z</time>
        <name>WPT.348</name>
      </trkpt>
      <trkpt lat="35.836857290" lon="-105.626159330">
        <ele>2796.800</ele>
        <time>2020-05-21T17:57:23Z</time>
        <name>WPT.349</name>
      </trkpt>
      <trkpt lat="35.836875120" lon="-105.626117320">
        <ele>2797.600</ele>
        <time>2020-05-21T17:57:27Z</time>
        <name>WPT.350</name>
      </trkpt>
      <trkpt lat="35.836896970" lon="-105.626065870">
        <ele>2799.000</ele>
        <time>2020-05-21T17:57:32Z</time>
        <name>WPT.351</name>
      </trkpt>
      <trkpt lat="35.836910280" lon="-105.626019310">
        <ele>2799.700</ele>
        <time>2020-05-21T17:57:36Z</time>
        <name>WPT.352</name>
      </trkpt>
      <trkpt lat="35.836925410" lon="-105.625977660">
        <ele>2801.000</ele>
        <time>2020-05-21T17:57:40Z</time>
        <name>WPT.353</name>
      </trkpt>
      <trkpt lat="35.836942090" lon="-105.625928380">
        <ele>2800.300</ele>
        <time>2020-05-21T17:57:44Z</time>
        <name>WPT.354</name>
      </trkpt>
      <trkpt lat="35.836976100" lon="-105.625893690">
        <ele>2799.900</ele>
        <time>2020-05-21T17:57:48Z</time>
        <name>WPT.355</name>
      </trkpt>
      <trkpt lat="35.836989360" lon="-105.625851850">
        <ele>2799.500</ele>
        <time>2020-05-21T17:57:51Z</time>
        <name>WPT.356</name>
      </trkpt>
      <trkpt lat="35.836993860" lon="-105.625799960">
        <ele>2800.300</ele>
        <time>2020-05-21T17:57:55Z</time>
        <name>WPT.357</name>
      </trkpt>
      <trkpt lat="35.837003040" lon="-105.625748610">
        <ele>2801.000</ele>
        <time>2020-05-21T17:57:59Z</time>
        <name>WPT.358</name>
      </trkpt>
      <trkpt lat="35.837015870" lon="-105.625706490">
        <ele>2801.700</ele>
        <time>2020-05-21T17:58:03Z</time>
        <name>WPT.359</name>
      </trkpt>
      <trkpt lat="35.837017700" lon="-105.625662140">
        <ele>2801.800</ele>
        <time>2020-05-21T17:58:08Z</time>
        <name>WPT.360</name>
      </trkpt>
      <trkpt lat="35.837025830" lon="-105.625613890">
        <ele>2801.000</ele>
        <time>2020-05-21T17:58:15Z</time>
        <name>WPT.361</name>
      </trkpt>
      <trkpt lat="35.837029580" lon="-105.625569540">
        <ele>2799.400</ele>
        <time>2020-05-21T17:58:50Z</time>
        <name>WPT.362</name>
      </trkpt>
      <trkpt lat="35.837048190" lon="-105.625528810">
        <ele>2798.700</ele>
        <time>2020-05-21T17:58:54Z</time>
        <name>WPT.363</name>
      </trkpt>
      <trkpt lat="35.837065620" lon="-105.625489370">
        <ele>2799.800</ele>
        <time>2020-05-21T17:58:58Z</time>
        <name>WPT.364</name>
      </trkpt>
      <trkpt lat="35.837084490" lon="-105.625440910">
        <ele>2800.100</ele>
        <time>2020-05-21T17:59:03Z</time>
        <name>WPT.365</name>
      </trkpt>
      <trkpt lat="35.837104380" lon="-105.625391960">
        <ele>2801.100</ele>
        <time>2020-05-21T17:59:08Z</time>
        <name>WPT.366</name>
      </trkpt>
      <trkpt lat="35.837123450" lon="-105.625348300">
        <ele>2802.100</ele>
        <time>2020-05-21T17:59:13Z</time>
        <name>WPT.367</name>
      </trkpt>
      <trkpt lat="35.837139920" lon="-105.625299570">
        <ele>2801.600</ele>
        <time>2020-05-21T17:59:17Z</time>
        <name>WPT.368</name>
      </trkpt>
      <trkpt lat="35.837162510" lon="-105.625260950">
        <ele>2802.600</ele>
        <time>2020-05-21T17:59:21Z</time>
        <name>WPT.369</name>
      </trkpt>
      <trkpt lat="35.837182430" lon="-105.625220030">
        <ele>2802.800</ele>
        <time>2020-05-21T17:59:25Z</time>
        <name>WPT.370</name>
      </trkpt>
      <trkpt lat="35.837201320" lon="-105.625180840">
        <ele>2803.300</ele>
        <time>2020-05-21T17:59:29Z</time>
        <name>WPT.371</name>
      </trkpt>
      <trkpt lat="35.837228970" lon="-105.625139540">
        <ele>2805.700</ele>
        <time>2020-05-21T17:59:34Z</time>
        <name>WPT.372</name>
      </trkpt>
      <trkpt lat="35.837243150" lon="-105.625094080">
        <ele>2805.200</ele>
        <time>2020-05-21T17:59:38Z</time>
        <name>WPT.373</name>
      </trkpt>
      <trkpt lat="35.837276090" lon="-105.625055990">
        <ele>2807.000</ele>
        <time>2020-05-21T17:59:43Z</time>
        <name>WPT.374</name>
      </trkpt>
      <trkpt lat="35.837300760" lon="-105.625016260">
        <ele>2808.300</ele>
        <time>2020-05-21T17:59:47Z</time>
        <name>WPT.375</name>
      </trkpt>
      <trkpt lat="35.837321610" lon="-105.624980050">
        <ele>2809.400</ele>
        <time>2020-05-21T17:59:51Z</time>
        <name>WPT.376</name>
      </trkpt>
      <trkpt lat="35.837334110" lon="-105.624937920">
        <ele>2809.600</ele>
        <time>2020-05-21T17:59:55Z</time>
        <name>WPT.377</name>
      </trkpt>
      <trkpt lat="35.837352100" lon="-105.624897350">
        <ele>2809.300</ele>
        <time>2020-05-21T17:59:59Z</time>
        <name>WPT.378</name>
      </trkpt>
      <trkpt lat="35.837378420" lon="-105.624860540">
        <ele>2810.500</ele>
        <time>2020-05-21T18:00:03Z</time>
        <name>WPT.379</name>
      </trkpt>
      <trkpt lat="35.837397210" lon="-105.624821030">
        <ele>2811.000</ele>
        <time>2020-05-21T18:00:08Z</time>
        <name>WPT.380</name>
      </trkpt>
      <trkpt lat="35.837420790" lon="-105.624771690">
        <ele>2811.200</ele>
        <time>2020-05-21T18:00:13Z</time>
        <name>WPT.381</name>
      </trkpt>
      <trkpt lat="35.837437140" lon="-105.624721830">
        <ele>2810.600</ele>
        <time>2020-05-21T18:00:17Z</time>
        <name>WPT.382</name>
      </trkpt>
      <trkpt lat="35.837436860" lon="-105.624666490">
        <ele>2808.400</ele>
        <time>2020-05-21T18:00:21Z</time>
        <name>WPT.383</name>
      </trkpt>
      <trkpt lat="35.837442630" lon="-105.624612090">
        <ele>2807.900</ele>
        <time>2020-05-21T18:00:25Z</time>
        <name>WPT.384</name>
      </trkpt>
      <trkpt lat="35.837460070" lon="-105.624563790">
        <ele>2808.600</ele>
        <time>2020-05-21T18:00:30Z</time>
        <name>WPT.385</name>
      </trkpt>
      <trkpt lat="35.837480830" lon="-105.624519250">
        <ele>2807.600</ele>
        <time>2020-05-21T18:00:35Z</time>
        <name>WPT.386</name>
      </trkpt>
      <trkpt lat="35.837506030" lon="-105.624483540">
        <ele>2807.200</ele>
        <time>2020-05-21T18:00:39Z</time>
        <name>WPT.387</name>
      </trkpt>
      <trkpt lat="35.837541880" lon="-105.624458180">
        <ele>2808.600</ele>
        <time>2020-05-21T18:00:44Z</time>
        <name>WPT.388</name>
      </trkpt>
      <trkpt lat="35.837576170" lon="-105.624424550">
        <ele>2810.100</ele>
        <time>2020-05-21T18:00:49Z</time>
        <name>WPT.389</name>
      </trkpt>
      <trkpt lat="35.837598320" lon="-105.624381500">
        <ele>2810.500</ele>
        <time>2020-05-21T18:00:54Z</time>
        <name>WPT.390</name>
      </trkpt>
      <trkpt lat="35.837624670" lon="-105.624341800">
        <ele>2811.700</ele>
        <time>2020-05-21T18:00:59Z</time>
        <name>WPT.391</name>
      </trkpt>
      <trkpt lat="35.837641370" lon="-105.624298510">
        <ele>2811.900</ele>
        <time>2020-05-21T18:01:03Z</time>
        <name>WPT.392</name>
      </trkpt>
      <trkpt lat="35.837664480" lon="-105.624250830">
        <ele>2812.300</ele>
        <time>2020-05-21T18:01:08Z</time>
        <name>WPT.393</name>
      </trkpt>
      <trkpt lat="35.837691250" lon="-105.624220760">
        <ele>2814.900</ele>
        <time>2020-05-21T18:01:12Z</time>
        <name>WPT.394</name>
      </trkpt>
      <trkpt lat="35.837715380" lon="-105.624178070">
        <ele>2816.200</ele>
        <time>2020-05-21T18:01:16Z</time>
        <name>WPT.395</name>
      </trkpt>
      <trkpt lat="35.837732700" lon="-105.624127700">
        <ele>2815.600</ele>
        <time>2020-05-21T18:01:20Z</time>
        <name>WPT.396</name>
      </trkpt>
      <trkpt lat="35.837750500" lon="-105.624081490">
        <ele>2815.000</ele>
        <time>2020-05-21T18:01:24Z</time>
        <name>WPT.397</name>
      </trkpt>
      <trkpt lat="35.837773960" lon="-105.624036670">
        <ele>2814.800</ele>
        <time>2020-05-21T18:01:28Z</time>
        <name>WPT.398</name>
      </trkpt>
      <trkpt lat="35.837800060" lon="-105.624001780">
        <ele>2815.200</ele>
        <time>2020-05-21T18:01:32Z</time>
        <name>WPT.399</name>
      </trkpt>
      <trkpt lat="35.837819850" lon="-105.623960680">
        <ele>2814.000</ele>
        <time>2020-05-21T18:01:36Z</time>
        <name>WPT.400</name>
      </trkpt>
      <trkpt lat="35.837840450" lon="-105.623916170">
        <ele>2812.600</ele>
        <time>2020-05-21T18:01:40Z</time>
        <name>WPT.401</name>
      </trkpt>
      <trkpt lat="35.837866220" lon="-105.623880070">
        <ele>2812.600</ele>
        <time>2020-05-21T18:01:44Z</time>
        <name>WPT.402</name>
      </trkpt>
      <trkpt lat="35.837890780" lon="-105.623837190">
        <ele>2813.500</ele>
        <time>2020-05-21T18:01:48Z</time>
        <name>WPT.403</name>
      </trkpt>
      <trkpt lat="35.837910150" lon="-105.623798700">
        <ele>2813.600</ele>
        <time>2020-05-21T18:01:51Z</time>
        <name>WPT.404</name>
      </trkpt>
      <trkpt lat="35.837934900" lon="-105.623757640">
        <ele>2814.000</ele>
        <time>2020-05-21T18:01:55Z</time>
        <name>WPT.405</name>
      </trkpt>
      <trkpt lat="35.837958000" lon="-105.623722810">
        <ele>2812.700</ele>
        <time>2020-05-21T18:01:58Z</time>
        <name>WPT.406</name>
      </trkpt>
      <trkpt lat="35.837981570" lon="-105.623679560">
        <ele>2812.100</ele>
        <time>2020-05-21T18:02:02Z</time>
        <name>WPT.407</name>
      </trkpt>
      <trkpt lat="35.838010700" lon="-105.623646480">
        <ele>2812.600</ele>
        <time>2020-05-21T18:03:12Z</time>
        <name>WPT.408</name>
      </trkpt>
      <trkpt lat="35.838038130" lon="-105.623605190">
        <ele>2813.800</ele>
        <time>2020-05-21T18:03:17Z</time>
        <name>WPT.409</name>
      </trkpt>
      <trkpt lat="35.838058980" lon="-105.623568930">
        <ele>2814.200</ele>
        <time>2020-05-21T18:03:21Z</time>
        <name>WPT.410</name>
      </trkpt>
      <trkpt lat="35.838077370" lon="-105.623528320">
        <ele>2814.000</ele>
        <time>2020-05-21T18:03:25Z</time>
        <name>WPT.411</name>
      </trkpt>
      <trkpt lat="35.838103810" lon="-105.623492720">
        <ele>2811.900</ele>
        <time>2020-05-21T18:03:32Z</time>
        <name>WPT.412</name>
      </trkpt>
      <trkpt lat="35.838112360" lon="-105.623447150">
        <ele>2812.400</ele>
        <time>2020-05-21T18:03:51Z</time>
        <name>WPT.413</name>
      </trkpt>
      <trkpt lat="35.838140290" lon="-105.623417640">
        <ele>2815.800</ele>
        <time>2020-05-21T18:03:58Z</time>
        <name>WPT.414</name>
      </trkpt>
      <trkpt lat="35.838156300" lon="-105.623369900">
        <ele>2814.700</ele>
        <time>2020-05-21T18:04:07Z</time>
        <name>WPT.415</name>
      </trkpt>
      <trkpt lat="35.838185980" lon="-105.623340890">
        <ele>2814.500</ele>
        <time>2020-05-21T18:04:10Z</time>
        <name>WPT.416</name>
      </trkpt>
      <trkpt lat="35.838213990" lon="-105.623309680">
        <ele>2813.500</ele>
        <time>2020-05-21T18:04:13Z</time>
        <name>WPT.417</name>
      </trkpt>
      <trkpt lat="35.838245100" lon="-105.623274340">
        <ele>2813.500</ele>
        <time>2020-05-21T18:04:17Z</time>
        <name>WPT.418</name>
      </trkpt>
      <trkpt lat="35.838283790" lon="-105.623244630">
        <ele>2812.200</ele>
        <time>2020-05-21T18:04:21Z</time>
        <name>WPT.419</name>
      </trkpt>
      <trkpt lat="35.838300880" lon="-105.623197100">
        <ele>2811.400</ele>
        <time>2020-05-21T18:04:25Z</time>
        <name>WPT.420</name>
      </trkpt>
      <trkpt lat="35.838330770" lon="-105.623156990">
        <ele>2810.400</ele>
        <time>2020-05-21T18:04:29Z</time>
        <name>WPT.421</name>
      </trkpt>
      <trkpt lat="35.838369470" lon="-105.623128180">
        <ele>2813.000</ele>
        <time>2020-05-21T18:04:33Z</time>
        <name>WPT.422</name>
      </trkpt>
      <trkpt lat="35.838405090" lon="-105.623108430">
        <ele>2814.900</ele>
        <time>2020-05-21T18:04:37Z</time>
        <name>WPT.423</name>
      </trkpt>
      <trkpt lat="35.838429740" lon="-105.623072230">
        <ele>2818.000</ele>
        <time>2020-05-21T18:04:42Z</time>
        <name>WPT.424</name>
      </trkpt>
      <trkpt lat="35.838461150" lon="-105.623030460">
        <ele>2818.200</ele>
        <time>2020-05-21T18:04:47Z</time>
        <name>WPT.425</name>
      </trkpt>
      <trkpt lat="35.838480380" lon="-105.622990190">
        <ele>2819.800</ele>
        <time>2020-05-21T18:04:51Z</time>
        <name>WPT.426</name>
      </trkpt>
      <trkpt lat="35.838496080" lon="-105.622943290">
        <ele>2818.400</ele>
        <time>2020-05-21T18:04:55Z</time>
        <name>WPT.427</name>
      </trkpt>
      <trkpt lat="35.838525280" lon="-105.622911870">
        <ele>2820.300</ele>
        <time>2020-05-21T18:05:00Z</time>
        <name>WPT.428</name>
      </trkpt>
      <trkpt lat="35.838550460" lon="-105.622877560">
        <ele>2821.200</ele>
        <time>2020-05-21T18:05:04Z</time>
        <name>WPT.429</name>
      </trkpt>
      <trkpt lat="35.838582260" lon="-105.622836710">
        <ele>2821.400</ele>
        <time>2020-05-21T18:05:09Z</time>
        <name>WPT.430</name>
      </trkpt>
      <trkpt lat="35.838602530" lon="-105.622795470">
        <ele>2820.300</ele>
        <time>2020-05-21T18:05:13Z</time>
        <name>WPT.431</name>
      </trkpt>
      <trkpt lat="35.838624900" lon="-105.622752590">
        <ele>2820.000</ele>
        <time>2020-05-21T18:05:17Z</time>
        <name>WPT.432</name>
      </trkpt>
      <trkpt lat="35.838646510" lon="-105.622713750">
        <ele>2819.000</ele>
        <time>2020-05-21T18:05:20Z</time>
        <name>WPT.433</name>
      </trkpt>
      <trkpt lat="35.838665060" lon="-105.622663170">
        <ele>2817.700</ele>
        <time>2020-05-21T18:05:24Z</time>
        <name>WPT.434</name>
      </trkpt>
      <trkpt lat="35.838683170" lon="-105.622615940">
        <ele>2816.600</ele>
        <time>2020-05-21T18:05:28Z</time>
        <name>WPT.435</name>
      </trkpt>
      <trkpt lat="35.838706520" lon="-105.622578320">
        <ele>2817.100</ele>
        <time>2020-05-21T18:05:32Z</time>
        <name>WPT.436</name>
      </trkpt>
      <trkpt lat="35.838728600" lon="-105.622534990">
        <ele>2817.600</ele>
        <time>2020-05-21T18:05:36Z</time>
        <name>WPT.437</name>
      </trkpt>
      <trkpt lat="35.838742330" lon="-105.622488080">
        <ele>2817.800</ele>
        <time>2020-05-21T18:05:40Z</time>
        <name>WPT.438</name>
      </trkpt>
      <trkpt lat="35.838762390" lon="-105.622445020">
        <ele>2818.000</ele>
        <time>2020-05-21T18:05:44Z</time>
        <name>WPT.439</name>
      </trkpt>
      <trkpt lat="35.838791170" lon="-105.622407910">
        <ele>2817.200</ele>
        <time>2020-05-21T18:05:48Z</time>
        <name>WPT.440</name>
      </trkpt>
      <trkpt lat="35.838818670" lon="-105.622372710">
        <ele>2817.500</ele>
        <time>2020-05-21T18:05:52Z</time>
        <name>WPT.441</name>
      </trkpt>
      <trkpt lat="35.838841140" lon="-105.622336290">
        <ele>2818.400</ele>
        <time>2020-05-21T18:05:56Z</time>
        <name>WPT.442</name>
      </trkpt>
      <trkpt lat="35.838859990" lon="-105.622290730">
        <ele>2818.700</ele>
        <time>2020-05-21T18:06:01Z</time>
        <name>WPT.443</name>
      </trkpt>
      <trkpt lat="35.838884320" lon="-105.622257790">
        <ele>2819.800</ele>
        <time>2020-05-21T18:06:05Z</time>
        <name>WPT.444</name>
      </trkpt>
      <trkpt lat="35.838894950" lon="-105.622212110">
        <ele>2819.300</ele>
        <time>2020-05-21T18:06:09Z</time>
        <name>WPT.445</name>
      </trkpt>
      <trkpt lat="35.838914530" lon="-105.622166590">
        <ele>2819.700</ele>
        <time>2020-05-21T18:06:15Z</time>
        <name>WPT.446</name>
      </trkpt>
      <trkpt lat="35.838942400" lon="-105.622133840">
        <ele>2819.200</ele>
        <time>2020-05-21T18:06:19Z</time>
        <name>WPT.447</name>
      </trkpt>
      <trkpt lat="35.838961260" lon="-105.622086080">
        <ele>2818.200</ele>
        <time>2020-05-21T18:06:23Z</time>
        <name>WPT.448</name>
      </trkpt>
      <trkpt lat="35.838984890" lon="-105.622040740">
        <ele>2819.000</ele>
        <time>2020-05-21T18:06:28Z</time>
        <name>WPT.449</name>
      </trkpt>
      <trkpt lat="35.839012530" lon="-105.622004030">
        <ele>2818.900</ele>
        <time>2020-05-21T18:06:32Z</time>
        <name>WPT.450</name>
      </trkpt>
      <trkpt lat="35.839040150" lon="-105.621963900">
        <ele>2818.300</ele>
        <time>2020-05-21T18:06:37Z</time>
        <name>WPT.451</name>
      </trkpt>
      <trkpt lat="35.839060530" lon="-105.621920150">
        <ele>2819.600</ele>
        <time>2020-05-21T18:06:41Z</time>
        <name>WPT.452</name>
      </trkpt>
      <trkpt lat="35.839078740" lon="-105.621877220">
        <ele>2820.000</ele>
        <time>2020-05-21T18:06:45Z</time>
        <name>WPT.453</name>
      </trkpt>
      <trkpt lat="35.839099840" lon="-105.621830340">
        <ele>2820.600</ele>
        <time>2020-05-21T18:06:49Z</time>
        <name>WPT.454</name>
      </trkpt>
      <trkpt lat="35.839120550" lon="-105.621789010">
        <ele>2820.700</ele>
        <time>2020-05-21T18:06:53Z</time>
        <name>WPT.455</name>
      </trkpt>
      <trkpt lat="35.839126300" lon="-105.621735180">
        <ele>2821.600</ele>
        <time>2020-05-21T18:06:59Z</time>
        <name>WPT.456</name>
      </trkpt>
      <trkpt lat="35.839087090" lon="-105.621703870">
        <ele>2821.000</ele>
        <time>2020-05-21T18:07:02Z</time>
        <name>WPT.457</name>
      </trkpt>
      <trkpt lat="35.839057970" lon="-105.621664910">
        <ele>2821.400</ele>
        <time>2020-05-21T18:07:07Z</time>
        <name>WPT.458</name>
      </trkpt>
      <trkpt lat="35.839094800" lon="-105.621683830">
        <ele>2823.500</ele>
        <time>2020-05-21T18:07:36Z</time>
        <name>WPT.459</name>
      </trkpt>
      <trkpt lat="35.839115710" lon="-105.621726240">
        <ele>2824.300</ele>
        <time>2020-05-21T18:07:54Z</time>
        <name>WPT.460</name>
      </trkpt>
      <trkpt lat="35.839149750" lon="-105.621711300">
        <ele>2825.600</ele>
        <time>2020-05-21T18:08:23Z</time>
        <name>WPT.461</name>
      </trkpt>
      <trkpt lat="35.839134580" lon="-105.621669890">
        <ele>2822.700</ele>
        <time>2020-05-21T18:08:46Z</time>
        <name>WPT.462</name>
      </trkpt>
      <trkpt lat="35.839115730" lon="-105.621626070">
        <ele>2821.800</ele>
        <time>2020-05-21T18:08:50Z</time>
        <name>WPT.463</name>
      </trkpt>
      <trkpt lat="35.839084650" lon="-105.621591940">
        <ele>2820.200</ele>
        <time>2020-05-21T18:08:53Z</time>
        <name>WPT.464</name>
      </trkpt>
      <trkpt lat="35.839055680" lon="-105.621562270">
        <ele>2822.500</ele>
        <time>2020-05-21T18:09:01Z</time>
        <name>WPT.465</name>
      </trkpt>
      <trkpt lat="35.839096510" lon="-105.621562330">
        <ele>2826.100</ele>
        <time>2020-05-21T18:09:48Z</time>
        <name>WPT.466</name>
      </trkpt>
      <trkpt lat="35.839123080" lon="-105.621521470">
        <ele>2824.300</ele>
        <time>2020-05-21T18:09:53Z</time>
        <name>WPT.467</name>
      </trkpt>
      <trkpt lat="35.839150280" lon="-105.621485210">
        <ele>2825.200</ele>
        <time>2020-05-21T18:09:58Z</time>
        <name>WPT.468</name>
      </trkpt>
      <trkpt lat="35.839182210" lon="-105.621458780">
        <ele>2826.900</ele>
        <time>2020-05-21T18:10:03Z</time>
        <name>WPT.469</name>
      </trkpt>
      <trkpt lat="35.839192350" lon="-105.621413890">
        <ele>2825.400</ele>
        <time>2020-05-21T18:10:07Z</time>
        <name>WPT.470</name>
      </trkpt>
      <trkpt lat="35.839225560" lon="-105.621391030">
        <ele>2824.800</ele>
        <time>2020-05-21T18:12:03Z</time>
        <name>WPT.471</name>
      </trkpt>
      <trkpt lat="35.839262420" lon="-105.621377640">
        <ele>2824.100</ele>
        <time>2020-05-21T18:12:09Z</time>
        <name>WPT.472</name>
      </trkpt>
      <trkpt lat="35.839297970" lon="-105.621365010">
        <ele>2825.300</ele>
        <time>2020-05-21T18:12:14Z</time>
        <name>WPT.473</name>
      </trkpt>
      <trkpt lat="35.839319020" lon="-105.621322920">
        <ele>2825.600</ele>
        <time>2020-05-21T18:12:19Z</time>
        <name>WPT.474</name>
      </trkpt>
      <trkpt lat="35.839344730" lon="-105.621285090">
        <ele>2826.400</ele>
        <time>2020-05-21T18:12:24Z</time>
        <name>WPT.475</name>
      </trkpt>
      <trkpt lat="35.839368590" lon="-105.621241890">
        <ele>2826.600</ele>
        <time>2020-05-21T18:12:28Z</time>
        <name>WPT.476</name>
      </trkpt>
      <trkpt lat="35.839390280" lon="-105.621205630">
        <ele>2828.300</ele>
        <time>2020-05-21T18:12:32Z</time>
        <name>WPT.477</name>
      </trkpt>
      <trkpt lat="35.839402810" lon="-105.621161500">
        <ele>2828.700</ele>
        <time>2020-05-21T18:12:45Z</time>
        <name>WPT.478</name>
      </trkpt>
      <trkpt lat="35.839424490" lon="-105.621125610">
        <ele>2828.300</ele>
        <time>2020-05-21T18:12:50Z</time>
        <name>WPT.479</name>
      </trkpt>
      <trkpt lat="35.839442740" lon="-105.621082560">
        <ele>2828.900</ele>
        <time>2020-05-21T18:12:54Z</time>
        <name>WPT.480</name>
      </trkpt>
      <trkpt lat="35.839468020" lon="-105.621035730">
        <ele>2828.800</ele>
        <time>2020-05-21T18:12:58Z</time>
        <name>WPT.481</name>
      </trkpt>
      <trkpt lat="35.839492640" lon="-105.620999950">
        <ele>2829.200</ele>
        <time>2020-05-21T18:13:02Z</time>
        <name>WPT.482</name>
      </trkpt>
      <trkpt lat="35.839516380" lon="-105.620959470">
        <ele>2830.900</ele>
        <time>2020-05-21T18:13:07Z</time>
        <name>WPT.483</name>
      </trkpt>
      <trkpt lat="35.839543880" lon="-105.620926830">
        <ele>2833.200</ele>
        <time>2020-05-21T18:13:12Z</time>
        <name>WPT.484</name>
      </trkpt>
      <trkpt lat="35.839566490" lon="-105.620889050">
        <ele>2832.300</ele>
        <time>2020-05-21T18:13:16Z</time>
        <name>WPT.485</name>
      </trkpt>
      <trkpt lat="35.839600180" lon="-105.620869040">
        <ele>2832.400</ele>
        <time>2020-05-21T18:13:20Z</time>
        <name>WPT.486</name>
      </trkpt>
      <trkpt lat="35.839642360" lon="-105.620855940">
        <ele>2833.000</ele>
        <time>2020-05-21T18:13:25Z</time>
        <name>WPT.487</name>
      </trkpt>
      <trkpt lat="35.839677080" lon="-105.620827780">
        <ele>2833.200</ele>
        <time>2020-05-21T18:13:30Z</time>
        <name>WPT.488</name>
      </trkpt>
      <trkpt lat="35.839715200" lon="-105.620808860">
        <ele>2832.500</ele>
        <time>2020-05-21T18:13:34Z</time>
        <name>WPT.489</name>
      </trkpt>
      <trkpt lat="35.839743940" lon="-105.620781990">
        <ele>2832.700</ele>
        <time>2020-05-21T18:13:39Z</time>
        <name>WPT.490</name>
      </trkpt>
      <trkpt lat="35.839759490" lon="-105.620734240">
        <ele>2830.800</ele>
        <time>2020-05-21T18:13:49Z</time>
        <name>WPT.491</name>
      </trkpt>
      <trkpt lat="35.839792590" lon="-105.620714230">
        <ele>2831.200</ele>
        <time>2020-05-21T18:13:53Z</time>
        <name>WPT.492</name>
      </trkpt>
      <trkpt lat="35.839832100" lon="-105.620696740">
        <ele>2832.800</ele>
        <time>2020-05-21T18:13:58Z</time>
        <name>WPT.493</name>
      </trkpt>
      <trkpt lat="35.839872590" lon="-105.620703050">
        <ele>2833.600</ele>
        <time>2020-05-21T18:14:02Z</time>
        <name>WPT.494</name>
      </trkpt>
      <trkpt lat="35.839916880" lon="-105.620703110">
        <ele>2833.800</ele>
        <time>2020-05-21T18:14:07Z</time>
        <name>WPT.495</name>
      </trkpt>
      <trkpt lat="35.839952760" lon="-105.620718870">
        <ele>2835.900</ele>
        <time>2020-05-21T18:14:12Z</time>
        <name>WPT.496</name>
      </trkpt>
      <trkpt lat="35.839996010" lon="-105.620721500">
        <ele>2835.800</ele>
        <time>2020-05-21T18:14:18Z</time>
        <name>WPT.497</name>
      </trkpt>
      <trkpt lat="35.840038920" lon="-105.620701640">
        <ele>2837.000</ele>
        <time>2020-05-21T18:14:23Z</time>
        <name>WPT.498</name>
      </trkpt>
      <trkpt lat="35.840077520" lon="-105.620698150">
        <ele>2836.400</ele>
        <time>2020-05-21T18:14:27Z</time>
        <name>WPT.499</name>
      </trkpt>
      <trkpt lat="35.840118310" lon="-105.620679470">
        <ele>2835.600</ele>
        <time>2020-05-21T18:14:54Z</time>
        <name>WPT.500</name>
      </trkpt>
      <trkpt lat="35.840156450" lon="-105.620661300">
        <ele>2834.900</ele>
        <time>2020-05-21T18:14:59Z</time>
        <name>WPT.501</name>
      </trkpt>
      <trkpt lat="35.840199390" lon="-105.620652950">
        <ele>2832.100</ele>
        <time>2020-05-21T18:15:04Z</time>
        <name>WPT.502</name>
      </trkpt>
      <trkpt lat="35.840239240" lon="-105.620656850">
        <ele>2833.200</ele>
        <time>2020-05-21T18:15:10Z</time>
        <name>WPT.503</name>
      </trkpt>
      <trkpt lat="35.840279530" lon="-105.620664860">
        <ele>2832.700</ele>
        <time>2020-05-21T18:15:15Z</time>
        <name>WPT.504</name>
      </trkpt>
      <trkpt lat="35.840317110" lon="-105.620637290">
        <ele>2831.900</ele>
        <time>2020-05-21T18:15:20Z</time>
        <name>WPT.505</name>
      </trkpt>
      <trkpt lat="35.840354810" lon="-105.620616760">
        <ele>2831.800</ele>
        <time>2020-05-21T18:15:26Z</time>
        <name>WPT.506</name>
      </trkpt>
      <trkpt lat="35.840377540" lon="-105.620580880">
        <ele>2830.900</ele>
        <time>2020-05-21T18:16:41Z</time>
        <name>WPT.507</name>
      </trkpt>
      <trkpt lat="35.840414170" lon="-105.620599660">
        <ele>2836.400</ele>
        <time>2020-05-21T18:22:41Z</time>
        <name>WPT.508</name>
      </trkpt>
      <trkpt lat="35.840378550" lon="-105.620621750">
        <ele>2834.200</ele>
        <time>2020-05-21T18:23:02Z</time>
        <name>WPT.509</name>
      </trkpt>
      <trkpt lat="35.840347080" lon="-105.620651780">
        <ele>2833.700</ele>
        <time>2020-05-21T18:23:06Z</time>
        <name>WPT.510</name>
      </trkpt>
      <trkpt lat="35.840314930" lon="-105.620678020">
        <ele>2835.400</ele>
        <time>2020-05-21T18:23:11Z</time>
        <name>WPT.511</name>
      </trkpt>
      <trkpt lat="35.840285690" lon="-105.620710340">
        <ele>2836.400</ele>
        <time>2020-05-21T18:23:17Z</time>
        <name>WPT.512</name>
      </trkpt>
      <trkpt lat="35.840246110" lon="-105.620731700">
        <ele>2836.100</ele>
        <time>2020-05-21T18:23:22Z</time>
        <name>WPT.513</name>
      </trkpt>
      <trkpt lat="35.840217750" lon="-105.620759950">
        <ele>2837.600</ele>
        <time>2020-05-21T18:23:26Z</time>
        <name>WPT.514</name>
      </trkpt>
      <trkpt lat="35.840183130" lon="-105.620797800">
        <ele>2837.900</ele>
        <time>2020-05-21T18:23:31Z</time>
        <name>WPT.515</name>
      </trkpt>
      <trkpt lat="35.840149080" lon="-105.620816590">
        <ele>2837.200</ele>
        <time>2020-05-21T18:23:35Z</time>
        <name>WPT.516</name>
      </trkpt>
      <trkpt lat="35.840114910" lon="-105.620857360">
        <ele>2834.700</ele>
        <time>2020-05-21T18:23:40Z</time>
        <name>WPT.517</name>
      </trkpt>
      <trkpt lat="35.840090130" lon="-105.620891520">
        <ele>2835.100</ele>
        <time>2020-05-21T18:23:44Z</time>
        <name>WPT.518</name>
      </trkpt>
      <trkpt lat="35.840080620" lon="-105.620935740">
        <ele>2833.600</ele>
        <time>2020-05-21T18:23:47Z</time>
        <name>WPT.519</name>
      </trkpt>
      <trkpt lat="35.840060480" lon="-105.620972690">
        <ele>2831.800</ele>
        <time>2020-05-21T18:23:52Z</time>
        <name>WPT.520</name>
      </trkpt>
      <trkpt lat="35.840018120" lon="-105.620982650">
        <ele>2831.700</ele>
        <time>2020-05-21T18:23:57Z</time>
        <name>WPT.521</name>
      </trkpt>
      <trkpt lat="35.839981410" lon="-105.620986350">
        <ele>2830.100</ele>
        <time>2020-05-21T18:24:02Z</time>
        <name>WPT.522</name>
      </trkpt>
      <trkpt lat="35.839960630" lon="-105.621032950">
        <ele>2830.400</ele>
        <time>2020-05-21T18:24:18Z</time>
        <name>WPT.523</name>
      </trkpt>
      <trkpt lat="35.839919770" lon="-105.621041390">
        <ele>2830.600</ele>
        <time>2020-05-21T18:24:23Z</time>
        <name>WPT.524</name>
      </trkpt>
      <trkpt lat="35.839883520" lon="-105.621055590">
        <ele>2830.800</ele>
        <time>2020-05-21T18:24:30Z</time>
        <name>WPT.525</name>
      </trkpt>
      <trkpt lat="35.839841900" lon="-105.621069470">
        <ele>2831.600</ele>
        <time>2020-05-21T18:24:35Z</time>
        <name>WPT.526</name>
      </trkpt>
      <trkpt lat="35.839815890" lon="-105.621100170">
        <ele>2829.200</ele>
        <time>2020-05-21T18:24:39Z</time>
        <name>WPT.527</name>
      </trkpt>
      <trkpt lat="35.839777660" lon="-105.621100230">
        <ele>2829.000</ele>
        <time>2020-05-21T18:24:43Z</time>
        <name>WPT.528</name>
      </trkpt>
      <trkpt lat="35.839753230" lon="-105.621133910">
        <ele>2826.800</ele>
        <time>2020-05-21T18:25:22Z</time>
        <name>WPT.529</name>
      </trkpt>
      <trkpt lat="35.839737100" lon="-105.621174240">
        <ele>2827.500</ele>
        <time>2020-05-21T18:25:27Z</time>
        <name>WPT.530</name>
      </trkpt>
      <trkpt lat="35.839705140" lon="-105.621208120">
        <ele>2828.700</ele>
        <time>2020-05-21T18:25:31Z</time>
        <name>WPT.531</name>
      </trkpt>
      <trkpt lat="35.839670840" lon="-105.621243130">
        <ele>2831.300</ele>
        <time>2020-05-21T18:25:35Z</time>
        <name>WPT.532</name>
      </trkpt>
      <trkpt lat="35.839696450" lon="-105.621280420">
        <ele>2825.400</ele>
        <time>2020-05-21T18:26:01Z</time>
        <name>WPT.533</name>
      </trkpt>
      <trkpt lat="35.839726330" lon="-105.621315300">
        <ele>2824.900</ele>
        <time>2020-05-21T18:26:06Z</time>
        <name>WPT.534</name>
      </trkpt>
      <trkpt lat="35.839740950" lon="-105.621358600">
        <ele>2824.200</ele>
        <time>2020-05-21T18:26:11Z</time>
        <name>WPT.535</name>
      </trkpt>
      <trkpt lat="35.839774670" lon="-105.621375120">
        <ele>2824.700</ele>
        <time>2020-05-21T18:26:40Z</time>
        <name>WPT.536</name>
      </trkpt>
      <trkpt lat="35.839787740" lon="-105.621420950">
        <ele>2823.500</ele>
        <time>2020-05-21T18:26:47Z</time>
        <name>WPT.537</name>
      </trkpt>
      <trkpt lat="35.839755170" lon="-105.621441990">
        <ele>2820.600</ele>
        <time>2020-05-21T18:27:17Z</time>
        <name>WPT.538</name>
      </trkpt>
      <trkpt lat="35.839754100" lon="-105.621487720">
        <ele>2821.300</ele>
        <time>2020-05-21T18:27:30Z</time>
        <name>WPT.539</name>
      </trkpt>
      <trkpt lat="35.839782060" lon="-105.621515980">
        <ele>2822.000</ele>
        <time>2020-05-21T18:30:03Z</time>
        <name>WPT.540</name>
      </trkpt>
      <trkpt lat="35.839816670" lon="-105.621528770">
        <ele>2827.400</ele>
        <time>2020-05-21T18:40:07Z</time>
        <name>WPT.541</name>
      </trkpt>
      <trkpt lat="35.839779360" lon="-105.621534010">
        <ele>2827.400</ele>
        <time>2020-05-21T19:12:29Z</time>
        <name>WPT.542</name>
      </trkpt>
      <trkpt lat="35.839760810" lon="-105.621489390">
        <ele>2827.400</ele>
        <time>2020-05-21T19:13:12Z</time>
        <name>WPT.543</name>
      </trkpt>
      <trkpt lat="35.839718330" lon="-105.621470770">
        <ele>2828.100</ele>
        <time>2020-05-21T19:13:33Z</time>
        <name>WPT.544</name>
      </trkpt>
      <trkpt lat="35.839680090" lon="-105.621459180">
        <ele>2827.300</ele>
        <time>2020-05-21T19:13:37Z</time>
        <name>WPT.545</name>
      </trkpt>
      <trkpt lat="35.839644910" lon="-105.621439220">
        <ele>2827.500</ele>
        <time>2020-05-21T19:13:41Z</time>
        <name>WPT.546</name>
      </trkpt>
      <trkpt lat="35.839609050" lon="-105.621421150">
        <ele>2828.200</ele>
        <time>2020-05-21T19:13:45Z</time>
        <name>WPT.547</name>
      </trkpt>
      <trkpt lat="35.839572980" lon="-105.621420290">
        <ele>2829.400</ele>
        <time>2020-05-21T19:13:49Z</time>
        <name>WPT.548</name>
      </trkpt>
      <trkpt lat="35.839535430" lon="-105.621415710">
        <ele>2830.700</ele>
        <time>2020-05-21T19:13:53Z</time>
        <name>WPT.549</name>
      </trkpt>
      <trkpt lat="35.839491150" lon="-105.621411000">
        <ele>2832.100</ele>
        <time>2020-05-21T19:13:57Z</time>
        <name>WPT.550</name>
      </trkpt>
      <trkpt lat="35.839455300" lon="-105.621423720">
        <ele>2832.300</ele>
        <time>2020-05-21T19:14:01Z</time>
        <name>WPT.551</name>
      </trkpt>
      <trkpt lat="35.839412930" lon="-105.621431580">
        <ele>2832.000</ele>
        <time>2020-05-21T19:14:06Z</time>
        <name>WPT.552</name>
      </trkpt>
      <trkpt lat="35.839374010" lon="-105.621450680">
        <ele>2831.000</ele>
        <time>2020-05-21T19:14:10Z</time>
        <name>WPT.553</name>
      </trkpt>
      <trkpt lat="35.839338600" lon="-105.621462700">
        <ele>2829.800</ele>
        <time>2020-05-21T19:14:14Z</time>
        <name>WPT.554</name>
      </trkpt>
      <trkpt lat="35.839304250" lon="-105.621480510">
        <ele>2830.100</ele>
        <time>2020-05-21T19:14:18Z</time>
        <name>WPT.555</name>
      </trkpt>
      <trkpt lat="35.839263860" lon="-105.621463400">
        <ele>2827.200</ele>
        <time>2020-05-21T19:14:24Z</time>
        <name>WPT.556</name>
      </trkpt>
      <trkpt lat="35.839227090" lon="-105.621447740">
        <ele>2827.200</ele>
        <time>2020-05-21T19:14:29Z</time>
        <name>WPT.557</name>
      </trkpt>
      <trkpt lat="35.839185600" lon="-105.621446280">
        <ele>2830.500</ele>
        <time>2020-05-21T19:14:34Z</time>
        <name>WPT.558</name>
      </trkpt>
      <trkpt lat="35.839146370" lon="-105.621443190">
        <ele>2832.400</ele>
        <time>2020-05-21T19:14:38Z</time>
        <name>WPT.559</name>
      </trkpt>
      <trkpt lat="35.839106770" lon="-105.621433530">
        <ele>2831.800</ele>
        <time>2020-05-21T19:14:43Z</time>
        <name>WPT.560</name>
      </trkpt>
      <trkpt lat="35.839076340" lon="-105.621461060">
        <ele>2833.100</ele>
        <time>2020-05-21T19:14:47Z</time>
        <name>WPT.561</name>
      </trkpt>
      <trkpt lat="35.839042030" lon="-105.621494360">
        <ele>2834.800</ele>
        <time>2020-05-21T19:14:52Z</time>
        <name>WPT.562</name>
      </trkpt>
      <trkpt lat="35.839058070" lon="-105.621534910">
        <ele>2832.300</ele>
        <time>2020-05-21T19:15:16Z</time>
        <name>WPT.563</name>
      </trkpt>
      <trkpt lat="35.839096620" lon="-105.621531850">
        <ele>2831.500</ele>
        <time>2020-05-21T19:15:25Z</time>
        <name>WPT.564</name>
      </trkpt>
      <trkpt lat="35.839135250" lon="-105.621518780">
        <ele>2832.000</ele>
        <time>2020-05-21T19:15:32Z</time>
        <name>WPT.565</name>
      </trkpt>
      <trkpt lat="35.839171380" lon="-105.621524730">
        <ele>2831.800</ele>
        <time>2020-05-21T19:15:35Z</time>
        <name>WPT.566</name>
      </trkpt>
      <trkpt lat="35.839202690" lon="-105.621496630">
        <ele>2832.200</ele>
        <time>2020-05-21T19:15:42Z</time>
        <name>WPT.567</name>
      </trkpt>
      <trkpt lat="35.839243250" lon="-105.621500840">
        <ele>2832.500</ele>
        <time>2020-05-21T19:15:47Z</time>
        <name>WPT.568</name>
      </trkpt>
      <trkpt lat="35.839279570" lon="-105.621494930">
        <ele>2833.700</ele>
        <time>2020-05-21T19:15:52Z</time>
        <name>WPT.569</name>
      </trkpt>
      <trkpt lat="35.839307140" lon="-105.621457910">
        <ele>2833.700</ele>
        <time>2020-05-21T19:15:56Z</time>
        <name>WPT.570</name>
      </trkpt>
      <trkpt lat="35.839316150" lon="-105.621405860">
        <ele>2832.900</ele>
        <time>2020-05-21T19:16:01Z</time>
        <name>WPT.571</name>
      </trkpt>
      <trkpt lat="35.839346030" lon="-105.621375630">
        <ele>2833.700</ele>
        <time>2020-05-21T19:16:05Z</time>
        <name>WPT.572</name>
      </trkpt>
      <trkpt lat="35.839375950" lon="-105.621341370">
        <ele>2833.700</ele>
        <time>2020-05-21T19:16:09Z</time>
        <name>WPT.573</name>
      </trkpt>
      <trkpt lat="35.839403000" lon="-105.621303460">
        <ele>2834.700</ele>
        <time>2020-05-21T19:16:13Z</time>
        <name>WPT.574</name>
      </trkpt>
      <trkpt lat="35.839423320" lon="-105.621264030">
        <ele>2834.500</ele>
        <time>2020-05-21T19:16:17Z</time>
        <name>WPT.575</name>
      </trkpt>
      <trkpt lat="35.839445540" lon="-105.621223250">
        <ele>2834.600</ele>
        <time>2020-05-21T19:16:21Z</time>
        <name>WPT.576</name>
      </trkpt>
      <trkpt lat="35.839469000" lon="-105.621182900">
        <ele>2834.000</ele>
        <time>2020-05-21T19:16:25Z</time>
        <name>WPT.577</name>
      </trkpt>
      <trkpt lat="35.839505010" lon="-105.621149300">
        <ele>2834.400</ele>
        <time>2020-05-21T19:16:29Z</time>
        <name>WPT.578</name>
      </trkpt>
      <trkpt lat="35.839529140" lon="-105.621110690">
        <ele>2835.000</ele>
        <time>2020-05-21T19:16:34Z</time>
        <name>WPT.579</name>
      </trkpt>
      <trkpt lat="35.839558160" lon="-105.621066670">
        <ele>2834.600</ele>
        <time>2020-05-21T19:16:39Z</time>
        <name>WPT.580</name>
      </trkpt>
      <trkpt lat="35.839580980" lon="-105.621022620">
        <ele>2834.500</ele>
        <time>2020-05-21T19:16:44Z</time>
        <name>WPT.581</name>
      </trkpt>
      <trkpt lat="35.839602540" lon="-105.620983300">
        <ele>2835.500</ele>
        <time>2020-05-21T19:16:48Z</time>
        <name>WPT.582</name>
      </trkpt>
      <trkpt lat="35.839637340" lon="-105.620954390">
        <ele>2838.300</ele>
        <time>2020-05-21T19:16:54Z</time>
        <name>WPT.583</name>
      </trkpt>
      <trkpt lat="35.839668720" lon="-105.620930030">
        <ele>2838.100</ele>
        <time>2020-05-21T19:16:59Z</time>
        <name>WPT.584</name>
      </trkpt>
      <trkpt lat="35.839708340" lon="-105.620907960">
        <ele>2842.000</ele>
        <time>2020-05-21T19:17:05Z</time>
        <name>WPT.585</name>
      </trkpt>
      <trkpt lat="35.839742520" lon="-105.620893820">
        <ele>2843.000</ele>
        <time>2020-05-21T19:17:10Z</time>
        <name>WPT.586</name>
      </trkpt>
      <trkpt lat="35.839771060" lon="-105.620860240">
        <ele>2842.100</ele>
        <time>2020-05-21T19:17:15Z</time>
        <name>WPT.587</name>
      </trkpt>
      <trkpt lat="35.839800110" lon="-105.620829880">
        <ele>2842.700</ele>
        <time>2020-05-21T19:17:20Z</time>
        <name>WPT.588</name>
      </trkpt>
      <trkpt lat="35.839835410" lon="-105.620816180">
        <ele>2841.600</ele>
        <time>2020-05-21T19:17:24Z</time>
        <name>WPT.589</name>
      </trkpt>
      <trkpt lat="35.839882720" lon="-105.620794450">
        <ele>2841.000</ele>
        <time>2020-05-21T19:17:29Z</time>
        <name>WPT.590</name>
      </trkpt>
      <trkpt lat="35.839919630" lon="-105.620809010">
        <ele>2842.700</ele>
        <time>2020-05-21T19:17:34Z</time>
        <name>WPT.591</name>
      </trkpt>
      <trkpt lat="35.839958950" lon="-105.620806860">
        <ele>2846.000</ele>
        <time>2020-05-21T19:17:39Z</time>
        <name>WPT.592</name>
      </trkpt>
      <trkpt lat="35.840000180" lon="-105.620806090">
        <ele>2843.600</ele>
        <time>2020-05-21T19:17:44Z</time>
        <name>WPT.593</name>
      </trkpt>
      <trkpt lat="35.840035400" lon="-105.620793540">
        <ele>2843.100</ele>
        <time>2020-05-21T19:17:48Z</time>
        <name>WPT.594</name>
      </trkpt>
      <trkpt lat="35.840081420" lon="-105.620796010">
        <ele>2841.900</ele>
        <time>2020-05-21T19:17:52Z</time>
        <name>WPT.595</name>
      </trkpt>
      <trkpt lat="35.840115580" lon="-105.620768060">
        <ele>2841.000</ele>
        <time>2020-05-21T19:17:56Z</time>
        <name>WPT.596</name>
      </trkpt>
      <trkpt lat="35.840160080" lon="-105.620764170">
        <ele>2840.600</ele>
        <time>2020-05-21T19:18:00Z</time>
        <name>WPT.597</name>
      </trkpt>
      <trkpt lat="35.840197050" lon="-105.620762570">
        <ele>2836.400</ele>
        <time>2020-05-21T19:18:04Z</time>
        <name>WPT.598</name>
      </trkpt>
      <trkpt lat="35.840228600" lon="-105.620732790">
        <ele>2835.000</ele>
        <time>2020-05-21T19:18:07Z</time>
        <name>WPT.599</name>
      </trkpt>
      <trkpt lat="35.840272210" lon="-105.620718340">
        <ele>2834.500</ele>
        <time>2020-05-21T19:18:13Z</time>
        <name>WPT.600</name>
      </trkpt>
      <trkpt lat="35.840310250" lon="-105.620732340">
        <ele>2838.200</ele>
        <time>2020-05-21T19:18:18Z</time>
        <name>WPT.601</name>
      </trkpt>
      <trkpt lat="35.840351420" lon="-105.620727060">
        <ele>2840.400</ele>
        <time>2020-05-21T19:18:23Z</time>
        <name>WPT.602</name>
      </trkpt>
      <trkpt lat="35.840391990" lon="-105.620729140">
        <ele>2839.700</ele>
        <time>2020-05-21T19:18:47Z</time>
        <name>WPT.603</name>
      </trkpt>
      <trkpt lat="35.840426050" lon="-105.620707540">
        <ele>2839.100</ele>
        <time>2020-05-21T19:18:51Z</time>
        <name>WPT.604</name>
      </trkpt>
      <trkpt lat="35.840450480" lon="-105.620672470">
        <ele>2837.200</ele>
        <time>2020-05-21T19:18:54Z</time>
        <name>WPT.605</name>
      </trkpt>
      <trkpt lat="35.840467940" lon="-105.620629830">
        <ele>2835.900</ele>
        <time>2020-05-21T19:18:58Z</time>
        <name>WPT.606</name>
      </trkpt>
      <trkpt lat="35.840491640" lon="-105.620596090">
        <ele>2835.500</ele>
        <time>2020-05-21T19:19:02Z</time>
        <name>WPT.607</name>
      </trkpt>
      <trkpt lat="35.840521980" lon="-105.620571960">
        <ele>2836.600</ele>
        <time>2020-05-21T19:19:05Z</time>
        <name>WPT.608</name>
      </trkpt>
      <trkpt lat="35.840552690" lon="-105.620543890">
        <ele>2838.200</ele>
        <time>2020-05-21T19:19:08Z</time>
        <name>WPT.609</name>
      </trkpt>
      <trkpt lat="35.840582110" lon="-105.620517690">
        <ele>2837.700</ele>
        <time>2020-05-21T19:19:11Z</time>
        <name>WPT.610</name>
      </trkpt>
      <trkpt lat="35.840611990" lon="-105.620474570">
        <ele>2836.300</ele>
        <time>2020-05-21T19:19:16Z</time>
        <name>WPT.611</name>
      </trkpt>
      <trkpt lat="35.840646550" lon="-105.620449800">
        <ele>2836.900</ele>
        <time>2020-05-21T19:19:19Z</time>
        <name>WPT.612</name>
      </trkpt>
      <trkpt lat="35.840670960" lon="-105.620401280">
        <ele>2836.700</ele>
        <time>2020-05-21T19:19:23Z</time>
        <name>WPT.613</name>
      </trkpt>
      <trkpt lat="35.840671180" lon="-105.620353470">
        <ele>2836.300</ele>
        <time>2020-05-21T19:19:29Z</time>
        <name>WPT.614</name>
      </trkpt>
      <trkpt lat="35.840658950" lon="-105.620304630">
        <ele>2837.300</ele>
        <time>2020-05-21T19:19:47Z</time>
        <name>WPT.615</name>
      </trkpt>
      <trkpt lat="35.840648440" lon="-105.620261230">
        <ele>2836.800</ele>
        <time>2020-05-21T19:19:50Z</time>
        <name>WPT.616</name>
      </trkpt>
      <trkpt lat="35.840651490" lon="-105.620208720">
        <ele>2835.300</ele>
        <time>2020-05-21T19:19:54Z</time>
        <name>WPT.617</name>
      </trkpt>
      <trkpt lat="35.840624970" lon="-105.620178600">
        <ele>2837.300</ele>
        <time>2020-05-21T19:20:06Z</time>
        <name>WPT.618</name>
      </trkpt>
      <trkpt lat="35.840612710" lon="-105.620123890">
        <ele>2836.000</ele>
        <time>2020-05-21T19:20:17Z</time>
        <name>WPT.619</name>
      </trkpt>
      <trkpt lat="35.840610670" lon="-105.620075350">
        <ele>2835.300</ele>
        <time>2020-05-21T19:20:22Z</time>
        <name>WPT.620</name>
      </trkpt>
      <trkpt lat="35.840617530" lon="-105.620019470">
        <ele>2834.600</ele>
        <time>2020-05-21T19:20:27Z</time>
        <name>WPT.621</name>
      </trkpt>
      <trkpt lat="35.840632360" lon="-105.619975400">
        <ele>2836.300</ele>
        <time>2020-05-21T19:20:33Z</time>
        <name>WPT.622</name>
      </trkpt>
      <trkpt lat="35.840641070" lon="-105.619930900">
        <ele>2839.600</ele>
        <time>2020-05-21T19:20:39Z</time>
        <name>WPT.623</name>
      </trkpt>
      <trkpt lat="35.840644490" lon="-105.619878200">
        <ele>2839.600</ele>
        <time>2020-05-21T19:20:45Z</time>
        <name>WPT.624</name>
      </trkpt>
      <trkpt lat="35.840621780" lon="-105.619830390">
        <ele>2840.900</ele>
        <time>2020-05-21T19:20:50Z</time>
        <name>WPT.625</name>
      </trkpt>
      <trkpt lat="35.840596330" lon="-105.619786400">
        <ele>2840.700</ele>
        <time>2020-05-21T19:20:55Z</time>
        <name>WPT.626</name>
      </trkpt>
      <trkpt lat="35.840571920" lon="-105.619744510">
        <ele>2839.100</ele>
        <time>2020-05-21T19:21:00Z</time>
        <name>WPT.627</name>
      </trkpt>
      <trkpt lat="35.840551890" lon="-105.619701830">
        <ele>2841.800</ele>
        <time>2020-05-21T19:21:05Z</time>
        <name>WPT.628</name>
      </trkpt>
      <trkpt lat="35.840519400" lon="-105.619661630">
        <ele>2840.900</ele>
        <time>2020-05-21T19:21:09Z</time>
        <name>WPT.629</name>
      </trkpt>
      <trkpt lat="35.840478900" lon="-105.619650520">
        <ele>2843.200</ele>
        <time>2020-05-21T19:21:18Z</time>
        <name>WPT.630</name>
      </trkpt>
      <trkpt lat="35.840466350" lon="-105.619605980">
        <ele>2845.100</ele>
        <time>2020-05-21T19:21:22Z</time>
        <name>WPT.631</name>
      </trkpt>
      <trkpt lat="35.840435840" lon="-105.619578510">
        <ele>2844.100</ele>
        <time>2020-05-21T19:21:27Z</time>
        <name>WPT.632</name>
      </trkpt>
      <trkpt lat="35.840429020" lon="-105.619529940">
        <ele>2846.100</ele>
        <time>2020-05-21T19:21:36Z</time>
        <name>WPT.633</name>
      </trkpt>
      <trkpt lat="35.840432410" lon="-105.619484930">
        <ele>2846.400</ele>
        <time>2020-05-21T19:21:43Z</time>
        <name>WPT.634</name>
      </trkpt>
      <trkpt lat="35.840406170" lon="-105.619448040">
        <ele>2847.800</ele>
        <time>2020-05-21T19:21:49Z</time>
        <name>WPT.635</name>
      </trkpt>
      <trkpt lat="35.840363200" lon="-105.619438280">
        <ele>2846.600</ele>
        <time>2020-05-21T19:22:07Z</time>
        <name>WPT.636</name>
      </trkpt>
      <trkpt lat="35.840318560" lon="-105.619427380">
        <ele>2847.400</ele>
        <time>2020-05-21T19:22:11Z</time>
        <name>WPT.637</name>
      </trkpt>
      <trkpt lat="35.840279250" lon="-105.619409450">
        <ele>2848.300</ele>
        <time>2020-05-21T19:22:15Z</time>
        <name>WPT.638</name>
      </trkpt>
      <trkpt lat="35.840238870" lon="-105.619384410">
        <ele>2849.600</ele>
        <time>2020-05-21T19:22:20Z</time>
        <name>WPT.639</name>
      </trkpt>
      <trkpt lat="35.840200330" lon="-105.619375710">
        <ele>2848.800</ele>
        <time>2020-05-21T19:22:25Z</time>
        <name>WPT.640</name>
      </trkpt>
      <trkpt lat="35.840170840" lon="-105.619347140">
        <ele>2848.800</ele>
        <time>2020-05-21T19:22:29Z</time>
        <name>WPT.641</name>
      </trkpt>
      <trkpt lat="35.840139860" lon="-105.619312800">
        <ele>2850.500</ele>
        <time>2020-05-21T19:22:35Z</time>
        <name>WPT.642</name>
      </trkpt>
      <trkpt lat="35.840112610" lon="-105.619276250">
        <ele>2850.700</ele>
        <time>2020-05-21T19:22:40Z</time>
        <name>WPT.643</name>
      </trkpt>
      <trkpt lat="35.840073330" lon="-105.619281440">
        <ele>2850.700</ele>
        <time>2020-05-21T19:22:45Z</time>
        <name>WPT.644</name>
      </trkpt>
      <trkpt lat="35.840029540" lon="-105.619289030">
        <ele>2851.300</ele>
        <time>2020-05-21T19:22:49Z</time>
        <name>WPT.645</name>
      </trkpt>
      <trkpt lat="35.839992010" lon="-105.619284860">
        <ele>2850.500</ele>
        <time>2020-05-21T19:22:55Z</time>
        <name>WPT.646</name>
      </trkpt>
      <trkpt lat="35.839955480" lon="-105.619289820">
        <ele>2849.900</ele>
        <time>2020-05-21T19:23:03Z</time>
        <name>WPT.647</name>
      </trkpt>
      <trkpt lat="35.839920240" lon="-105.619275750">
        <ele>2853.500</ele>
        <time>2020-05-21T19:23:10Z</time>
        <name>WPT.648</name>
      </trkpt>
      <trkpt lat="35.839876180" lon="-105.619286500">
        <ele>2854.800</ele>
        <time>2020-05-21T19:23:14Z</time>
        <name>WPT.649</name>
      </trkpt>
      <trkpt lat="35.839839380" lon="-105.619319560">
        <ele>2852.000</ele>
        <time>2020-05-21T19:23:18Z</time>
        <name>WPT.650</name>
      </trkpt>
      <trkpt lat="35.839797980" lon="-105.619316590">
        <ele>2851.300</ele>
        <time>2020-05-21T19:23:24Z</time>
        <name>WPT.651</name>
      </trkpt>
      <trkpt lat="35.839758170" lon="-105.619311470">
        <ele>2852.700</ele>
        <time>2020-05-21T19:23:29Z</time>
        <name>WPT.652</name>
      </trkpt>
      <trkpt lat="35.839712370" lon="-105.619308780">
        <ele>2854.500</ele>
        <time>2020-05-21T19:23:34Z</time>
        <name>WPT.653</name>
      </trkpt>
      <trkpt lat="35.839675680" lon="-105.619313960">
        <ele>2855.300</ele>
        <time>2020-05-21T19:23:38Z</time>
        <name>WPT.654</name>
      </trkpt>
      <trkpt lat="35.839637640" lon="-105.619297100">
        <ele>2854.800</ele>
        <time>2020-05-21T19:23:43Z</time>
        <name>WPT.655</name>
      </trkpt>
      <trkpt lat="35.839612290" lon="-105.619253660">
        <ele>2854.500</ele>
        <time>2020-05-21T19:23:48Z</time>
        <name>WPT.656</name>
      </trkpt>
      <trkpt lat="35.839605980" lon="-105.619206550">
        <ele>2850.100</ele>
        <time>2020-05-21T19:24:49Z</time>
        <name>WPT.657</name>
      </trkpt>
      <trkpt lat="35.839601840" lon="-105.619155880">
        <ele>2850.800</ele>
        <time>2020-05-21T19:24:54Z</time>
        <name>WPT.658</name>
      </trkpt>
      <trkpt lat="35.839601590" lon="-105.619105470">
        <ele>2849.700</ele>
        <time>2020-05-21T19:24:59Z</time>
        <name>WPT.659</name>
      </trkpt>
      <trkpt lat="35.839588830" lon="-105.619063360">
        <ele>2849.700</ele>
        <time>2020-05-21T19:25:04Z</time>
        <name>WPT.660</name>
      </trkpt>
      <trkpt lat="35.839591230" lon="-105.619019020">
        <ele>2849.300</ele>
        <time>2020-05-21T19:25:09Z</time>
        <name>WPT.661</name>
      </trkpt>
      <trkpt lat="35.839601820" lon="-105.618972910">
        <ele>2850.200</ele>
        <time>2020-05-21T19:25:17Z</time>
        <name>WPT.662</name>
      </trkpt>
      <trkpt lat="35.839595130" lon="-105.618925640">
        <ele>2850.800</ele>
        <time>2020-05-21T19:25:22Z</time>
        <name>WPT.663</name>
      </trkpt>
      <trkpt lat="35.839596670" lon="-105.618879630">
        <ele>2851.500</ele>
        <time>2020-05-21T19:25:27Z</time>
        <name>WPT.664</name>
      </trkpt>
      <trkpt lat="35.839566990" lon="-105.618837410">
        <ele>2852.400</ele>
        <time>2020-05-21T19:25:32Z</time>
        <name>WPT.665</name>
      </trkpt>
      <trkpt lat="35.839544590" lon="-105.618801540">
        <ele>2854.300</ele>
        <time>2020-05-21T19:25:36Z</time>
        <name>WPT.666</name>
      </trkpt>
      <trkpt lat="35.839560650" lon="-105.618756820">
        <ele>2854.300</ele>
        <time>2020-05-21T19:25:41Z</time>
        <name>WPT.667</name>
      </trkpt>
      <trkpt lat="35.839559890" lon="-105.618710920">
        <ele>2859.700</ele>
        <time>2020-05-21T19:25:48Z</time>
        <name>WPT.668</name>
      </trkpt>
      <trkpt lat="35.839581280" lon="-105.618667300">
        <ele>2860.900</ele>
        <time>2020-05-21T19:25:55Z</time>
        <name>WPT.669</name>
      </trkpt>
      <trkpt lat="35.839592390" lon="-105.618621980">
        <ele>2861.600</ele>
        <time>2020-05-21T19:26:00Z</time>
        <name>WPT.670</name>
      </trkpt>
      <trkpt lat="35.839601420" lon="-105.618572010">
        <ele>2862.200</ele>
        <time>2020-05-21T19:26:04Z</time>
        <name>WPT.671</name>
      </trkpt>
      <trkpt lat="35.839591690" lon="-105.618525830">
        <ele>2862.500</ele>
        <time>2020-05-21T19:26:08Z</time>
        <name>WPT.672</name>
      </trkpt>
      <trkpt lat="35.839566770" lon="-105.618490360">
        <ele>2860.000</ele>
        <time>2020-05-21T19:26:26Z</time>
        <name>WPT.673</name>
      </trkpt>
      <trkpt lat="35.839573420" lon="-105.618437310">
        <ele>2861.100</ele>
        <time>2020-05-21T19:26:58Z</time>
        <name>WPT.674</name>
      </trkpt>
      <trkpt lat="35.839580480" lon="-105.618388890">
        <ele>2862.000</ele>
        <time>2020-05-21T19:27:05Z</time>
        <name>WPT.675</name>
      </trkpt>
      <trkpt lat="35.839573060" lon="-105.618337230">
        <ele>2860.800</ele>
        <time>2020-05-21T19:27:09Z</time>
        <name>WPT.676</name>
      </trkpt>
      <trkpt lat="35.839581140" lon="-105.618285290">
        <ele>2860.700</ele>
        <time>2020-05-21T19:27:13Z</time>
        <name>WPT.677</name>
      </trkpt>
      <trkpt lat="35.839576440" lon="-105.618238170">
        <ele>2862.300</ele>
        <time>2020-05-21T19:27:19Z</time>
        <name>WPT.678</name>
      </trkpt>
      <trkpt lat="35.839574610" lon="-105.618190360">
        <ele>2862.000</ele>
        <time>2020-05-21T19:27:24Z</time>
        <name>WPT.679</name>
      </trkpt>
      <trkpt lat="35.839596820" lon="-105.618152430">
        <ele>2864.800</ele>
        <time>2020-05-21T19:27:29Z</time>
        <name>WPT.680</name>
      </trkpt>
      <trkpt lat="35.839608310" lon="-105.618103340">
        <ele>2867.100</ele>
        <time>2020-05-21T19:27:33Z</time>
        <name>WPT.681</name>
      </trkpt>
      <trkpt lat="35.839600220" lon="-105.618054310">
        <ele>2869.400</ele>
        <time>2020-05-21T19:27:38Z</time>
        <name>WPT.682</name>
      </trkpt>
      <trkpt lat="35.839588410" lon="-105.618001000">
        <ele>2869.400</ele>
        <time>2020-05-21T19:27:43Z</time>
        <name>WPT.683</name>
      </trkpt>
      <trkpt lat="35.839594580" lon="-105.617955660">
        <ele>2869.200</ele>
        <time>2020-05-21T19:27:46Z</time>
        <name>WPT.684</name>
      </trkpt>
      <trkpt lat="35.839572410" lon="-105.617915330">
        <ele>2870.900</ele>
        <time>2020-05-21T19:27:50Z</time>
        <name>WPT.685</name>
      </trkpt>
      <trkpt lat="35.839549700" lon="-105.617873330">
        <ele>2870.400</ele>
        <time>2020-05-21T19:27:53Z</time>
        <name>WPT.686</name>
      </trkpt>
      <trkpt lat="35.839565440" lon="-105.617828490">
        <ele>2873.000</ele>
        <time>2020-05-21T19:27:57Z</time>
        <name>WPT.687</name>
      </trkpt>
      <trkpt lat="35.839557790" lon="-105.617776450">
        <ele>2872.600</ele>
        <time>2020-05-21T19:28:15Z</time>
        <name>WPT.688</name>
      </trkpt>
      <trkpt lat="35.839560010" lon="-105.617731090">
        <ele>2872.300</ele>
        <time>2020-05-21T19:28:18Z</time>
        <name>WPT.689</name>
      </trkpt>
      <trkpt lat="35.839556320" lon="-105.617683980">
        <ele>2873.900</ele>
        <time>2020-05-21T19:28:22Z</time>
        <name>WPT.690</name>
      </trkpt>
      <trkpt lat="35.839543370" lon="-105.617640150">
        <ele>2876.400</ele>
        <time>2020-05-21T19:28:27Z</time>
        <name>WPT.691</name>
      </trkpt>
      <trkpt lat="35.839526800" lon="-105.617596610">
        <ele>2877.600</ele>
        <time>2020-05-21T19:28:32Z</time>
        <name>WPT.692</name>
      </trkpt>
      <trkpt lat="35.839500080" lon="-105.617564310">
        <ele>2878.100</ele>
        <time>2020-05-21T19:28:35Z</time>
        <name>WPT.693</name>
      </trkpt>
      <trkpt lat="35.839519750" lon="-105.617523280">
        <ele>2880.500</ele>
        <time>2020-05-21T19:28:44Z</time>
        <name>WPT.694</name>
      </trkpt>
      <trkpt lat="35.839532430" lon="-105.617478940">
        <ele>2879.900</ele>
        <time>2020-05-21T19:28:49Z</time>
        <name>WPT.695</name>
      </trkpt>
      <trkpt lat="35.839558440" lon="-105.617440930">
        <ele>2880.000</ele>
        <time>2020-05-21T19:28:54Z</time>
        <name>WPT.696</name>
      </trkpt>
      <trkpt lat="35.839578070" lon="-105.617394290">
        <ele>2883.100</ele>
        <time>2020-05-21T19:28:58Z</time>
        <name>WPT.697</name>
      </trkpt>
      <trkpt lat="35.839575250" lon="-105.617346120">
        <ele>2885.800</ele>
        <time>2020-05-21T19:29:04Z</time>
        <name>WPT.698</name>
      </trkpt>
      <trkpt lat="35.839591460" lon="-105.617295090">
        <ele>2884.200</ele>
        <time>2020-05-21T19:29:10Z</time>
        <name>WPT.699</name>
      </trkpt>
      <trkpt lat="35.839604970" lon="-105.617250410">
        <ele>2885.600</ele>
        <time>2020-05-21T19:29:15Z</time>
        <name>WPT.700</name>
      </trkpt>
      <trkpt lat="35.839610290" lon="-105.617201730">
        <ele>2885.100</ele>
        <time>2020-05-21T19:29:19Z</time>
        <name>WPT.701</name>
      </trkpt>
      <trkpt lat="35.839608050" lon="-105.617150150">
        <ele>2886.100</ele>
        <time>2020-05-21T19:29:24Z</time>
        <name>WPT.702</name>
      </trkpt>
      <trkpt lat="35.839603540" lon="-105.617100240">
        <ele>2886.500</ele>
        <time>2020-05-21T19:29:28Z</time>
        <name>WPT.703</name>
      </trkpt>
      <trkpt lat="35.839600340" lon="-105.617055170">
        <ele>2887.300</ele>
        <time>2020-05-21T19:29:33Z</time>
        <name>WPT.704</name>
      </trkpt>
      <trkpt lat="35.839576540" lon="-105.617021030">
        <ele>2884.100</ele>
        <time>2020-05-21T19:29:45Z</time>
        <name>WPT.705</name>
      </trkpt>
      <trkpt lat="35.839574680" lon="-105.616974750">
        <ele>2883.600</ele>
        <time>2020-05-21T19:29:57Z</time>
        <name>WPT.706</name>
      </trkpt>
      <trkpt lat="35.839562620" lon="-105.616928290">
        <ele>2883.300</ele>
        <time>2020-05-21T19:30:01Z</time>
        <name>WPT.707</name>
      </trkpt>
      <trkpt lat="35.839547250" lon="-105.616878020">
        <ele>2881.100</ele>
        <time>2020-05-21T19:30:06Z</time>
        <name>WPT.708</name>
      </trkpt>
      <trkpt lat="35.839526980" lon="-105.616833430">
        <ele>2882.100</ele>
        <time>2020-05-21T19:30:11Z</time>
        <name>WPT.709</name>
      </trkpt>
      <trkpt lat="35.839518190" lon="-105.616787620">
        <ele>2882.700</ele>
        <time>2020-05-21T19:30:15Z</time>
        <name>WPT.710</name>
      </trkpt>
      <trkpt lat="35.839494610" lon="-105.616744010">
        <ele>2881.600</ele>
        <time>2020-05-21T19:30:19Z</time>
        <name>WPT.711</name>
      </trkpt>
      <trkpt lat="35.839476340" lon="-105.616701560">
        <ele>2882.000</ele>
        <time>2020-05-21T19:30:23Z</time>
        <name>WPT.712</name>
      </trkpt>
      <trkpt lat="35.839445880" lon="-105.616668020">
        <ele>2883.500</ele>
        <time>2020-05-21T19:30:28Z</time>
        <name>WPT.713</name>
      </trkpt>
      <trkpt lat="35.839407370" lon="-105.616644850">
        <ele>2883.800</ele>
        <time>2020-05-21T19:30:32Z</time>
        <name>WPT.714</name>
      </trkpt>
      <trkpt lat="35.839369870" lon="-105.616616170">
        <ele>2883.700</ele>
        <time>2020-05-21T19:30:37Z</time>
        <name>WPT.715</name>
      </trkpt>
      <trkpt lat="35.839324830" lon="-105.616606310">
        <ele>2887.200</ele>
        <time>2020-05-21T19:30:41Z</time>
        <name>WPT.716</name>
      </trkpt>
      <trkpt lat="35.839293650" lon="-105.616575940">
        <ele>2888.500</ele>
        <time>2020-05-21T19:30:45Z</time>
        <name>WPT.717</name>
      </trkpt>
      <trkpt lat="35.839265180" lon="-105.616546370">
        <ele>2890.200</ele>
        <time>2020-05-21T19:30:54Z</time>
        <name>WPT.718</name>
      </trkpt>
      <trkpt lat="35.839224890" lon="-105.616548820">
        <ele>2888.000</ele>
        <time>2020-05-21T19:31:06Z</time>
        <name>WPT.719</name>
      </trkpt>
      <trkpt lat="35.839188860" lon="-105.616534650">
        <ele>2887.500</ele>
        <time>2020-05-21T19:31:11Z</time>
        <name>WPT.720</name>
      </trkpt>
      <trkpt lat="35.839149960" lon="-105.616522770">
        <ele>2888.400</ele>
        <time>2020-05-21T19:31:17Z</time>
        <name>WPT.721</name>
      </trkpt>
      <trkpt lat="35.839180470" lon="-105.616491560">
        <ele>2886.300</ele>
        <time>2020-05-21T19:31:24Z</time>
        <name>WPT.722</name>
      </trkpt>
      <trkpt lat="35.839216230" lon="-105.616483770">
        <ele>2886.600</ele>
        <time>2020-05-21T19:31:32Z</time>
        <name>WPT.723</name>
      </trkpt>
      <trkpt lat="35.839251150" lon="-105.616469680">
        <ele>2890.800</ele>
        <time>2020-05-21T19:31:40Z</time>
        <name>WPT.724</name>
      </trkpt>
      <trkpt lat="35.839276640" lon="-105.616430500">
        <ele>2890.700</ele>
        <time>2020-05-21T19:31:45Z</time>
        <name>WPT.725</name>
      </trkpt>
      <trkpt lat="35.839311750" lon="-105.616406680">
        <ele>2893.600</ele>
        <time>2020-05-21T19:31:49Z</time>
        <name>WPT.726</name>
      </trkpt>
      <trkpt lat="35.839343830" lon="-105.616362020">
        <ele>2891.800</ele>
        <time>2020-05-21T19:31:54Z</time>
        <name>WPT.727</name>
      </trkpt>
      <trkpt lat="35.839367250" lon="-105.616321710">
        <ele>2892.100</ele>
        <time>2020-05-21T19:31:58Z</time>
        <name>WPT.728</name>
      </trkpt>
      <trkpt lat="35.839383770" lon="-105.616268810">
        <ele>2887.600</ele>
        <time>2020-05-21T19:32:03Z</time>
        <name>WPT.729</name>
      </trkpt>
      <trkpt lat="35.839380990" lon="-105.616221040">
        <ele>2885.300</ele>
        <time>2020-05-21T19:32:08Z</time>
        <name>WPT.730</name>
      </trkpt>
      <trkpt lat="35.839366160" lon="-105.616170630">
        <ele>2885.100</ele>
        <time>2020-05-21T19:32:26Z</time>
        <name>WPT.731</name>
      </trkpt>
      <trkpt lat="35.839344330" lon="-105.616130500">
        <ele>2884.500</ele>
        <time>2020-05-21T19:32:40Z</time>
        <name>WPT.732</name>
      </trkpt>
      <trkpt lat="35.839373050" lon="-105.616158480">
        <ele>2881.500</ele>
        <time>2020-05-21T19:34:07Z</time>
        <name>WPT.733</name>
      </trkpt>
      <trkpt lat="35.839405500" lon="-105.616135550">
        <ele>2882.000</ele>
        <time>2020-05-21T19:34:11Z</time>
        <name>WPT.734</name>
      </trkpt>
      <trkpt lat="35.839444650" lon="-105.616125550">
        <ele>2883.100</ele>
        <time>2020-05-21T19:34:15Z</time>
        <name>WPT.735</name>
      </trkpt>
      <trkpt lat="35.839487820" lon="-105.616100240">
        <ele>2885.700</ele>
        <time>2020-05-21T19:34:19Z</time>
        <name>WPT.736</name>
      </trkpt>
      <trkpt lat="35.839521300" lon="-105.616072260">
        <ele>2890.600</ele>
        <time>2020-05-21T19:34:24Z</time>
        <name>WPT.737</name>
      </trkpt>
      <trkpt lat="35.839556280" lon="-105.616042380">
        <ele>2888.900</ele>
        <time>2020-05-21T19:34:30Z</time>
        <name>WPT.738</name>
      </trkpt>
      <trkpt lat="35.839559690" lon="-105.615993810">
        <ele>2887.000</ele>
        <time>2020-05-21T19:34:35Z</time>
        <name>WPT.739</name>
      </trkpt>
      <trkpt lat="35.839595820" lon="-105.615984410">
        <ele>2886.100</ele>
        <time>2020-05-21T19:34:40Z</time>
        <name>WPT.740</name>
      </trkpt>
      <trkpt lat="35.839634360" lon="-105.615965050">
        <ele>2886.200</ele>
        <time>2020-05-21T19:34:45Z</time>
        <name>WPT.741</name>
      </trkpt>
      <trkpt lat="35.839671030" lon="-105.615944980">
        <ele>2889.100</ele>
        <time>2020-05-21T19:34:51Z</time>
        <name>WPT.742</name>
      </trkpt>
      <trkpt lat="35.839698810" lon="-105.615976010">
        <ele>2892.500</ele>
        <time>2020-05-21T19:35:02Z</time>
        <name>WPT.743</name>
      </trkpt>
      <trkpt lat="35.839715830" lon="-105.615925360">
        <ele>2889.900</ele>
        <time>2020-05-21T19:35:07Z</time>
        <name>WPT.744</name>
      </trkpt>
      <trkpt lat="35.839712150" lon="-105.615874590">
        <ele>2889.900</ele>
        <time>2020-05-21T19:35:12Z</time>
        <name>WPT.745</name>
      </trkpt>
      <trkpt lat="35.839745620" lon="-105.615855720">
        <ele>2892.000</ele>
        <time>2020-05-21T19:37:18Z</time>
        <name>WPT.746</name>
      </trkpt>
      <trkpt lat="35.839789290" lon="-105.615856580">
        <ele>2894.400</ele>
        <time>2020-05-21T19:37:25Z</time>
        <name>WPT.747</name>
      </trkpt>
      <trkpt lat="35.839821540" lon="-105.615877620">
        <ele>2895.000</ele>
        <time>2020-05-21T19:37:34Z</time>
        <name>WPT.748</name>
      </trkpt>
      <trkpt lat="35.839864000" lon="-105.615873610">
        <ele>2892.200</ele>
        <time>2020-05-21T19:37:42Z</time>
        <name>WPT.749</name>
      </trkpt>
      <trkpt lat="35.839889390" lon="-105.615837720">
        <ele>2892.200</ele>
        <time>2020-05-21T19:37:48Z</time>
        <name>WPT.750</name>
      </trkpt>
      <trkpt lat="35.839930620" lon="-105.615807990">
        <ele>2893.500</ele>
        <time>2020-05-21T19:37:52Z</time>
        <name>WPT.751</name>
      </trkpt>
      <trkpt lat="35.839971590" lon="-105.615790730">
        <ele>2892.900</ele>
        <time>2020-05-21T19:37:56Z</time>
        <name>WPT.752</name>
      </trkpt>
      <trkpt lat="35.840008730" lon="-105.615769520">
        <ele>2893.300</ele>
        <time>2020-05-21T19:38:01Z</time>
        <name>WPT.753</name>
      </trkpt>
      <trkpt lat="35.840039740" lon="-105.615745380">
        <ele>2892.900</ele>
        <time>2020-05-21T19:38:06Z</time>
        <name>WPT.754</name>
      </trkpt>
      <trkpt lat="35.840052910" lon="-105.615702580">
        <ele>2891.700</ele>
        <time>2020-05-21T19:38:13Z</time>
        <name>WPT.755</name>
      </trkpt>
      <trkpt lat="35.840065460" lon="-105.615660380">
        <ele>2890.600</ele>
        <time>2020-05-21T19:38:17Z</time>
        <name>WPT.756</name>
      </trkpt>
      <trkpt lat="35.840092290" lon="-105.615628290">
        <ele>2891.500</ele>
        <time>2020-05-21T19:38:24Z</time>
        <name>WPT.757</name>
      </trkpt>
      <trkpt lat="35.840091450" lon="-105.615578590">
        <ele>2890.800</ele>
        <time>2020-05-21T19:38:28Z</time>
        <name>WPT.758</name>
      </trkpt>
      <trkpt lat="35.840095930" lon="-105.615527050">
        <ele>2890.600</ele>
        <time>2020-05-21T19:38:32Z</time>
        <name>WPT.759</name>
      </trkpt>
      <trkpt lat="35.840135650" lon="-105.615508010">
        <ele>2893.100</ele>
        <time>2020-05-21T19:39:05Z</time>
        <name>WPT.760</name>
      </trkpt>
      <trkpt lat="35.840172590" lon="-105.615487780">
        <ele>2893.400</ele>
        <time>2020-05-21T19:39:11Z</time>
        <name>WPT.761</name>
      </trkpt>
      <trkpt lat="35.840216950" lon="-105.615478790">
        <ele>2893.300</ele>
        <time>2020-05-21T19:39:17Z</time>
        <name>WPT.762</name>
      </trkpt>
      <trkpt lat="35.840257840" lon="-105.615480270">
        <ele>2894.400</ele>
        <time>2020-05-21T19:39:23Z</time>
        <name>WPT.763</name>
      </trkpt>
      <trkpt lat="35.840298610" lon="-105.615493380">
        <ele>2894.900</ele>
        <time>2020-05-21T19:39:29Z</time>
        <name>WPT.764</name>
      </trkpt>
      <trkpt lat="35.840333410" lon="-105.615507020">
        <ele>2895.400</ele>
        <time>2020-05-21T19:39:34Z</time>
        <name>WPT.765</name>
      </trkpt>
      <trkpt lat="35.840376560" lon="-105.615495070">
        <ele>2896.800</ele>
        <time>2020-05-21T19:39:39Z</time>
        <name>WPT.766</name>
      </trkpt>
      <trkpt lat="35.840399130" lon="-105.615454280">
        <ele>2895.100</ele>
        <time>2020-05-21T19:39:45Z</time>
        <name>WPT.767</name>
      </trkpt>
      <trkpt lat="35.840438310" lon="-105.615436890">
        <ele>2895.900</ele>
        <time>2020-05-21T19:39:51Z</time>
        <name>WPT.768</name>
      </trkpt>
      <trkpt lat="35.840453410" lon="-105.615396110">
        <ele>2894.800</ele>
        <time>2020-05-21T19:39:58Z</time>
        <name>WPT.769</name>
      </trkpt>
      <trkpt lat="35.840449990" lon="-105.615351780">
        <ele>2893.000</ele>
        <time>2020-05-21T19:40:02Z</time>
        <name>WPT.770</name>
      </trkpt>
      <trkpt lat="35.840460120" lon="-105.615304380">
        <ele>2891.700</ele>
        <time>2020-05-21T19:40:07Z</time>
        <name>WPT.771</name>
      </trkpt>
      <trkpt lat="35.840499680" lon="-105.615297480">
        <ele>2892.600</ele>
        <time>2020-05-21T19:40:43Z</time>
        <name>WPT.772</name>
      </trkpt>
      <trkpt lat="35.840541620" lon="-105.615310770">
        <ele>2894.200</ele>
        <time>2020-05-21T19:40:47Z</time>
        <name>WPT.773</name>
      </trkpt>
      <trkpt lat="35.840580640" lon="-105.615324080">
        <ele>2893.700</ele>
        <time>2020-05-21T19:40:53Z</time>
        <name>WPT.774</name>
      </trkpt>
      <trkpt lat="35.840616390" lon="-105.615296300">
        <ele>2892.700</ele>
        <time>2020-05-21T19:40:59Z</time>
        <name>WPT.775</name>
      </trkpt>
      <trkpt lat="35.840650340" lon="-105.615268060">
        <ele>2892.400</ele>
        <time>2020-05-21T19:41:04Z</time>
        <name>WPT.776</name>
      </trkpt>
      <trkpt lat="35.840690120" lon="-105.615255910">
        <ele>2891.500</ele>
        <time>2020-05-21T19:41:07Z</time>
        <name>WPT.777</name>
      </trkpt>
      <trkpt lat="35.840726520" lon="-105.615229510">
        <ele>2891.200</ele>
        <time>2020-05-21T19:41:11Z</time>
        <name>WPT.778</name>
      </trkpt>
      <trkpt lat="35.840762770" lon="-105.615210190">
        <ele>2891.100</ele>
        <time>2020-05-21T19:41:16Z</time>
        <name>WPT.779</name>
      </trkpt>
      <trkpt lat="35.840784380" lon="-105.615163570">
        <ele>2890.800</ele>
        <time>2020-05-21T19:41:23Z</time>
        <name>WPT.780</name>
      </trkpt>
      <trkpt lat="35.840821660" lon="-105.615135010">
        <ele>2891.500</ele>
        <time>2020-05-21T19:41:28Z</time>
        <name>WPT.781</name>
      </trkpt>
      <trkpt lat="35.840850640" lon="-105.615093350">
        <ele>2891.700</ele>
        <time>2020-05-21T19:41:34Z</time>
        <name>WPT.782</name>
      </trkpt>
      <trkpt lat="35.840886090" lon="-105.615067860">
        <ele>2893.300</ele>
        <time>2020-05-21T19:41:41Z</time>
        <name>WPT.783</name>
      </trkpt>
      <trkpt lat="35.840928150" lon="-105.615049230">
        <ele>2894.100</ele>
        <time>2020-05-21T19:41:46Z</time>
        <name>WPT.784</name>
      </trkpt>
      <trkpt lat="35.840961560" lon="-105.615030950">
        <ele>2894.200</ele>
        <time>2020-05-21T19:41:52Z</time>
        <name>WPT.785</name>
      </trkpt>
      <trkpt lat="35.840998000" lon="-105.615017320">
        <ele>2893.000</ele>
        <time>2020-05-21T19:41:58Z</time>
        <name>WPT.786</name>
      </trkpt>
      <trkpt lat="35.841026670" lon="-105.614984790">
        <ele>2894.400</ele>
        <time>2020-05-21T19:42:03Z</time>
        <name>WPT.787</name>
      </trkpt>
      <trkpt lat="35.841057570" lon="-105.614949030">
        <ele>2894.500</ele>
        <time>2020-05-21T19:42:13Z</time>
        <name>WPT.788</name>
      </trkpt>
      <trkpt lat="35.841090490" lon="-105.614923170">
        <ele>2895.200</ele>
        <time>2020-05-21T19:42:17Z</time>
        <name>WPT.789</name>
      </trkpt>
      <trkpt lat="35.841123190" lon="-105.614902320">
        <ele>2895.000</ele>
        <time>2020-05-21T19:42:22Z</time>
        <name>WPT.790</name>
      </trkpt>
      <trkpt lat="35.841162370" lon="-105.614904590">
        <ele>2896.600</ele>
        <time>2020-05-21T19:42:27Z</time>
        <name>WPT.791</name>
      </trkpt>
      <trkpt lat="35.841203980" lon="-105.614894240">
        <ele>2895.700</ele>
        <time>2020-05-21T19:42:34Z</time>
        <name>WPT.792</name>
      </trkpt>
      <trkpt lat="35.841249690" lon="-105.614885410">
        <ele>2895.000</ele>
        <time>2020-05-21T19:42:40Z</time>
        <name>WPT.793</name>
      </trkpt>
      <trkpt lat="35.841271200" lon="-105.614838050">
        <ele>2893.700</ele>
        <time>2020-05-21T19:42:45Z</time>
        <name>WPT.794</name>
      </trkpt>
      <trkpt lat="35.841306190" lon="-105.614803720">
        <ele>2893.000</ele>
        <time>2020-05-21T19:42:50Z</time>
        <name>WPT.795</name>
      </trkpt>
      <trkpt lat="35.841337250" lon="-105.614780500">
        <ele>2893.600</ele>
        <time>2020-05-21T19:42:54Z</time>
        <name>WPT.796</name>
      </trkpt>
      <trkpt lat="35.841371040" lon="-105.614754180">
        <ele>2894.000</ele>
        <time>2020-05-21T19:42:58Z</time>
        <name>WPT.797</name>
      </trkpt>
      <trkpt lat="35.841405740" lon="-105.614731570">
        <ele>2896.100</ele>
        <time>2020-05-21T19:43:11Z</time>
        <name>WPT.798</name>
      </trkpt>
      <trkpt lat="35.841440430" lon="-105.614717400">
        <ele>2897.500</ele>
        <time>2020-05-21T19:43:16Z</time>
        <name>WPT.799</name>
      </trkpt>
      <trkpt lat="35.841472570" lon="-105.614695620">
        <ele>2896.200</ele>
        <time>2020-05-21T19:43:24Z</time>
        <name>WPT.800</name>
      </trkpt>
      <trkpt lat="35.841474910" lon="-105.614650670">
        <ele>2895.400</ele>
        <time>2020-05-21T19:43:28Z</time>
        <name>WPT.801</name>
      </trkpt>
      <trkpt lat="35.841506780" lon="-105.614615230">
        <ele>2895.500</ele>
        <time>2020-05-21T19:43:32Z</time>
        <name>WPT.802</name>
      </trkpt>
      <trkpt lat="35.841540110" lon="-105.614590560">
        <ele>2897.700</ele>
        <time>2020-05-21T19:43:39Z</time>
        <name>WPT.803</name>
      </trkpt>
      <trkpt lat="35.841569880" lon="-105.614559180">
        <ele>2897.500</ele>
        <time>2020-05-21T19:43:49Z</time>
        <name>WPT.804</name>
      </trkpt>
      <trkpt lat="35.841601670" lon="-105.614522290">
        <ele>2896.700</ele>
        <time>2020-05-21T19:44:08Z</time>
        <name>WPT.805</name>
      </trkpt>
      <trkpt lat="35.841633540" lon="-105.614500100">
        <ele>2897.900</ele>
        <time>2020-05-21T19:44:13Z</time>
        <name>WPT.806</name>
      </trkpt>
      <trkpt lat="35.841667660" lon="-105.614469640">
        <ele>2896.800</ele>
        <time>2020-05-21T19:44:19Z</time>
        <name>WPT.807</name>
      </trkpt>
      <trkpt lat="35.841697410" lon="-105.614432660">
        <ele>2896.900</ele>
        <time>2020-05-21T19:44:24Z</time>
        <name>WPT.808</name>
      </trkpt>
      <trkpt lat="35.841735220" lon="-105.614425630">
        <ele>2898.200</ele>
        <time>2020-05-21T19:44:28Z</time>
        <name>WPT.809</name>
      </trkpt>
      <trkpt lat="35.841769850" lon="-105.614396570">
        <ele>2898.800</ele>
        <time>2020-05-21T19:44:33Z</time>
        <name>WPT.810</name>
      </trkpt>
      <trkpt lat="35.841794020" lon="-105.614349410">
        <ele>2897.200</ele>
        <time>2020-05-21T19:45:29Z</time>
        <name>WPT.811</name>
      </trkpt>
      <trkpt lat="35.841829260" lon="-105.614322710">
        <ele>2899.100</ele>
        <time>2020-05-21T19:45:33Z</time>
        <name>WPT.812</name>
      </trkpt>
      <trkpt lat="35.841865020" lon="-105.614303000">
        <ele>2899.400</ele>
        <time>2020-05-21T19:45:36Z</time>
        <name>WPT.813</name>
      </trkpt>
      <trkpt lat="35.841904240" lon="-105.614300570">
        <ele>2899.600</ele>
        <time>2020-05-21T19:45:40Z</time>
        <name>WPT.814</name>
      </trkpt>
      <trkpt lat="35.841945600" lon="-105.614278050">
        <ele>2899.600</ele>
        <time>2020-05-21T19:45:45Z</time>
        <name>WPT.815</name>
      </trkpt>
      <trkpt lat="35.841969130" lon="-105.614241410">
        <ele>2900.100</ele>
        <time>2020-05-21T19:45:50Z</time>
        <name>WPT.816</name>
      </trkpt>
      <trkpt lat="35.841992910" lon="-105.614202980">
        <ele>2898.400</ele>
        <time>2020-05-21T19:45:55Z</time>
        <name>WPT.817</name>
      </trkpt>
      <trkpt lat="35.842005240" lon="-105.614161350">
        <ele>2896.200</ele>
        <time>2020-05-21T19:46:09Z</time>
        <name>WPT.818</name>
      </trkpt>
      <trkpt lat="35.842038860" lon="-105.614142540">
        <ele>2896.100</ele>
        <time>2020-05-21T19:46:15Z</time>
        <name>WPT.819</name>
      </trkpt>
      <trkpt lat="35.842050820" lon="-105.614099890">
        <ele>2895.200</ele>
        <time>2020-05-21T19:46:21Z</time>
        <name>WPT.820</name>
      </trkpt>
      <trkpt lat="35.842079140" lon="-105.614064930">
        <ele>2895.400</ele>
        <time>2020-05-21T19:46:28Z</time>
        <name>WPT.821</name>
      </trkpt>
      <trkpt lat="35.842115140" lon="-105.614037150">
        <ele>2894.900</ele>
        <time>2020-05-21T19:46:33Z</time>
        <name>WPT.822</name>
      </trkpt>
      <trkpt lat="35.842148050" lon="-105.614016420">
        <ele>2894.000</ele>
        <time>2020-05-21T19:46:38Z</time>
        <name>WPT.823</name>
      </trkpt>
      <trkpt lat="35.842185120" lon="-105.613997410">
        <ele>2894.100</ele>
        <time>2020-05-21T19:47:05Z</time>
        <name>WPT.824</name>
      </trkpt>
      <trkpt lat="35.842227340" lon="-105.613980850">
        <ele>2894.000</ele>
        <time>2020-05-21T19:47:11Z</time>
        <name>WPT.825</name>
      </trkpt>
      <trkpt lat="35.842269090" lon="-105.613990630">
        <ele>2894.400</ele>
        <time>2020-05-21T19:47:17Z</time>
        <name>WPT.826</name>
      </trkpt>
      <trkpt lat="35.842303600" lon="-105.613965340">
        <ele>2894.400</ele>
        <time>2020-05-21T19:47:21Z</time>
        <name>WPT.827</name>
      </trkpt>
      <trkpt lat="35.842341500" lon="-105.613956410">
        <ele>2895.600</ele>
        <time>2020-05-21T19:47:25Z</time>
        <name>WPT.828</name>
      </trkpt>
      <trkpt lat="35.842373230" lon="-105.613979630">
        <ele>2897.700</ele>
        <time>2020-05-21T19:47:30Z</time>
        <name>WPT.829</name>
      </trkpt>
      <trkpt lat="35.842400820" lon="-105.614008400">
        <ele>2899.100</ele>
        <time>2020-05-21T19:47:35Z</time>
        <name>WPT.830</name>
      </trkpt>
      <trkpt lat="35.842437340" lon="-105.614019260">
        <ele>2897.000</ele>
        <time>2020-05-21T19:47:41Z</time>
        <name>WPT.831</name>
      </trkpt>
      <trkpt lat="35.842447820" lon="-105.613976720">
        <ele>2892.600</ele>
        <time>2020-05-21T19:48:33Z</time>
        <name>WPT.832</name>
      </trkpt>
      <trkpt lat="35.842432270" lon="-105.613935840">
        <ele>2892.500</ele>
        <time>2020-05-21T19:51:17Z</time>
        <name>WPT.833</name>
      </trkpt>
      <trkpt lat="35.842404680" lon="-105.613897140">
        <ele>2892.300</ele>
        <time>2020-05-21T19:51:21Z</time>
        <name>WPT.834</name>
      </trkpt>
      <trkpt lat="35.842373880" lon="-105.613870340">
        <ele>2892.400</ele>
        <time>2020-05-21T19:51:24Z</time>
        <name>WPT.835</name>
      </trkpt>
      <trkpt lat="35.842333490" lon="-105.613862420">
        <ele>2893.300</ele>
        <time>2020-05-21T19:51:28Z</time>
        <name>WPT.836</name>
      </trkpt>
      <trkpt lat="35.842294770" lon="-105.613872920">
        <ele>2894.300</ele>
        <time>2020-05-21T19:51:33Z</time>
        <name>WPT.837</name>
      </trkpt>
      <trkpt lat="35.842257190" lon="-105.613868260">
        <ele>2894.300</ele>
        <time>2020-05-21T19:51:37Z</time>
        <name>WPT.838</name>
      </trkpt>
      <trkpt lat="35.842209050" lon="-105.613881450">
        <ele>2895.100</ele>
        <time>2020-05-21T19:51:41Z</time>
        <name>WPT.839</name>
      </trkpt>
      <trkpt lat="35.842166380" lon="-105.613886250">
        <ele>2892.700</ele>
        <time>2020-05-21T19:51:45Z</time>
        <name>WPT.840</name>
      </trkpt>
      <trkpt lat="35.842126340" lon="-105.613896440">
        <ele>2893.500</ele>
        <time>2020-05-21T19:51:49Z</time>
        <name>WPT.841</name>
      </trkpt>
      <trkpt lat="35.842089260" lon="-105.613921940">
        <ele>2893.400</ele>
        <time>2020-05-21T19:51:54Z</time>
        <name>WPT.842</name>
      </trkpt>
      <trkpt lat="35.842061290" lon="-105.613962330">
        <ele>2893.600</ele>
        <time>2020-05-21T19:51:58Z</time>
        <name>WPT.843</name>
      </trkpt>
      <trkpt lat="35.842027230" lon="-105.613996260">
        <ele>2895.600</ele>
        <time>2020-05-21T19:52:03Z</time>
        <name>WPT.844</name>
      </trkpt>
      <trkpt lat="35.841997290" lon="-105.614029330">
        <ele>2894.500</ele>
        <time>2020-05-21T19:52:07Z</time>
        <name>WPT.845</name>
      </trkpt>
      <trkpt lat="35.841960890" lon="-105.614024240">
        <ele>2896.300</ele>
        <time>2020-05-21T19:52:13Z</time>
        <name>WPT.846</name>
      </trkpt>
      <trkpt lat="35.841930730" lon="-105.614063390">
        <ele>2895.500</ele>
        <time>2020-05-21T19:52:18Z</time>
        <name>WPT.847</name>
      </trkpt>
      <trkpt lat="35.841910820" lon="-105.614106660">
        <ele>2895.300</ele>
        <time>2020-05-21T19:52:22Z</time>
        <name>WPT.848</name>
      </trkpt>
      <trkpt lat="35.841871670" lon="-105.614111470">
        <ele>2897.800</ele>
        <time>2020-05-21T19:52:28Z</time>
        <name>WPT.849</name>
      </trkpt>
      <trkpt lat="35.841834810" lon="-105.614122320">
        <ele>2898.600</ele>
        <time>2020-05-21T19:52:33Z</time>
        <name>WPT.850</name>
      </trkpt>
      <trkpt lat="35.841827120" lon="-105.614170010">
        <ele>2893.300</ele>
        <time>2020-05-21T19:52:36Z</time>
        <name>WPT.851</name>
      </trkpt>
      <trkpt lat="35.841797330" lon="-105.614213330">
        <ele>2892.200</ele>
        <time>2020-05-21T19:52:40Z</time>
        <name>WPT.852</name>
      </trkpt>
      <trkpt lat="35.841767130" lon="-105.614239320">
        <ele>2892.200</ele>
        <time>2020-05-21T19:52:44Z</time>
        <name>WPT.853</name>
      </trkpt>
      <trkpt lat="35.841734240" lon="-105.614275020">
        <ele>2891.500</ele>
        <time>2020-05-21T19:52:49Z</time>
        <name>WPT.854</name>
      </trkpt>
      <trkpt lat="35.841695870" lon="-105.614292000">
        <ele>2893.000</ele>
        <time>2020-05-21T19:52:53Z</time>
        <name>WPT.855</name>
      </trkpt>
      <trkpt lat="35.841682450" lon="-105.614341130">
        <ele>2893.800</ele>
        <time>2020-05-21T19:52:59Z</time>
        <name>WPT.856</name>
      </trkpt>
      <trkpt lat="35.841646980" lon="-105.614365230">
        <ele>2893.800</ele>
        <time>2020-05-21T19:53:04Z</time>
        <name>WPT.857</name>
      </trkpt>
      <trkpt lat="35.841608180" lon="-105.614381400">
        <ele>2894.800</ele>
        <time>2020-05-21T19:53:09Z</time>
        <name>WPT.858</name>
      </trkpt>
      <trkpt lat="35.841578350" lon="-105.614411910">
        <ele>2894.600</ele>
        <time>2020-05-21T19:53:13Z</time>
        <name>WPT.859</name>
      </trkpt>
      <trkpt lat="35.841548690" lon="-105.614440590">
        <ele>2895.200</ele>
        <time>2020-05-21T19:53:17Z</time>
        <name>WPT.860</name>
      </trkpt>
      <trkpt lat="35.841515750" lon="-105.614469140">
        <ele>2895.100</ele>
        <time>2020-05-21T19:53:22Z</time>
        <name>WPT.861</name>
      </trkpt>
      <trkpt lat="35.841479190" lon="-105.614492940">
        <ele>2894.900</ele>
        <time>2020-05-21T19:53:27Z</time>
        <name>WPT.862</name>
      </trkpt>
      <trkpt lat="35.841452270" lon="-105.614524760">
        <ele>2894.800</ele>
        <time>2020-05-21T19:53:31Z</time>
        <name>WPT.863</name>
      </trkpt>
      <trkpt lat="35.841420830" lon="-105.614559960">
        <ele>2895.800</ele>
        <time>2020-05-21T19:53:36Z</time>
        <name>WPT.864</name>
      </trkpt>
      <trkpt lat="35.841387710" lon="-105.614585520">
        <ele>2895.400</ele>
        <time>2020-05-21T19:53:41Z</time>
        <name>WPT.865</name>
      </trkpt>
      <trkpt lat="35.841354770" lon="-105.614618600">
        <ele>2895.400</ele>
        <time>2020-05-21T19:53:47Z</time>
        <name>WPT.866</name>
      </trkpt>
      <trkpt lat="35.841336170" lon="-105.614657700">
        <ele>2893.600</ele>
        <time>2020-05-21T19:53:51Z</time>
        <name>WPT.867</name>
      </trkpt>
      <trkpt lat="35.841307500" lon="-105.614688130">
        <ele>2893.800</ele>
        <time>2020-05-21T19:53:56Z</time>
        <name>WPT.868</name>
      </trkpt>
      <trkpt lat="35.841270160" lon="-105.614712390">
        <ele>2895.800</ele>
        <time>2020-05-21T19:54:02Z</time>
        <name>WPT.869</name>
      </trkpt>
      <trkpt lat="35.841240190" lon="-105.614750200">
        <ele>2894.100</ele>
        <time>2020-05-21T19:54:07Z</time>
        <name>WPT.870</name>
      </trkpt>
      <trkpt lat="35.841203200" lon="-105.614763970">
        <ele>2894.700</ele>
        <time>2020-05-21T19:54:11Z</time>
        <name>WPT.871</name>
      </trkpt>
      <trkpt lat="35.841165940" lon="-105.614747580">
        <ele>2897.500</ele>
        <time>2020-05-21T19:54:15Z</time>
        <name>WPT.872</name>
      </trkpt>
      <trkpt lat="35.841123520" lon="-105.614759330">
        <ele>2894.000</ele>
        <time>2020-05-21T19:54:21Z</time>
        <name>WPT.873</name>
      </trkpt>
      <trkpt lat="35.841086660" lon="-105.614779630">
        <ele>2893.600</ele>
        <time>2020-05-21T19:54:25Z</time>
        <name>WPT.874</name>
      </trkpt>
      <trkpt lat="35.841054820" lon="-105.614802030">
        <ele>2893.700</ele>
        <time>2020-05-21T19:54:29Z</time>
        <name>WPT.875</name>
      </trkpt>
      <trkpt lat="35.841032680" lon="-105.614850280">
        <ele>2892.300</ele>
        <time>2020-05-21T19:54:34Z</time>
        <name>WPT.876</name>
      </trkpt>
      <trkpt lat="35.840990590" lon="-105.614857900">
        <ele>2892.200</ele>
        <time>2020-05-21T19:54:38Z</time>
        <name>WPT.877</name>
      </trkpt>
      <trkpt lat="35.840959230" lon="-105.614880200">
        <ele>2888.500</ele>
        <time>2020-05-21T19:54:43Z</time>
        <name>WPT.878</name>
      </trkpt>
      <trkpt lat="35.840919920" lon="-105.614899220">
        <ele>2891.800</ele>
        <time>2020-05-21T19:54:50Z</time>
        <name>WPT.879</name>
      </trkpt>
      <trkpt lat="35.840880860" lon="-105.614929200">
        <ele>2891.800</ele>
        <time>2020-05-21T19:54:54Z</time>
        <name>WPT.880</name>
      </trkpt>
      <trkpt lat="35.840856280" lon="-105.614973440">
        <ele>2890.500</ele>
        <time>2020-05-21T19:54:58Z</time>
        <name>WPT.881</name>
      </trkpt>
      <trkpt lat="35.840829180" lon="-105.615005960">
        <ele>2891.200</ele>
        <time>2020-05-21T19:55:02Z</time>
        <name>WPT.882</name>
      </trkpt>
      <trkpt lat="35.840791740" lon="-105.615026750">
        <ele>2893.500</ele>
        <time>2020-05-21T19:55:06Z</time>
        <name>WPT.883</name>
      </trkpt>
      <trkpt lat="35.840760000" lon="-105.615061500">
        <ele>2893.600</ele>
        <time>2020-05-21T19:55:10Z</time>
        <name>WPT.884</name>
      </trkpt>
      <trkpt lat="35.840731540" lon="-105.615103460">
        <ele>2891.000</ele>
        <time>2020-05-21T19:55:15Z</time>
        <name>WPT.885</name>
      </trkpt>
      <trkpt lat="35.840698130" lon="-105.615127520">
        <ele>2889.900</ele>
        <time>2020-05-21T19:55:19Z</time>
        <name>WPT.886</name>
      </trkpt>
      <trkpt lat="35.840654390" lon="-105.615150410">
        <ele>2889.100</ele>
        <time>2020-05-21T19:55:23Z</time>
        <name>WPT.887</name>
      </trkpt>
      <trkpt lat="35.840634570" lon="-105.615196390">
        <ele>2889.200</ele>
        <time>2020-05-21T19:55:27Z</time>
        <name>WPT.888</name>
      </trkpt>
      <trkpt lat="35.840609910" lon="-105.615241340">
        <ele>2890.400</ele>
        <time>2020-05-21T19:55:32Z</time>
        <name>WPT.889</name>
      </trkpt>
      <trkpt lat="35.840588690" lon="-105.615289030">
        <ele>2889.700</ele>
        <time>2020-05-21T19:55:36Z</time>
        <name>WPT.890</name>
      </trkpt>
      <trkpt lat="35.840572290" lon="-105.615338560">
        <ele>2890.800</ele>
        <time>2020-05-21T19:55:41Z</time>
        <name>WPT.891</name>
      </trkpt>
      <trkpt lat="35.840547240" lon="-105.615381260">
        <ele>2892.500</ele>
        <time>2020-05-21T19:55:46Z</time>
        <name>WPT.892</name>
      </trkpt>
      <trkpt lat="35.840524000" lon="-105.615416220">
        <ele>2893.400</ele>
        <time>2020-05-21T19:55:50Z</time>
        <name>WPT.893</name>
      </trkpt>
      <trkpt lat="35.840491740" lon="-105.615443130">
        <ele>2894.400</ele>
        <time>2020-05-21T19:55:54Z</time>
        <name>WPT.894</name>
      </trkpt>
      <trkpt lat="35.840452970" lon="-105.615462860">
        <ele>2896.400</ele>
        <time>2020-05-21T19:55:58Z</time>
        <name>WPT.895</name>
      </trkpt>
      <trkpt lat="35.840421960" lon="-105.615492800">
        <ele>2896.800</ele>
        <time>2020-05-21T19:56:02Z</time>
        <name>WPT.896</name>
      </trkpt>
      <trkpt lat="35.840413010" lon="-105.615541740">
        <ele>2895.700</ele>
        <time>2020-05-21T19:56:06Z</time>
        <name>WPT.897</name>
      </trkpt>
      <trkpt lat="35.840393050" lon="-105.615584420">
        <ele>2895.700</ele>
        <time>2020-05-21T19:56:10Z</time>
        <name>WPT.898</name>
      </trkpt>
      <trkpt lat="35.840352670" lon="-105.615596240">
        <ele>2896.700</ele>
        <time>2020-05-21T19:56:15Z</time>
        <name>WPT.899</name>
      </trkpt>
      <trkpt lat="35.840310360" lon="-105.615606390">
        <ele>2895.200</ele>
        <time>2020-05-21T19:56:20Z</time>
        <name>WPT.900</name>
      </trkpt>
      <trkpt lat="35.840270830" lon="-105.615602790">
        <ele>2896.800</ele>
        <time>2020-05-21T19:56:26Z</time>
        <name>WPT.901</name>
      </trkpt>
      <trkpt lat="35.840234970" lon="-105.615607740">
        <ele>2895.000</ele>
        <time>2020-05-21T19:56:43Z</time>
        <name>WPT.902</name>
      </trkpt>
      <trkpt lat="35.840198490" lon="-105.615628860">
        <ele>2895.300</ele>
        <time>2020-05-21T19:56:47Z</time>
        <name>WPT.903</name>
      </trkpt>
      <trkpt lat="35.840175900" lon="-105.615674260">
        <ele>2893.000</ele>
        <time>2020-05-21T19:56:51Z</time>
        <name>WPT.904</name>
      </trkpt>
      <trkpt lat="35.840151190" lon="-105.615706710">
        <ele>2891.300</ele>
        <time>2020-05-21T19:56:55Z</time>
        <name>WPT.905</name>
      </trkpt>
      <trkpt lat="35.840133840" lon="-105.615758740">
        <ele>2891.100</ele>
        <time>2020-05-21T19:57:00Z</time>
        <name>WPT.906</name>
      </trkpt>
      <trkpt lat="35.840110470" lon="-105.615794200">
        <ele>2892.100</ele>
        <time>2020-05-21T19:57:03Z</time>
        <name>WPT.907</name>
      </trkpt>
      <trkpt lat="35.840085470" lon="-105.615828890">
        <ele>2892.200</ele>
        <time>2020-05-21T19:57:06Z</time>
        <name>WPT.908</name>
      </trkpt>
      <trkpt lat="35.840071340" lon="-105.615871900">
        <ele>2890.600</ele>
        <time>2020-05-21T19:57:09Z</time>
        <name>WPT.909</name>
      </trkpt>
      <trkpt lat="35.840044770" lon="-105.615918660">
        <ele>2889.700</ele>
        <time>2020-05-21T19:57:13Z</time>
        <name>WPT.910</name>
      </trkpt>
      <trkpt lat="35.840013780" lon="-105.615961640">
        <ele>2888.900</ele>
        <time>2020-05-21T19:57:17Z</time>
        <name>WPT.911</name>
      </trkpt>
      <trkpt lat="35.839983630" lon="-105.615994520">
        <ele>2887.600</ele>
        <time>2020-05-21T19:57:21Z</time>
        <name>WPT.912</name>
      </trkpt>
      <trkpt lat="35.839947270" lon="-105.616030150">
        <ele>2889.000</ele>
        <time>2020-05-21T19:57:26Z</time>
        <name>WPT.913</name>
      </trkpt>
      <trkpt lat="35.839906370" lon="-105.616021040">
        <ele>2890.300</ele>
        <time>2020-05-21T19:57:30Z</time>
        <name>WPT.914</name>
      </trkpt>
      <trkpt lat="35.839869540" lon="-105.616042230">
        <ele>2889.800</ele>
        <time>2020-05-21T19:57:34Z</time>
        <name>WPT.915</name>
      </trkpt>
      <trkpt lat="35.839833780" lon="-105.616063170">
        <ele>2887.300</ele>
        <time>2020-05-21T19:57:38Z</time>
        <name>WPT.916</name>
      </trkpt>
      <trkpt lat="35.839797810" lon="-105.616068550">
        <ele>2888.400</ele>
        <time>2020-05-21T19:57:42Z</time>
        <name>WPT.917</name>
      </trkpt>
      <trkpt lat="35.839768280" lon="-105.616099930">
        <ele>2887.400</ele>
        <time>2020-05-21T19:59:46Z</time>
        <name>WPT.918</name>
      </trkpt>
      <trkpt lat="35.839722880" lon="-105.616093430">
        <ele>2890.400</ele>
        <time>2020-05-21T20:00:11Z</time>
        <name>WPT.919</name>
      </trkpt>
      <trkpt lat="35.839683340" lon="-105.616093410">
        <ele>2890.300</ele>
        <time>2020-05-21T20:00:15Z</time>
        <name>WPT.920</name>
      </trkpt>
      <trkpt lat="35.839639970" lon="-105.616086770">
        <ele>2892.500</ele>
        <time>2020-05-21T20:00:19Z</time>
        <name>WPT.921</name>
      </trkpt>
      <trkpt lat="35.839602430" lon="-105.616079260">
        <ele>2893.300</ele>
        <time>2020-05-21T20:00:23Z</time>
        <name>WPT.922</name>
      </trkpt>
      <trkpt lat="35.839556750" lon="-105.616075710">
        <ele>2892.100</ele>
        <time>2020-05-21T20:00:27Z</time>
        <name>WPT.923</name>
      </trkpt>
      <trkpt lat="35.839519190" lon="-105.616085090">
        <ele>2892.100</ele>
        <time>2020-05-21T20:00:30Z</time>
        <name>WPT.924</name>
      </trkpt>
      <trkpt lat="35.839483460" lon="-105.616098960">
        <ele>2890.300</ele>
        <time>2020-05-21T20:00:33Z</time>
        <name>WPT.925</name>
      </trkpt>
      <trkpt lat="35.839445960" lon="-105.616126680">
        <ele>2889.500</ele>
        <time>2020-05-21T20:00:37Z</time>
        <name>WPT.926</name>
      </trkpt>
      <trkpt lat="35.839409440" lon="-105.616146440">
        <ele>2890.500</ele>
        <time>2020-05-21T20:00:41Z</time>
        <name>WPT.927</name>
      </trkpt>
      <trkpt lat="35.839376120" lon="-105.616167980">
        <ele>2891.100</ele>
        <time>2020-05-21T20:00:45Z</time>
        <name>WPT.928</name>
      </trkpt>
      <trkpt lat="35.839335980" lon="-105.616162800">
        <ele>2893.200</ele>
        <time>2020-05-21T20:00:58Z</time>
        <name>WPT.929</name>
      </trkpt>
      <trkpt lat="35.839301020" lon="-105.616150820">
        <ele>2891.900</ele>
        <time>2020-05-21T20:01:03Z</time>
        <name>WPT.930</name>
      </trkpt>
      <trkpt lat="35.839270590" lon="-105.616179980">
        <ele>2891.000</ele>
        <time>2020-05-21T20:01:29Z</time>
        <name>WPT.931</name>
      </trkpt>
      <trkpt lat="35.839277540" lon="-105.616223730">
        <ele>2889.900</ele>
        <time>2020-05-21T20:01:32Z</time>
        <name>WPT.932</name>
      </trkpt>
      <trkpt lat="35.839282740" lon="-105.616279340">
        <ele>2889.400</ele>
        <time>2020-05-21T20:01:36Z</time>
        <name>WPT.933</name>
      </trkpt>
      <trkpt lat="35.839247190" lon="-105.616296960">
        <ele>2890.500</ele>
        <time>2020-05-21T20:01:39Z</time>
        <name>WPT.934</name>
      </trkpt>
      <trkpt lat="35.839211750" lon="-105.616319950">
        <ele>2889.700</ele>
        <time>2020-05-21T20:01:43Z</time>
        <name>WPT.935</name>
      </trkpt>
      <trkpt lat="35.839175900" lon="-105.616353700">
        <ele>2890.400</ele>
        <time>2020-05-21T20:01:47Z</time>
        <name>WPT.936</name>
      </trkpt>
      <trkpt lat="35.839146660" lon="-105.616388910">
        <ele>2889.200</ele>
        <time>2020-05-21T20:01:51Z</time>
        <name>WPT.937</name>
      </trkpt>
      <trkpt lat="35.839109910" lon="-105.616418080">
        <ele>2889.100</ele>
        <time>2020-05-21T20:01:55Z</time>
        <name>WPT.938</name>
      </trkpt>
      <trkpt lat="35.839092960" lon="-105.616462490">
        <ele>2888.300</ele>
        <time>2020-05-21T20:01:59Z</time>
        <name>WPT.939</name>
      </trkpt>
      <trkpt lat="35.839083190" lon="-105.616511220">
        <ele>2889.000</ele>
        <time>2020-05-21T20:02:04Z</time>
        <name>WPT.940</name>
      </trkpt>
      <trkpt lat="35.839076560" lon="-105.616555990">
        <ele>2887.300</ele>
        <time>2020-05-21T20:02:08Z</time>
        <name>WPT.941</name>
      </trkpt>
      <trkpt lat="35.839050670" lon="-105.616589620">
        <ele>2885.100</ele>
        <time>2020-05-21T20:02:12Z</time>
        <name>WPT.942</name>
      </trkpt>
      <trkpt lat="35.839014660" lon="-105.616595630">
        <ele>2884.400</ele>
        <time>2020-05-21T20:02:20Z</time>
        <name>WPT.943</name>
      </trkpt>
      <trkpt lat="35.838973290" lon="-105.616594180">
        <ele>2888.700</ele>
        <time>2020-05-21T20:02:25Z</time>
        <name>WPT.944</name>
      </trkpt>
      <trkpt lat="35.838942250" lon="-105.616628520">
        <ele>2888.300</ele>
        <time>2020-05-21T20:02:39Z</time>
        <name>WPT.945</name>
      </trkpt>
      <trkpt lat="35.838923260" lon="-105.616669990">
        <ele>2886.900</ele>
        <time>2020-05-21T20:02:43Z</time>
        <name>WPT.946</name>
      </trkpt>
      <trkpt lat="35.838911160" lon="-105.616711980">
        <ele>2886.300</ele>
        <time>2020-05-21T20:02:46Z</time>
        <name>WPT.947</name>
      </trkpt>
      <trkpt lat="35.838872500" lon="-105.616719600">
        <ele>2886.200</ele>
        <time>2020-05-21T20:03:14Z</time>
        <name>WPT.948</name>
      </trkpt>
      <trkpt lat="35.838846160" lon="-105.616757780">
        <ele>2884.800</ele>
        <time>2020-05-21T20:03:39Z</time>
        <name>WPT.949</name>
      </trkpt>
      <trkpt lat="35.838819160" lon="-105.616796030">
        <ele>2884.900</ele>
        <time>2020-05-21T20:03:44Z</time>
        <name>WPT.950</name>
      </trkpt>
      <trkpt lat="35.838787040" lon="-105.616835900">
        <ele>2885.100</ele>
        <time>2020-05-21T20:03:49Z</time>
        <name>WPT.951</name>
      </trkpt>
      <trkpt lat="35.838780610" lon="-105.616887020">
        <ele>2883.400</ele>
        <time>2020-05-21T20:03:52Z</time>
        <name>WPT.952</name>
      </trkpt>
      <trkpt lat="35.838760440" lon="-105.616928020">
        <ele>2882.000</ele>
        <time>2020-05-21T20:03:55Z</time>
        <name>WPT.953</name>
      </trkpt>
      <trkpt lat="35.838737230" lon="-105.616974420">
        <ele>2881.200</ele>
        <time>2020-05-21T20:04:00Z</time>
        <name>WPT.954</name>
      </trkpt>
      <trkpt lat="35.838701120" lon="-105.616993560">
        <ele>2882.500</ele>
        <time>2020-05-21T20:04:05Z</time>
        <name>WPT.955</name>
      </trkpt>
      <trkpt lat="35.838666280" lon="-105.617024110">
        <ele>2882.600</ele>
        <time>2020-05-21T20:04:09Z</time>
        <name>WPT.956</name>
      </trkpt>
      <trkpt lat="35.838636790" lon="-105.617063090">
        <ele>2882.000</ele>
        <time>2020-05-21T20:04:13Z</time>
        <name>WPT.957</name>
      </trkpt>
      <trkpt lat="35.838627740" lon="-105.617117210">
        <ele>2880.200</ele>
        <time>2020-05-21T20:04:18Z</time>
        <name>WPT.958</name>
      </trkpt>
      <trkpt lat="35.838596320" lon="-105.617153110">
        <ele>2882.100</ele>
        <time>2020-05-21T20:04:23Z</time>
        <name>WPT.959</name>
      </trkpt>
      <trkpt lat="35.838561190" lon="-105.617175660">
        <ele>2883.900</ele>
        <time>2020-05-21T20:04:26Z</time>
        <name>WPT.960</name>
      </trkpt>
      <trkpt lat="35.838549400" lon="-105.617224430">
        <ele>2882.600</ele>
        <time>2020-05-21T20:04:29Z</time>
        <name>WPT.961</name>
      </trkpt>
      <trkpt lat="35.838522840" lon="-105.617260560">
        <ele>2884.000</ele>
        <time>2020-05-21T20:04:33Z</time>
        <name>WPT.962</name>
      </trkpt>
      <trkpt lat="35.838485830" lon="-105.617249420">
        <ele>2882.600</ele>
        <time>2020-05-21T20:04:37Z</time>
        <name>WPT.963</name>
      </trkpt>
      <trkpt lat="35.838447650" lon="-105.617251130">
        <ele>2881.000</ele>
        <time>2020-05-21T20:04:41Z</time>
        <name>WPT.964</name>
      </trkpt>
      <trkpt lat="35.838410130" lon="-105.617244650">
        <ele>2879.900</ele>
        <time>2020-05-21T20:04:45Z</time>
        <name>WPT.965</name>
      </trkpt>
      <trkpt lat="35.838376300" lon="-105.617276060">
        <ele>2880.000</ele>
        <time>2020-05-21T20:04:50Z</time>
        <name>WPT.966</name>
      </trkpt>
      <trkpt lat="35.838336800" lon="-105.617277370">
        <ele>2881.900</ele>
        <time>2020-05-21T20:04:54Z</time>
        <name>WPT.967</name>
      </trkpt>
      <trkpt lat="35.838291760" lon="-105.617291770">
        <ele>2881.400</ele>
        <time>2020-05-21T20:04:59Z</time>
        <name>WPT.968</name>
      </trkpt>
      <trkpt lat="35.838259610" lon="-105.617320680">
        <ele>2881.700</ele>
        <time>2020-05-21T20:05:03Z</time>
        <name>WPT.969</name>
      </trkpt>
      <trkpt lat="35.838217240" lon="-105.617328570">
        <ele>2880.500</ele>
        <time>2020-05-21T20:05:08Z</time>
        <name>WPT.970</name>
      </trkpt>
      <trkpt lat="35.838180100" lon="-105.617339310">
        <ele>2879.000</ele>
        <time>2020-05-21T20:05:12Z</time>
        <name>WPT.971</name>
      </trkpt>
      <trkpt lat="35.838148560" lon="-105.617377110">
        <ele>2878.400</ele>
        <time>2020-05-21T20:05:16Z</time>
        <name>WPT.972</name>
      </trkpt>
      <trkpt lat="35.838112990" lon="-105.617398320">
        <ele>2879.300</ele>
        <time>2020-05-21T20:05:20Z</time>
        <name>WPT.973</name>
      </trkpt>
      <trkpt lat="35.838067650" lon="-105.617397480">
        <ele>2882.600</ele>
        <time>2020-05-21T20:05:24Z</time>
        <name>WPT.974</name>
      </trkpt>
      <trkpt lat="35.838036870" lon="-105.617425670">
        <ele>2879.900</ele>
        <time>2020-05-21T20:05:28Z</time>
        <name>WPT.975</name>
      </trkpt>
      <trkpt lat="35.837999740" lon="-105.617450990">
        <ele>2880.300</ele>
        <time>2020-05-21T20:05:32Z</time>
        <name>WPT.976</name>
      </trkpt>
      <trkpt lat="35.837985650" lon="-105.617492280">
        <ele>2877.000</ele>
        <time>2020-05-21T20:05:40Z</time>
        <name>WPT.977</name>
      </trkpt>
      <trkpt lat="35.837948900" lon="-105.617507420">
        <ele>2877.200</ele>
        <time>2020-05-21T20:05:46Z</time>
        <name>WPT.978</name>
      </trkpt>
      <trkpt lat="35.837918760" lon="-105.617533760">
        <ele>2875.000</ele>
        <time>2020-05-21T20:05:50Z</time>
        <name>WPT.979</name>
      </trkpt>
      <trkpt lat="35.837891120" lon="-105.617564470">
        <ele>2874.500</ele>
        <time>2020-05-21T20:05:54Z</time>
        <name>WPT.980</name>
      </trkpt>
      <trkpt lat="35.837859930" lon="-105.617597840">
        <ele>2873.700</ele>
        <time>2020-05-21T20:05:58Z</time>
        <name>WPT.981</name>
      </trkpt>
      <trkpt lat="35.837821430" lon="-105.617626270">
        <ele>2874.800</ele>
        <time>2020-05-21T20:06:02Z</time>
        <name>WPT.982</name>
      </trkpt>
      <trkpt lat="35.837787270" lon="-105.617653980">
        <ele>2874.000</ele>
        <time>2020-05-21T20:06:06Z</time>
        <name>WPT.983</name>
      </trkpt>
      <trkpt lat="35.837744430" lon="-105.617669220">
        <ele>2872.600</ele>
        <time>2020-05-21T20:06:10Z</time>
        <name>WPT.984</name>
      </trkpt>
      <trkpt lat="35.837706480" lon="-105.617656010">
        <ele>2875.000</ele>
        <time>2020-05-21T20:06:15Z</time>
        <name>WPT.985</name>
      </trkpt>
      <trkpt lat="35.837668080" lon="-105.617650810">
        <ele>2876.700</ele>
        <time>2020-05-21T20:06:19Z</time>
        <name>WPT.986</name>
      </trkpt>
      <trkpt lat="35.837626630" lon="-105.617672470">
        <ele>2878.100</ele>
        <time>2020-05-21T20:06:22Z</time>
        <name>WPT.987</name>
      </trkpt>
      <trkpt lat="35.837601700" lon="-105.617706060">
        <ele>2876.900</ele>
        <time>2020-05-21T20:06:25Z</time>
        <name>WPT.988</name>
      </trkpt>
      <trkpt lat="35.837565210" lon="-105.617742220">
        <ele>2876.500</ele>
        <time>2020-05-21T20:06:29Z</time>
        <name>WPT.989</name>
      </trkpt>
      <trkpt lat="35.837534620" lon="-105.617772130">
        <ele>2874.200</ele>
        <time>2020-05-21T20:06:33Z</time>
        <name>WPT.990</name>
      </trkpt>
      <trkpt lat="35.837496570" lon="-105.617789690">
        <ele>2876.300</ele>
        <time>2020-05-21T20:06:37Z</time>
        <name>WPT.991</name>
      </trkpt>
      <trkpt lat="35.837453480" lon="-105.617801680">
        <ele>2875.700</ele>
        <time>2020-05-21T20:06:42Z</time>
        <name>WPT.992</name>
      </trkpt>
      <trkpt lat="35.837412280" lon="-105.617820080">
        <ele>2876.200</ele>
        <time>2020-05-21T20:06:46Z</time>
        <name>WPT.993</name>
      </trkpt>
      <trkpt lat="35.837374190" lon="-105.617829800">
        <ele>2877.000</ele>
        <time>2020-05-21T20:06:50Z</time>
        <name>WPT.994</name>
      </trkpt>
      <trkpt lat="35.837331540" lon="-105.617847190">
        <ele>2876.200</ele>
        <time>2020-05-21T20:06:55Z</time>
        <name>WPT.995</name>
      </trkpt>
      <trkpt lat="35.837297760" lon="-105.617874120">
        <ele>2874.200</ele>
        <time>2020-05-21T20:06:59Z</time>
        <name>WPT.996</name>
      </trkpt>
      <trkpt lat="35.837259460" lon="-105.617886160">
        <ele>2874.800</ele>
        <time>2020-05-21T20:07:02Z</time>
        <name>WPT.997</name>
      </trkpt>
      <trkpt lat="35.837231860" lon="-105.617918070">
        <ele>2874.700</ele>
        <time>2020-05-21T20:07:05Z</time>
        <name>WPT.998</name>
      </trkpt>
      <trkpt lat="35.837206000" lon="-105.617960770">
        <ele>2874.200</ele>
        <time>2020-05-21T20:07:09Z</time>
        <name>WPT.999</name>
      </trkpt>
      <trkpt lat="35.837183300" lon="-105.618008080">
        <ele>2872.700</ele>
        <time>2020-05-21T20:07:13Z</time>
        <name>WPT.1000</name>
      </trkpt>
      <trkpt lat="35.837154270" lon="-105.618036470">
        <ele>2872.700</ele>
        <time>2020-05-21T20:07:17Z</time>
        <name>WPT.1001</name>
      </trkpt>
      <trkpt lat="35.837120490" lon="-105.618064500">
        <ele>2872.800</ele>
        <time>2020-05-21T20:07:21Z</time>
        <name>WPT.1002</name>
      </trkpt>
      <trkpt lat="35.837080170" lon="-105.618067790">
        <ele>2873.800</ele>
        <time>2020-05-21T20:07:26Z</time>
        <name>WPT.1003</name>
      </trkpt>
      <trkpt lat="35.837036690" lon="-105.618088050">
        <ele>2872.800</ele>
        <time>2020-05-21T20:07:30Z</time>
        <name>WPT.1004</name>
      </trkpt>
      <trkpt lat="35.837009830" lon="-105.618125210">
        <ele>2870.700</ele>
        <time>2020-05-21T20:07:34Z</time>
        <name>WPT.1005</name>
      </trkpt>
      <trkpt lat="35.836984590" lon="-105.618168630">
        <ele>2869.900</ele>
        <time>2020-05-21T20:07:39Z</time>
        <name>WPT.1006</name>
      </trkpt>
      <trkpt lat="35.836953410" lon="-105.618200250">
        <ele>2869.700</ele>
        <time>2020-05-21T20:07:43Z</time>
        <name>WPT.1007</name>
      </trkpt>
      <trkpt lat="35.836925350" lon="-105.618230640">
        <ele>2869.200</ele>
        <time>2020-05-21T20:07:47Z</time>
        <name>WPT.1008</name>
      </trkpt>
      <trkpt lat="35.836884300" lon="-105.618247870">
        <ele>2870.000</ele>
        <time>2020-05-21T20:07:52Z</time>
        <name>WPT.1009</name>
      </trkpt>
      <trkpt lat="35.836843380" lon="-105.618274100">
        <ele>2869.100</ele>
        <time>2020-05-21T20:07:57Z</time>
        <name>WPT.1010</name>
      </trkpt>
      <trkpt lat="35.836799510" lon="-105.618289160">
        <ele>2870.300</ele>
        <time>2020-05-21T20:08:01Z</time>
        <name>WPT.1011</name>
      </trkpt>
      <trkpt lat="35.836764470" lon="-105.618307720">
        <ele>2870.100</ele>
        <time>2020-05-21T20:08:05Z</time>
        <name>WPT.1012</name>
      </trkpt>
      <trkpt lat="35.836729960" lon="-105.618327410">
        <ele>2870.500</ele>
        <time>2020-05-21T20:08:09Z</time>
        <name>WPT.1013</name>
      </trkpt>
      <trkpt lat="35.836695700" lon="-105.618361810">
        <ele>2869.800</ele>
        <time>2020-05-21T20:08:14Z</time>
        <name>WPT.1014</name>
      </trkpt>
      <trkpt lat="35.836662170" lon="-105.618384380">
        <ele>2870.300</ele>
        <time>2020-05-21T20:08:17Z</time>
        <name>WPT.1015</name>
      </trkpt>
      <trkpt lat="35.836632090" lon="-105.618412750">
        <ele>2871.700</ele>
        <time>2020-05-21T20:08:22Z</time>
        <name>WPT.1016</name>
      </trkpt>
      <trkpt lat="35.836621040" lon="-105.618463040">
        <ele>2870.400</ele>
        <time>2020-05-21T20:08:29Z</time>
        <name>WPT.1017</name>
      </trkpt>
      <trkpt lat="35.836596530" lon="-105.618502180">
        <ele>2870.500</ele>
        <time>2020-05-21T20:08:33Z</time>
        <name>WPT.1018</name>
      </trkpt>
      <trkpt lat="35.836559690" lon="-105.618540320">
        <ele>2871.900</ele>
        <time>2020-05-21T20:08:37Z</time>
        <name>WPT.1019</name>
      </trkpt>
      <trkpt lat="35.836521480" lon="-105.618560210">
        <ele>2872.600</ele>
        <time>2020-05-21T20:08:41Z</time>
        <name>WPT.1020</name>
      </trkpt>
      <trkpt lat="35.836489480" lon="-105.618587960">
        <ele>2872.000</ele>
        <time>2020-05-21T20:08:47Z</time>
        <name>WPT.1021</name>
      </trkpt>
      <trkpt lat="35.836450060" lon="-105.618596710">
        <ele>2872.400</ele>
        <time>2020-05-21T20:08:52Z</time>
        <name>WPT.1022</name>
      </trkpt>
      <trkpt lat="35.836414990" lon="-105.618616280">
        <ele>2873.100</ele>
        <time>2020-05-21T20:08:59Z</time>
        <name>WPT.1023</name>
      </trkpt>
      <trkpt lat="35.836386010" lon="-105.618647730">
        <ele>2871.800</ele>
        <time>2020-05-21T20:09:20Z</time>
        <name>WPT.1024</name>
      </trkpt>
      <trkpt lat="35.836345370" lon="-105.618637660">
        <ele>2873.200</ele>
        <time>2020-05-21T20:09:27Z</time>
        <name>WPT.1025</name>
      </trkpt>
      <trkpt lat="35.836306030" lon="-105.618633000">
        <ele>2875.900</ele>
        <time>2020-05-21T20:09:33Z</time>
        <name>WPT.1026</name>
      </trkpt>
      <trkpt lat="35.836265370" lon="-105.618632880">
        <ele>2875.500</ele>
        <time>2020-05-21T20:09:37Z</time>
        <name>WPT.1027</name>
      </trkpt>
      <trkpt lat="35.836226000" lon="-105.618633990">
        <ele>2875.200</ele>
        <time>2020-05-21T20:09:40Z</time>
        <name>WPT.1028</name>
      </trkpt>
      <trkpt lat="35.836185080" lon="-105.618635390">
        <ele>2876.700</ele>
        <time>2020-05-21T20:09:44Z</time>
        <name>WPT.1029</name>
      </trkpt>
      <trkpt lat="35.836136940" lon="-105.618648850">
        <ele>2878.700</ele>
        <time>2020-05-21T20:09:48Z</time>
        <name>WPT.1030</name>
      </trkpt>
      <trkpt lat="35.836094160" lon="-105.618672600">
        <ele>2879.400</ele>
        <time>2020-05-21T20:09:52Z</time>
        <name>WPT.1031</name>
      </trkpt>
      <trkpt lat="35.836071980" lon="-105.618723070">
        <ele>2878.200</ele>
        <time>2020-05-21T20:09:55Z</time>
        <name>WPT.1032</name>
      </trkpt>
      <trkpt lat="35.836049980" lon="-105.618758420">
        <ele>2878.900</ele>
        <time>2020-05-21T20:09:58Z</time>
        <name>WPT.1033</name>
      </trkpt>
      <trkpt lat="35.836029710" lon="-105.618795870">
        <ele>2879.400</ele>
        <time>2020-05-21T20:10:02Z</time>
        <name>WPT.1034</name>
      </trkpt>
      <trkpt lat="35.836015460" lon="-105.618841360">
        <ele>2878.400</ele>
        <time>2020-05-21T20:10:06Z</time>
        <name>WPT.1035</name>
      </trkpt>
      <trkpt lat="35.835988410" lon="-105.618876530">
        <ele>2878.200</ele>
        <time>2020-05-21T20:10:10Z</time>
        <name>WPT.1036</name>
      </trkpt>
      <trkpt lat="35.835953820" lon="-105.618896530">
        <ele>2879.200</ele>
        <time>2020-05-21T20:10:18Z</time>
        <name>WPT.1037</name>
      </trkpt>
      <trkpt lat="35.835942080" lon="-105.618939020">
        <ele>2877.900</ele>
        <time>2020-05-21T20:10:22Z</time>
        <name>WPT.1038</name>
      </trkpt>
      <trkpt lat="35.835937800" lon="-105.618988950">
        <ele>2876.900</ele>
        <time>2020-05-21T20:10:26Z</time>
        <name>WPT.1039</name>
      </trkpt>
      <trkpt lat="35.835923000" lon="-105.619030730">
        <ele>2875.800</ele>
        <time>2020-05-21T20:10:51Z</time>
        <name>WPT.1040</name>
      </trkpt>
      <trkpt lat="35.835880530" lon="-105.619041640">
        <ele>2877.800</ele>
        <time>2020-05-21T20:10:56Z</time>
        <name>WPT.1041</name>
      </trkpt>
      <trkpt lat="35.835842330" lon="-105.619056710">
        <ele>2877.900</ele>
        <time>2020-05-21T20:11:01Z</time>
        <name>WPT.1042</name>
      </trkpt>
      <trkpt lat="35.835799570" lon="-105.619055260">
        <ele>2879.400</ele>
        <time>2020-05-21T20:11:05Z</time>
        <name>WPT.1043</name>
      </trkpt>
      <trkpt lat="35.835758130" lon="-105.619066330">
        <ele>2877.600</ele>
        <time>2020-05-21T20:11:09Z</time>
        <name>WPT.1044</name>
      </trkpt>
      <trkpt lat="35.835724330" lon="-105.619086280">
        <ele>2877.400</ele>
        <time>2020-05-21T20:11:12Z</time>
        <name>WPT.1045</name>
      </trkpt>
      <trkpt lat="35.835683690" lon="-105.619073760">
        <ele>2879.200</ele>
        <time>2020-05-21T20:11:16Z</time>
        <name>WPT.1046</name>
      </trkpt>
      <trkpt lat="35.835643220" lon="-105.619067580">
        <ele>2880.100</ele>
        <time>2020-05-21T20:11:20Z</time>
        <name>WPT.1047</name>
      </trkpt>
      <trkpt lat="35.835623730" lon="-105.619104980">
        <ele>2881.000</ele>
        <time>2020-05-21T20:11:25Z</time>
        <name>WPT.1048</name>
      </trkpt>
      <trkpt lat="35.835597450" lon="-105.619144170">
        <ele>2880.800</ele>
        <time>2020-05-21T20:11:29Z</time>
        <name>WPT.1049</name>
      </trkpt>
      <trkpt lat="35.835576940" lon="-105.619186040">
        <ele>2878.100</ele>
        <time>2020-05-21T20:11:33Z</time>
        <name>WPT.1050</name>
      </trkpt>
      <trkpt lat="35.835542810" lon="-105.619210760">
        <ele>2879.400</ele>
        <time>2020-05-21T20:11:37Z</time>
        <name>WPT.1051</name>
      </trkpt>
      <trkpt lat="35.835504690" lon="-105.619197030">
        <ele>2879.800</ele>
        <time>2020-05-21T20:11:41Z</time>
        <name>WPT.1052</name>
      </trkpt>
      <trkpt lat="35.835467450" lon="-105.619199820">
        <ele>2880.300</ele>
        <time>2020-05-21T20:11:45Z</time>
        <name>WPT.1053</name>
      </trkpt>
      <trkpt lat="35.835427530" lon="-105.619188950">
        <ele>2881.300</ele>
        <time>2020-05-21T20:11:49Z</time>
        <name>WPT.1054</name>
      </trkpt>
      <trkpt lat="35.835390550" lon="-105.619189070">
        <ele>2880.800</ele>
        <time>2020-05-21T20:11:53Z</time>
        <name>WPT.1055</name>
      </trkpt>
      <trkpt lat="35.835364270" lon="-105.619221230">
        <ele>2879.800</ele>
        <time>2020-05-21T20:11:57Z</time>
        <name>WPT.1056</name>
      </trkpt>
      <trkpt lat="35.835320760" lon="-105.619207250">
        <ele>2881.600</ele>
        <time>2020-05-21T20:12:03Z</time>
        <name>WPT.1057</name>
      </trkpt>
      <trkpt lat="35.835279930" lon="-105.619212360">
        <ele>2882.600</ele>
        <time>2020-05-21T20:12:08Z</time>
        <name>WPT.1058</name>
      </trkpt>
      <trkpt lat="35.835242690" lon="-105.619233060">
        <ele>2883.400</ele>
        <time>2020-05-21T20:12:13Z</time>
        <name>WPT.1059</name>
      </trkpt>
      <trkpt lat="35.835208120" lon="-105.619261420">
        <ele>2884.800</ele>
        <time>2020-05-21T20:12:18Z</time>
        <name>WPT.1060</name>
      </trkpt>
      <trkpt lat="35.835181010" lon="-105.619290630">
        <ele>2883.800</ele>
        <time>2020-05-21T20:12:22Z</time>
        <name>WPT.1061</name>
      </trkpt>
      <trkpt lat="35.835153540" lon="-105.619330720">
        <ele>2883.400</ele>
        <time>2020-05-21T20:12:26Z</time>
        <name>WPT.1062</name>
      </trkpt>
      <trkpt lat="35.835125000" lon="-105.619360470">
        <ele>2883.500</ele>
        <time>2020-05-21T20:12:30Z</time>
        <name>WPT.1063</name>
      </trkpt>
      <trkpt lat="35.835105920" lon="-105.619402220">
        <ele>2883.300</ele>
        <time>2020-05-21T20:12:43Z</time>
        <name>WPT.1064</name>
      </trkpt>
      <trkpt lat="35.835076200" lon="-105.619431990">
        <ele>2883.500</ele>
        <time>2020-05-21T20:12:47Z</time>
        <name>WPT.1065</name>
      </trkpt>
      <trkpt lat="35.835046900" lon="-105.619462990">
        <ele>2883.600</ele>
        <time>2020-05-21T20:12:52Z</time>
        <name>WPT.1066</name>
      </trkpt>
      <trkpt lat="35.835014110" lon="-105.619488330">
        <ele>2883.600</ele>
        <time>2020-05-21T20:12:56Z</time>
        <name>WPT.1067</name>
      </trkpt>
      <trkpt lat="35.834979150" lon="-105.619501920">
        <ele>2884.600</ele>
        <time>2020-05-21T20:13:00Z</time>
        <name>WPT.1068</name>
      </trkpt>
      <trkpt lat="35.834936510" lon="-105.619512650">
        <ele>2885.600</ele>
        <time>2020-05-21T20:13:06Z</time>
        <name>WPT.1069</name>
      </trkpt>
      <trkpt lat="35.834895210" lon="-105.619533780">
        <ele>2883.600</ele>
        <time>2020-05-21T20:13:12Z</time>
        <name>WPT.1070</name>
      </trkpt>
      <trkpt lat="35.834856610" lon="-105.619547130">
        <ele>2885.500</ele>
        <time>2020-05-21T20:13:18Z</time>
        <name>WPT.1071</name>
      </trkpt>
      <trkpt lat="35.834820170" lon="-105.619546340">
        <ele>2886.900</ele>
        <time>2020-05-21T20:13:23Z</time>
        <name>WPT.1072</name>
      </trkpt>
      <trkpt lat="35.834778470" lon="-105.619542390">
        <ele>2888.200</ele>
        <time>2020-05-21T20:13:28Z</time>
        <name>WPT.1073</name>
      </trkpt>
      <trkpt lat="35.834741640" lon="-105.619553970">
        <ele>2887.900</ele>
        <time>2020-05-21T20:13:34Z</time>
        <name>WPT.1074</name>
      </trkpt>
      <trkpt lat="35.834705610" lon="-105.619559620">
        <ele>2888.400</ele>
        <time>2020-05-21T20:13:41Z</time>
        <name>WPT.1075</name>
      </trkpt>
      <trkpt lat="35.834681920" lon="-105.619594720">
        <ele>2887.900</ele>
        <time>2020-05-21T20:13:57Z</time>
        <name>WPT.1076</name>
      </trkpt>
      <trkpt lat="35.834672320" lon="-105.619641750">
        <ele>2884.900</ele>
        <time>2020-05-21T20:14:00Z</time>
        <name>WPT.1077</name>
      </trkpt>
      <trkpt lat="35.834656280" lon="-105.619686980">
        <ele>2884.800</ele>
        <time>2020-05-21T20:14:05Z</time>
        <name>WPT.1078</name>
      </trkpt>
      <trkpt lat="35.834652240" lon="-105.619736920">
        <ele>2881.800</ele>
        <time>2020-05-21T20:14:09Z</time>
        <name>WPT.1079</name>
      </trkpt>
      <trkpt lat="35.834626040" lon="-105.619780730">
        <ele>2882.600</ele>
        <time>2020-05-21T20:14:13Z</time>
        <name>WPT.1080</name>
      </trkpt>
      <trkpt lat="35.834618120" lon="-105.619832070">
        <ele>2882.300</ele>
        <time>2020-05-21T20:14:17Z</time>
        <name>WPT.1081</name>
      </trkpt>
      <trkpt lat="35.834603990" lon="-105.619877310">
        <ele>2882.000</ele>
        <time>2020-05-21T20:14:21Z</time>
        <name>WPT.1082</name>
      </trkpt>
      <trkpt lat="35.834571570" lon="-105.619911930">
        <ele>2880.300</ele>
        <time>2020-05-21T20:14:26Z</time>
        <name>WPT.1083</name>
      </trkpt>
      <trkpt lat="35.834529960" lon="-105.619930780">
        <ele>2881.600</ele>
        <time>2020-05-21T20:14:30Z</time>
        <name>WPT.1084</name>
      </trkpt>
      <trkpt lat="35.834507230" lon="-105.619969170">
        <ele>2882.700</ele>
        <time>2020-05-21T20:14:36Z</time>
        <name>WPT.1085</name>
      </trkpt>
      <trkpt lat="35.834492170" lon="-105.620013330">
        <ele>2880.300</ele>
        <time>2020-05-21T20:14:41Z</time>
        <name>WPT.1086</name>
      </trkpt>
      <trkpt lat="35.834471650" lon="-105.620054230">
        <ele>2882.000</ele>
        <time>2020-05-21T20:14:52Z</time>
        <name>WPT.1087</name>
      </trkpt>
      <trkpt lat="35.834445400" lon="-105.620093670">
        <ele>2881.400</ele>
        <time>2020-05-21T20:14:57Z</time>
        <name>WPT.1088</name>
      </trkpt>
      <trkpt lat="35.834416170" lon="-105.620121820">
        <ele>2881.800</ele>
        <time>2020-05-21T20:15:02Z</time>
        <name>WPT.1089</name>
      </trkpt>
      <trkpt lat="35.834417030" lon="-105.620171940">
        <ele>2880.200</ele>
        <time>2020-05-21T20:15:36Z</time>
        <name>WPT.1090</name>
      </trkpt>
      <trkpt lat="35.834405950" lon="-105.620226230">
        <ele>2879.600</ele>
        <time>2020-05-21T20:15:42Z</time>
        <name>WPT.1091</name>
      </trkpt>
      <trkpt lat="35.834393340" lon="-105.620274130">
        <ele>2879.900</ele>
        <time>2020-05-21T20:15:47Z</time>
        <name>WPT.1092</name>
      </trkpt>
      <trkpt lat="35.834367960" lon="-105.620317160">
        <ele>2880.300</ele>
        <time>2020-05-21T20:15:53Z</time>
        <name>WPT.1093</name>
      </trkpt>
      <trkpt lat="35.834345110" lon="-105.620355480">
        <ele>2880.800</ele>
        <time>2020-05-21T20:15:59Z</time>
        <name>WPT.1094</name>
      </trkpt>
      <trkpt lat="35.834332080" lon="-105.620398250">
        <ele>2881.700</ele>
        <time>2020-05-21T20:16:04Z</time>
        <name>WPT.1095</name>
      </trkpt>
      <trkpt lat="35.834318220" lon="-105.620440320">
        <ele>2882.700</ele>
        <time>2020-05-21T20:16:28Z</time>
        <name>WPT.1096</name>
      </trkpt>
      <trkpt lat="35.834333210" lon="-105.620483900">
        <ele>2884.400</ele>
        <time>2020-05-21T20:16:39Z</time>
        <name>WPT.1097</name>
      </trkpt>
      <trkpt lat="35.834354020" lon="-105.620524940">
        <ele>2885.700</ele>
        <time>2020-05-21T20:16:47Z</time>
        <name>WPT.1098</name>
      </trkpt>
      <trkpt lat="35.834367240" lon="-105.620568330">
        <ele>2886.600</ele>
        <time>2020-05-21T20:16:53Z</time>
        <name>WPT.1099</name>
      </trkpt>
      <trkpt lat="35.834390570" lon="-105.620604510">
        <ele>2887.800</ele>
        <time>2020-05-21T20:18:29Z</time>
        <name>WPT.1100</name>
      </trkpt>
      <trkpt lat="35.834384380" lon="-105.620653830">
        <ele>2888.600</ele>
        <time>2020-05-21T20:19:03Z</time>
        <name>WPT.1101</name>
      </trkpt>
      <trkpt lat="35.834359800" lon="-105.620686980">
        <ele>2888.100</ele>
        <time>2020-05-21T20:19:13Z</time>
        <name>WPT.1102</name>
      </trkpt>
      <trkpt lat="35.834339570" lon="-105.620727630">
        <ele>2887.900</ele>
        <time>2020-05-21T20:19:17Z</time>
        <name>WPT.1103</name>
      </trkpt>
      <trkpt lat="35.834329400" lon="-105.620770400">
        <ele>2887.700</ele>
        <time>2020-05-21T20:19:21Z</time>
        <name>WPT.1104</name>
      </trkpt>
      <trkpt lat="35.834303850" lon="-105.620808720">
        <ele>2887.900</ele>
        <time>2020-05-21T20:19:29Z</time>
        <name>WPT.1105</name>
      </trkpt>
      <trkpt lat="35.834337950" lon="-105.620781750">
        <ele>2888.300</ele>
        <time>2020-05-21T20:20:05Z</time>
        <name>WPT.1106</name>
      </trkpt>
      <trkpt lat="35.834378180" lon="-105.620789140">
        <ele>2888.200</ele>
        <time>2020-05-21T20:20:13Z</time>
        <name>WPT.1107</name>
      </trkpt>
      <trkpt lat="35.834341350" lon="-105.620803660">
        <ele>2887.500</ele>
        <time>2020-05-21T20:22:45Z</time>
        <name>WPT.1108</name>
      </trkpt>
      <trkpt lat="35.834303640" lon="-105.620804410">
        <ele>2887.500</ele>
        <time>2020-05-21T20:22:50Z</time>
        <name>WPT.1109</name>
      </trkpt>
      <trkpt lat="35.834262320" lon="-105.620816560">
        <ele>2887.600</ele>
        <time>2020-05-21T20:22:56Z</time>
        <name>WPT.1110</name>
      </trkpt>
      <trkpt lat="35.834224560" lon="-105.620844500">
        <ele>2887.500</ele>
        <time>2020-05-21T20:23:01Z</time>
        <name>WPT.1111</name>
      </trkpt>
      <trkpt lat="35.834189930" lon="-105.620870590">
        <ele>2888.000</ele>
        <time>2020-05-21T20:23:16Z</time>
        <name>WPT.1112</name>
      </trkpt>
      <trkpt lat="35.834158650" lon="-105.620906120">
        <ele>2889.000</ele>
        <time>2020-05-21T20:23:34Z</time>
        <name>WPT.1113</name>
      </trkpt>
      <trkpt lat="35.834145110" lon="-105.620951140">
        <ele>2888.600</ele>
        <time>2020-05-21T20:23:39Z</time>
        <name>WPT.1114</name>
      </trkpt>
      <trkpt lat="35.834155140" lon="-105.621002300">
        <ele>2887.800</ele>
        <time>2020-05-21T20:23:43Z</time>
        <name>WPT.1115</name>
      </trkpt>
      <trkpt lat="35.834147780" lon="-105.621053440">
        <ele>2888.000</ele>
        <time>2020-05-21T20:23:48Z</time>
        <name>WPT.1116</name>
      </trkpt>
      <trkpt lat="35.834138230" lon="-105.621101570">
        <ele>2888.300</ele>
        <time>2020-05-21T20:23:52Z</time>
        <name>WPT.1117</name>
      </trkpt>
      <trkpt lat="35.834115110" lon="-105.621145430">
        <ele>2890.200</ele>
        <time>2020-05-21T20:23:57Z</time>
        <name>WPT.1118</name>
      </trkpt>
      <trkpt lat="35.834089120" lon="-105.621182510">
        <ele>2891.600</ele>
        <time>2020-05-21T20:24:02Z</time>
        <name>WPT.1119</name>
      </trkpt>
      <trkpt lat="35.834090090" lon="-105.621227170">
        <ele>2893.500</ele>
        <time>2020-05-21T20:24:10Z</time>
        <name>WPT.1120</name>
      </trkpt>
      <trkpt lat="35.834079890" lon="-105.621276940">
        <ele>2894.000</ele>
        <time>2020-05-21T20:24:15Z</time>
        <name>WPT.1121</name>
      </trkpt>
      <trkpt lat="35.834054630" lon="-105.621309760">
        <ele>2894.200</ele>
        <time>2020-05-21T20:24:19Z</time>
        <name>WPT.1122</name>
      </trkpt>
      <trkpt lat="35.834028500" lon="-105.621346540">
        <ele>2894.800</ele>
        <time>2020-05-21T20:24:23Z</time>
        <name>WPT.1123</name>
      </trkpt>
      <trkpt lat="35.833995790" lon="-105.621378900">
        <ele>2895.800</ele>
        <time>2020-05-21T20:24:28Z</time>
        <name>WPT.1124</name>
      </trkpt>
      <trkpt lat="35.833970680" lon="-105.621419170">
        <ele>2896.300</ele>
        <time>2020-05-21T20:24:32Z</time>
        <name>WPT.1125</name>
      </trkpt>
      <trkpt lat="35.833954230" lon="-105.621465380">
        <ele>2895.100</ele>
        <time>2020-05-21T20:24:36Z</time>
        <name>WPT.1126</name>
      </trkpt>
      <trkpt lat="35.833929960" lon="-105.621500080">
        <ele>2895.200</ele>
        <time>2020-05-21T20:24:41Z</time>
        <name>WPT.1127</name>
      </trkpt>
      <trkpt lat="35.833902240" lon="-105.621530550">
        <ele>2894.200</ele>
        <time>2020-05-21T20:24:48Z</time>
        <name>WPT.1128</name>
      </trkpt>
      <trkpt lat="35.833864470" lon="-105.621559070">
        <ele>2894.300</ele>
        <time>2020-05-21T20:24:54Z</time>
        <name>WPT.1129</name>
      </trkpt>
      <trkpt lat="35.833863920" lon="-105.621603700">
        <ele>2895.500</ele>
        <time>2020-05-21T20:25:05Z</time>
        <name>WPT.1130</name>
      </trkpt>
      <trkpt lat="35.833830870" lon="-105.621632930">
        <ele>2894.100</ele>
        <time>2020-05-21T20:25:36Z</time>
        <name>WPT.1131</name>
      </trkpt>
      <trkpt lat="35.833796160" lon="-105.621649140">
        <ele>2894.300</ele>
        <time>2020-05-21T20:25:43Z</time>
        <name>WPT.1132</name>
      </trkpt>
      <trkpt lat="35.833759520" lon="-105.621667030">
        <ele>2894.600</ele>
        <time>2020-05-21T20:25:47Z</time>
        <name>WPT.1133</name>
      </trkpt>
      <trkpt lat="35.833734700" lon="-105.621704710">
        <ele>2893.900</ele>
        <time>2020-05-21T20:25:52Z</time>
        <name>WPT.1134</name>
      </trkpt>
      <trkpt lat="35.833705400" lon="-105.621731200">
        <ele>2894.000</ele>
        <time>2020-05-21T20:25:56Z</time>
        <name>WPT.1135</name>
      </trkpt>
      <trkpt lat="35.833678290" lon="-105.621765200">
        <ele>2895.000</ele>
        <time>2020-05-21T20:26:00Z</time>
        <name>WPT.1136</name>
      </trkpt>
      <trkpt lat="35.833649480" lon="-105.621792710">
        <ele>2895.200</ele>
        <time>2020-05-21T20:26:04Z</time>
        <name>WPT.1137</name>
      </trkpt>
      <trkpt lat="35.833629170" lon="-105.621829290">
        <ele>2895.800</ele>
        <time>2020-05-21T20:26:09Z</time>
        <name>WPT.1138</name>
      </trkpt>
      <trkpt lat="35.833593450" lon="-105.621858320">
        <ele>2895.600</ele>
        <time>2020-05-21T20:26:14Z</time>
        <name>WPT.1139</name>
      </trkpt>
      <trkpt lat="35.833561850" lon="-105.621880500">
        <ele>2896.300</ele>
        <time>2020-05-21T20:26:18Z</time>
        <name>WPT.1140</name>
      </trkpt>
      <trkpt lat="35.833530490" lon="-105.621912480">
        <ele>2894.300</ele>
        <time>2020-05-21T20:26:23Z</time>
        <name>WPT.1141</name>
      </trkpt>
      <trkpt lat="35.833500790" lon="-105.621949520">
        <ele>2894.800</ele>
        <time>2020-05-21T20:26:27Z</time>
        <name>WPT.1142</name>
      </trkpt>
      <trkpt lat="35.833470600" lon="-105.621993430">
        <ele>2894.700</ele>
        <time>2020-05-21T20:26:31Z</time>
        <name>WPT.1143</name>
      </trkpt>
      <trkpt lat="35.833447950" lon="-105.622031810">
        <ele>2894.400</ele>
        <time>2020-05-21T20:26:36Z</time>
        <name>WPT.1144</name>
      </trkpt>
      <trkpt lat="35.833412290" lon="-105.622060100">
        <ele>2894.900</ele>
        <time>2020-05-21T20:26:44Z</time>
        <name>WPT.1145</name>
      </trkpt>
      <trkpt lat="35.833371800" lon="-105.622070580">
        <ele>2895.600</ele>
        <time>2020-05-21T20:26:48Z</time>
        <name>WPT.1146</name>
      </trkpt>
      <trkpt lat="35.833340740" lon="-105.622100050">
        <ele>2896.000</ele>
        <time>2020-05-21T20:26:52Z</time>
        <name>WPT.1147</name>
      </trkpt>
      <trkpt lat="35.833301420" lon="-105.622116980">
        <ele>2896.000</ele>
        <time>2020-05-21T20:26:56Z</time>
        <name>WPT.1148</name>
      </trkpt>
      <trkpt lat="35.833259040" lon="-105.622141990">
        <ele>2895.400</ele>
        <time>2020-05-21T20:27:01Z</time>
        <name>WPT.1149</name>
      </trkpt>
      <trkpt lat="35.833226770" lon="-105.622168000">
        <ele>2896.500</ele>
        <time>2020-05-21T20:27:05Z</time>
        <name>WPT.1150</name>
      </trkpt>
      <trkpt lat="35.833190900" lon="-105.622189210">
        <ele>2894.900</ele>
        <time>2020-05-21T20:27:20Z</time>
        <name>WPT.1151</name>
      </trkpt>
      <trkpt lat="35.833150060" lon="-105.622199470">
        <ele>2893.500</ele>
        <time>2020-05-21T20:27:25Z</time>
        <name>WPT.1152</name>
      </trkpt>
      <trkpt lat="35.833120060" lon="-105.622229510">
        <ele>2893.300</ele>
        <time>2020-05-21T20:27:29Z</time>
        <name>WPT.1153</name>
      </trkpt>
      <trkpt lat="35.833091020" lon="-105.622270020">
        <ele>2892.700</ele>
        <time>2020-05-21T20:27:33Z</time>
        <name>WPT.1154</name>
      </trkpt>
      <trkpt lat="35.833060750" lon="-105.622299520">
        <ele>2892.900</ele>
        <time>2020-05-21T20:27:37Z</time>
        <name>WPT.1155</name>
      </trkpt>
      <trkpt lat="35.833025670" lon="-105.622324330">
        <ele>2891.700</ele>
        <time>2020-05-21T20:27:41Z</time>
        <name>WPT.1156</name>
      </trkpt>
      <trkpt lat="35.832995660" lon="-105.622355280">
        <ele>2890.400</ele>
        <time>2020-05-21T20:27:45Z</time>
        <name>WPT.1157</name>
      </trkpt>
      <trkpt lat="35.832963390" lon="-105.622389330">
        <ele>2890.100</ele>
        <time>2020-05-21T20:27:50Z</time>
        <name>WPT.1158</name>
      </trkpt>
      <trkpt lat="35.832933130" lon="-105.622421720">
        <ele>2890.200</ele>
        <time>2020-05-21T20:27:55Z</time>
        <name>WPT.1159</name>
      </trkpt>
      <trkpt lat="35.832913860" lon="-105.622461700">
        <ele>2890.200</ele>
        <time>2020-05-21T20:28:02Z</time>
        <name>WPT.1160</name>
      </trkpt>
      <trkpt lat="35.832880730" lon="-105.622494280">
        <ele>2891.000</ele>
        <time>2020-05-21T20:28:07Z</time>
        <name>WPT.1161</name>
      </trkpt>
      <trkpt lat="35.832857840" lon="-105.622534800">
        <ele>2890.800</ele>
        <time>2020-05-21T20:28:11Z</time>
        <name>WPT.1162</name>
      </trkpt>
      <trkpt lat="35.832822200" lon="-105.622563700">
        <ele>2890.600</ele>
        <time>2020-05-21T20:28:16Z</time>
        <name>WPT.1163</name>
      </trkpt>
      <trkpt lat="35.832786730" lon="-105.622584290">
        <ele>2889.800</ele>
        <time>2020-05-21T20:28:20Z</time>
        <name>WPT.1164</name>
      </trkpt>
      <trkpt lat="35.832751920" lon="-105.622610760">
        <ele>2890.900</ele>
        <time>2020-05-21T20:28:25Z</time>
        <name>WPT.1165</name>
      </trkpt>
      <trkpt lat="35.832713460" lon="-105.622625420">
        <ele>2892.200</ele>
        <time>2020-05-21T20:28:29Z</time>
        <name>WPT.1166</name>
      </trkpt>
      <trkpt lat="35.832677980" lon="-105.622660290">
        <ele>2894.500</ele>
        <time>2020-05-21T20:28:34Z</time>
        <name>WPT.1167</name>
      </trkpt>
      <trkpt lat="35.832651730" lon="-105.622628920">
        <ele>2887.200</ele>
        <time>2020-05-21T20:28:57Z</time>
        <name>WPT.1168</name>
      </trkpt>
      <trkpt lat="35.832620620" lon="-105.622659980">
        <ele>2887.100</ele>
        <time>2020-05-21T20:29:08Z</time>
        <name>WPT.1169</name>
      </trkpt>
      <trkpt lat="35.832581070" lon="-105.622649290">
        <ele>2886.400</ele>
        <time>2020-05-21T20:29:14Z</time>
        <name>WPT.1170</name>
      </trkpt>
      <trkpt lat="35.832541540" lon="-105.622648960">
        <ele>2886.700</ele>
        <time>2020-05-21T20:29:20Z</time>
        <name>WPT.1171</name>
      </trkpt>
      <trkpt lat="35.832500560" lon="-105.622671010">
        <ele>2884.600</ele>
        <time>2020-05-21T20:29:25Z</time>
        <name>WPT.1172</name>
      </trkpt>
      <trkpt lat="35.832466040" lon="-105.622684980">
        <ele>2886.400</ele>
        <time>2020-05-21T20:29:29Z</time>
        <name>WPT.1173</name>
      </trkpt>
      <trkpt lat="35.832429010" lon="-105.622692190">
        <ele>2889.200</ele>
        <time>2020-05-21T20:29:35Z</time>
        <name>WPT.1174</name>
      </trkpt>
      <trkpt lat="35.832387370" lon="-105.622704120">
        <ele>2890.900</ele>
        <time>2020-05-21T20:29:41Z</time>
        <name>WPT.1175</name>
      </trkpt>
      <trkpt lat="35.832347900" lon="-105.622722920">
        <ele>2890.100</ele>
        <time>2020-05-21T20:29:47Z</time>
        <name>WPT.1176</name>
      </trkpt>
      <trkpt lat="35.832306380" lon="-105.622737880">
        <ele>2889.900</ele>
        <time>2020-05-21T20:29:52Z</time>
        <name>WPT.1177</name>
      </trkpt>
      <trkpt lat="35.832263870" lon="-105.622746040">
        <ele>2890.400</ele>
        <time>2020-05-21T20:29:56Z</time>
        <name>WPT.1178</name>
      </trkpt>
      <trkpt lat="35.832225360" lon="-105.622754010">
        <ele>2890.500</ele>
        <time>2020-05-21T20:30:00Z</time>
        <name>WPT.1179</name>
      </trkpt>
      <trkpt lat="35.832185430" lon="-105.622735050">
        <ele>2888.600</ele>
        <time>2020-05-21T20:30:08Z</time>
        <name>WPT.1180</name>
      </trkpt>
      <trkpt lat="35.832141590" lon="-105.622733620">
        <ele>2891.100</ele>
        <time>2020-05-21T20:30:14Z</time>
        <name>WPT.1181</name>
      </trkpt>
      <trkpt lat="35.832102570" lon="-105.622731770">
        <ele>2891.100</ele>
        <time>2020-05-21T20:30:19Z</time>
        <name>WPT.1182</name>
      </trkpt>
      <trkpt lat="35.832062740" lon="-105.622713760">
        <ele>2892.700</ele>
        <time>2020-05-21T20:30:24Z</time>
        <name>WPT.1183</name>
      </trkpt>
      <trkpt lat="35.832025280" lon="-105.622704860">
        <ele>2891.000</ele>
        <time>2020-05-21T20:30:30Z</time>
        <name>WPT.1184</name>
      </trkpt>
      <trkpt lat="35.831986750" lon="-105.622710470">
        <ele>2890.600</ele>
        <time>2020-05-21T20:30:34Z</time>
        <name>WPT.1185</name>
      </trkpt>
      <trkpt lat="35.831941430" lon="-105.622707430">
        <ele>2890.600</ele>
        <time>2020-05-21T20:30:38Z</time>
        <name>WPT.1186</name>
      </trkpt>
      <trkpt lat="35.831900730" lon="-105.622720700">
        <ele>2889.700</ele>
        <time>2020-05-21T20:30:42Z</time>
        <name>WPT.1187</name>
      </trkpt>
      <trkpt lat="35.831863070" lon="-105.622735140">
        <ele>2889.800</ele>
        <time>2020-05-21T20:30:46Z</time>
        <name>WPT.1188</name>
      </trkpt>
      <trkpt lat="35.831824700" lon="-105.622752900">
        <ele>2888.400</ele>
        <time>2020-05-21T20:30:50Z</time>
        <name>WPT.1189</name>
      </trkpt>
      <trkpt lat="35.831787410" lon="-105.622775570">
        <ele>2889.100</ele>
        <time>2020-05-21T20:30:54Z</time>
        <name>WPT.1190</name>
      </trkpt>
      <trkpt lat="35.831754440" lon="-105.622796840">
        <ele>2888.800</ele>
        <time>2020-05-21T20:30:57Z</time>
        <name>WPT.1191</name>
      </trkpt>
      <trkpt lat="35.831721600" lon="-105.622818180">
        <ele>2890.100</ele>
        <time>2020-05-21T20:31:01Z</time>
        <name>WPT.1192</name>
      </trkpt>
      <trkpt lat="35.831681230" lon="-105.622826880">
        <ele>2890.300</ele>
        <time>2020-05-21T20:31:06Z</time>
        <name>WPT.1193</name>
      </trkpt>
      <trkpt lat="35.831649570" lon="-105.622856580">
        <ele>2890.200</ele>
        <time>2020-05-21T20:31:11Z</time>
        <name>WPT.1194</name>
      </trkpt>
      <trkpt lat="35.831612300" lon="-105.622868900">
        <ele>2892.200</ele>
        <time>2020-05-21T20:31:15Z</time>
        <name>WPT.1195</name>
      </trkpt>
      <trkpt lat="35.831570740" lon="-105.622866030">
        <ele>2893.200</ele>
        <time>2020-05-21T20:31:21Z</time>
        <name>WPT.1196</name>
      </trkpt>
      <trkpt lat="35.831528840" lon="-105.622863960">
        <ele>2893.900</ele>
        <time>2020-05-21T20:31:25Z</time>
        <name>WPT.1197</name>
      </trkpt>
      <trkpt lat="35.831489320" lon="-105.622885220">
        <ele>2894.600</ele>
        <time>2020-05-21T20:31:29Z</time>
        <name>WPT.1198</name>
      </trkpt>
      <trkpt lat="35.831448530" lon="-105.622897530">
        <ele>2894.200</ele>
        <time>2020-05-21T20:31:33Z</time>
        <name>WPT.1199</name>
      </trkpt>
      <trkpt lat="35.831412160" lon="-105.622916840">
        <ele>2893.300</ele>
        <time>2020-05-21T20:31:36Z</time>
        <name>WPT.1200</name>
      </trkpt>
      <trkpt lat="35.831380300" lon="-105.622950800">
        <ele>2890.800</ele>
        <time>2020-05-21T20:31:40Z</time>
        <name>WPT.1201</name>
      </trkpt>
      <trkpt lat="35.831338320" lon="-105.622966640">
        <ele>2889.800</ele>
        <time>2020-05-21T20:31:44Z</time>
        <name>WPT.1202</name>
      </trkpt>
      <trkpt lat="35.831301310" lon="-105.622979690">
        <ele>2888.700</ele>
        <time>2020-05-21T20:31:48Z</time>
        <name>WPT.1203</name>
      </trkpt>
      <trkpt lat="35.831259870" lon="-105.622982710">
        <ele>2888.400</ele>
        <time>2020-05-21T20:31:52Z</time>
        <name>WPT.1204</name>
      </trkpt>
      <trkpt lat="35.831219400" lon="-105.622989300">
        <ele>2889.200</ele>
        <time>2020-05-21T20:31:58Z</time>
        <name>WPT.1205</name>
      </trkpt>
      <trkpt lat="35.831181800" lon="-105.622988590">
        <ele>2888.900</ele>
        <time>2020-05-21T20:32:03Z</time>
        <name>WPT.1206</name>
      </trkpt>
      <trkpt lat="35.831146390" lon="-105.622975670">
        <ele>2889.700</ele>
        <time>2020-05-21T20:32:08Z</time>
        <name>WPT.1207</name>
      </trkpt>
      <trkpt lat="35.831113450" lon="-105.622993770">
        <ele>2884.100</ele>
        <time>2020-05-21T20:40:26Z</time>
        <name>WPT.1208</name>
      </trkpt>
      <trkpt lat="35.831142940" lon="-105.622967380">
        <ele>2882.300</ele>
        <time>2020-05-21T20:40:32Z</time>
        <name>WPT.1209</name>
      </trkpt>
      <trkpt lat="35.831128050" lon="-105.623009460">
        <ele>2882.300</ele>
        <time>2020-05-21T20:41:26Z</time>
        <name>WPT.1210</name>
      </trkpt>
      <trkpt lat="35.831170090" lon="-105.622991960">
        <ele>2886.800</ele>
        <time>2020-05-21T20:44:31Z</time>
        <name>WPT.1211</name>
      </trkpt>
      <trkpt lat="35.831199710" lon="-105.623023350">
        <ele>2888.200</ele>
        <time>2020-05-21T20:44:38Z</time>
        <name>WPT.1212</name>
      </trkpt>
      <trkpt lat="35.831158830" lon="-105.623039920">
        <ele>2888.000</ele>
        <time>2020-05-21T20:45:14Z</time>
        <name>WPT.1213</name>
      </trkpt>
      <trkpt lat="35.831122190" lon="-105.623044350">
        <ele>2887.300</ele>
        <time>2020-05-21T20:46:48Z</time>
        <name>WPT.1214</name>
      </trkpt>
      <trkpt lat="35.831150600" lon="-105.623008750">
        <ele>2887.400</ele>
        <time>2020-05-21T20:47:19Z</time>
        <name>WPT.1215</name>
      </trkpt>
      <trkpt lat="35.831117010" lon="-105.623025200">
        <ele>2885.700</ele>
        <time>2020-05-21T20:48:34Z</time>
        <name>WPT.1216</name>
      </trkpt>
      <trkpt lat="35.831140710" lon="-105.622991260">
        <ele>2884.700</ele>
        <time>2020-05-21T20:49:19Z</time>
        <name>WPT.1217</name>
      </trkpt>
      <trkpt lat="35.831160980" lon="-105.622951590">
        <ele>2883.100</ele>
        <time>2020-05-21T20:51:51Z</time>
        <name>WPT.1218</name>
      </trkpt>
      <trkpt lat="35.831142780" lon="-105.622989850">
        <ele>2886.000</ele>
        <time>2020-05-21T21:34:00Z</time>
        <name>WPT.1219</name>
      </trkpt>
      <trkpt lat="35.831136440" lon="-105.623033840">
        <ele>2885.900</ele>
        <time>2020-05-21T21:34:16Z</time>
        <name>WPT.1220</name>
      </trkpt>
      <trkpt lat="35.831142840" lon="-105.623085360">
        <ele>2885.900</ele>
        <time>2020-05-21T21:34:21Z</time>
        <name>WPT.1221</name>
      </trkpt>
      <trkpt lat="35.831127030" lon="-105.623126230">
        <ele>2885.300</ele>
        <time>2020-05-21T21:34:25Z</time>
        <name>WPT.1222</name>
      </trkpt>
      <trkpt lat="35.831087210" lon="-105.623135400">
        <ele>2885.900</ele>
        <time>2020-05-21T21:34:29Z</time>
        <name>WPT.1223</name>
      </trkpt>
      <trkpt lat="35.831054740" lon="-105.623155690">
        <ele>2885.500</ele>
        <time>2020-05-21T21:34:33Z</time>
        <name>WPT.1224</name>
      </trkpt>
      <trkpt lat="35.831024600" lon="-105.623184510">
        <ele>2884.900</ele>
        <time>2020-05-21T21:34:37Z</time>
        <name>WPT.1225</name>
      </trkpt>
      <trkpt lat="35.830994410" lon="-105.623216920">
        <ele>2883.800</ele>
        <time>2020-05-21T21:34:41Z</time>
        <name>WPT.1226</name>
      </trkpt>
      <trkpt lat="35.830962340" lon="-105.623241330">
        <ele>2884.700</ele>
        <time>2020-05-21T21:34:46Z</time>
        <name>WPT.1227</name>
      </trkpt>
      <trkpt lat="35.830927860" lon="-105.623261570">
        <ele>2885.300</ele>
        <time>2020-05-21T21:34:52Z</time>
        <name>WPT.1228</name>
      </trkpt>
      <trkpt lat="35.830902800" lon="-105.623301530">
        <ele>2883.400</ele>
        <time>2020-05-21T21:34:56Z</time>
        <name>WPT.1229</name>
      </trkpt>
      <trkpt lat="35.830873900" lon="-105.623335840">
        <ele>2882.900</ele>
        <time>2020-05-21T21:35:00Z</time>
        <name>WPT.1230</name>
      </trkpt>
      <trkpt lat="35.830840610" lon="-105.623359930">
        <ele>2882.200</ele>
        <time>2020-05-21T21:35:05Z</time>
        <name>WPT.1231</name>
      </trkpt>
      <trkpt lat="35.830805410" lon="-105.623392460">
        <ele>2881.300</ele>
        <time>2020-05-21T21:35:11Z</time>
        <name>WPT.1232</name>
      </trkpt>
      <trkpt lat="35.830768820" lon="-105.623417040">
        <ele>2882.900</ele>
        <time>2020-05-21T21:35:15Z</time>
        <name>WPT.1233</name>
      </trkpt>
      <trkpt lat="35.830743060" lon="-105.623464860">
        <ele>2884.000</ele>
        <time>2020-05-21T21:35:19Z</time>
        <name>WPT.1234</name>
      </trkpt>
      <trkpt lat="35.830707700" lon="-105.623490040">
        <ele>2884.400</ele>
        <time>2020-05-21T21:35:23Z</time>
        <name>WPT.1235</name>
      </trkpt>
      <trkpt lat="35.830676500" lon="-105.623527270">
        <ele>2884.800</ele>
        <time>2020-05-21T21:35:28Z</time>
        <name>WPT.1236</name>
      </trkpt>
      <trkpt lat="35.830641680" lon="-105.623514860">
        <ele>2887.000</ele>
        <time>2020-05-21T21:35:31Z</time>
        <name>WPT.1237</name>
      </trkpt>
      <trkpt lat="35.830594720" lon="-105.623513760">
        <ele>2888.600</ele>
        <time>2020-05-21T21:35:36Z</time>
        <name>WPT.1238</name>
      </trkpt>
      <trkpt lat="35.830549780" lon="-105.623509260">
        <ele>2890.200</ele>
        <time>2020-05-21T21:35:40Z</time>
        <name>WPT.1239</name>
      </trkpt>
      <trkpt lat="35.830508650" lon="-105.623508950">
        <ele>2889.500</ele>
        <time>2020-05-21T21:35:45Z</time>
        <name>WPT.1240</name>
      </trkpt>
      <trkpt lat="35.830491960" lon="-105.623556720">
        <ele>2883.900</ele>
        <time>2020-05-21T21:35:52Z</time>
        <name>WPT.1241</name>
      </trkpt>
      <trkpt lat="35.830454190" lon="-105.623579140">
        <ele>2882.600</ele>
        <time>2020-05-21T21:36:04Z</time>
        <name>WPT.1242</name>
      </trkpt>
      <trkpt lat="35.830413110" lon="-105.623605670">
        <ele>2884.600</ele>
        <time>2020-05-21T21:36:08Z</time>
        <name>WPT.1243</name>
      </trkpt>
      <trkpt lat="35.830377650" lon="-105.623625690">
        <ele>2884.600</ele>
        <time>2020-05-21T21:36:11Z</time>
        <name>WPT.1244</name>
      </trkpt>
      <trkpt lat="35.830360380" lon="-105.623666960">
        <ele>2883.600</ele>
        <time>2020-05-21T21:36:14Z</time>
        <name>WPT.1245</name>
      </trkpt>
      <trkpt lat="35.830327170" lon="-105.623694120">
        <ele>2882.700</ele>
        <time>2020-05-21T21:36:18Z</time>
        <name>WPT.1246</name>
      </trkpt>
      <trkpt lat="35.830292730" lon="-105.623711790">
        <ele>2882.000</ele>
        <time>2020-05-21T21:36:22Z</time>
        <name>WPT.1247</name>
      </trkpt>
      <trkpt lat="35.830262950" lon="-105.623747850">
        <ele>2880.400</ele>
        <time>2020-05-21T21:36:26Z</time>
        <name>WPT.1248</name>
      </trkpt>
      <trkpt lat="35.830233320" lon="-105.623785910">
        <ele>2881.500</ele>
        <time>2020-05-21T21:36:37Z</time>
        <name>WPT.1249</name>
      </trkpt>
      <trkpt lat="35.830192600" lon="-105.623804520">
        <ele>2882.200</ele>
        <time>2020-05-21T21:36:41Z</time>
        <name>WPT.1250</name>
      </trkpt>
      <trkpt lat="35.830162420" lon="-105.623838540">
        <ele>2882.700</ele>
        <time>2020-05-21T21:36:45Z</time>
        <name>WPT.1251</name>
      </trkpt>
      <trkpt lat="35.830128190" lon="-105.623868680">
        <ele>2881.700</ele>
        <time>2020-05-21T21:36:49Z</time>
        <name>WPT.1252</name>
      </trkpt>
      <trkpt lat="35.830100130" lon="-105.623911580">
        <ele>2881.800</ele>
        <time>2020-05-21T21:36:53Z</time>
        <name>WPT.1253</name>
      </trkpt>
      <trkpt lat="35.830074170" lon="-105.623952780">
        <ele>2880.100</ele>
        <time>2020-05-21T21:36:57Z</time>
        <name>WPT.1254</name>
      </trkpt>
      <trkpt lat="35.830042600" lon="-105.623977710">
        <ele>2879.500</ele>
        <time>2020-05-21T21:37:01Z</time>
        <name>WPT.1255</name>
      </trkpt>
      <trkpt lat="35.830014200" lon="-105.624006630">
        <ele>2879.400</ele>
        <time>2020-05-21T21:37:05Z</time>
        <name>WPT.1256</name>
      </trkpt>
      <trkpt lat="35.829981050" lon="-105.624041130">
        <ele>2879.400</ele>
        <time>2020-05-21T21:37:09Z</time>
        <name>WPT.1257</name>
      </trkpt>
      <trkpt lat="35.829950230" lon="-105.624068670">
        <ele>2880.500</ele>
        <time>2020-05-21T21:37:13Z</time>
        <name>WPT.1258</name>
      </trkpt>
      <trkpt lat="35.829912640" lon="-105.624073990">
        <ele>2881.100</ele>
        <time>2020-05-21T21:37:17Z</time>
        <name>WPT.1259</name>
      </trkpt>
      <trkpt lat="35.829879000" lon="-105.624116240">
        <ele>2881.400</ele>
        <time>2020-05-21T21:37:21Z</time>
        <name>WPT.1260</name>
      </trkpt>
      <trkpt lat="35.829835970" lon="-105.624131830">
        <ele>2883.400</ele>
        <time>2020-05-21T21:37:25Z</time>
        <name>WPT.1261</name>
      </trkpt>
      <trkpt lat="35.829789460" lon="-105.624140510">
        <ele>2883.400</ele>
        <time>2020-05-21T21:37:29Z</time>
        <name>WPT.1262</name>
      </trkpt>
      <trkpt lat="35.829745550" lon="-105.624152960">
        <ele>2881.700</ele>
        <time>2020-05-21T21:37:33Z</time>
        <name>WPT.1263</name>
      </trkpt>
      <trkpt lat="35.829706580" lon="-105.624160380">
        <ele>2881.800</ele>
        <time>2020-05-21T21:37:37Z</time>
        <name>WPT.1264</name>
      </trkpt>
      <trkpt lat="35.829686710" lon="-105.624202710">
        <ele>2879.600</ele>
        <time>2020-05-21T21:37:40Z</time>
        <name>WPT.1265</name>
      </trkpt>
      <trkpt lat="35.829647380" lon="-105.624216330">
        <ele>2881.100</ele>
        <time>2020-05-21T21:37:44Z</time>
        <name>WPT.1266</name>
      </trkpt>
      <trkpt lat="35.829605910" lon="-105.624215610">
        <ele>2881.100</ele>
        <time>2020-05-21T21:37:48Z</time>
        <name>WPT.1267</name>
      </trkpt>
      <trkpt lat="35.829567170" lon="-105.624223150">
        <ele>2881.300</ele>
        <time>2020-05-21T21:37:52Z</time>
        <name>WPT.1268</name>
      </trkpt>
      <trkpt lat="35.829529220" lon="-105.624225490">
        <ele>2880.500</ele>
        <time>2020-05-21T21:37:56Z</time>
        <name>WPT.1269</name>
      </trkpt>
      <trkpt lat="35.829499680" lon="-105.624256430">
        <ele>2882.200</ele>
        <time>2020-05-21T21:38:00Z</time>
        <name>WPT.1270</name>
      </trkpt>
      <trkpt lat="35.829467310" lon="-105.624280420">
        <ele>2883.700</ele>
        <time>2020-05-21T21:38:04Z</time>
        <name>WPT.1271</name>
      </trkpt>
      <trkpt lat="35.829432780" lon="-105.624306730">
        <ele>2883.400</ele>
        <time>2020-05-21T21:38:08Z</time>
        <name>WPT.1272</name>
      </trkpt>
      <trkpt lat="35.829392790" lon="-105.624313250">
        <ele>2884.000</ele>
        <time>2020-05-21T21:38:13Z</time>
        <name>WPT.1273</name>
      </trkpt>
      <trkpt lat="35.829370730" lon="-105.624348470">
        <ele>2882.300</ele>
        <time>2020-05-21T21:38:17Z</time>
        <name>WPT.1274</name>
      </trkpt>
      <trkpt lat="35.829341490" lon="-105.624386110">
        <ele>2881.900</ele>
        <time>2020-05-21T21:38:21Z</time>
        <name>WPT.1275</name>
      </trkpt>
      <trkpt lat="35.829306680" lon="-105.624400770">
        <ele>2881.600</ele>
        <time>2020-05-21T21:38:33Z</time>
        <name>WPT.1276</name>
      </trkpt>
      <trkpt lat="35.829276400" lon="-105.624426600">
        <ele>2883.300</ele>
        <time>2020-05-21T21:38:38Z</time>
        <name>WPT.1277</name>
      </trkpt>
      <trkpt lat="35.829312630" lon="-105.624452670">
        <ele>2879.400</ele>
        <time>2020-05-21T21:38:44Z</time>
        <name>WPT.1278</name>
      </trkpt>
      <trkpt lat="35.829350950" lon="-105.624441890">
        <ele>2877.600</ele>
        <time>2020-05-21T21:38:50Z</time>
        <name>WPT.1279</name>
      </trkpt>
      <trkpt lat="35.829323740" lon="-105.624474020">
        <ele>2876.400</ele>
        <time>2020-05-21T21:39:16Z</time>
        <name>WPT.1280</name>
      </trkpt>
      <trkpt lat="35.829289530" lon="-105.624513930">
        <ele>2875.200</ele>
        <time>2020-05-21T21:39:29Z</time>
        <name>WPT.1281</name>
      </trkpt>
      <trkpt lat="35.829246710" lon="-105.624536040">
        <ele>2876.300</ele>
        <time>2020-05-21T21:39:34Z</time>
        <name>WPT.1282</name>
      </trkpt>
      <trkpt lat="35.829204630" lon="-105.624545760">
        <ele>2876.800</ele>
        <time>2020-05-21T21:39:38Z</time>
        <name>WPT.1283</name>
      </trkpt>
      <trkpt lat="35.829168100" lon="-105.624562210">
        <ele>2876.300</ele>
        <time>2020-05-21T21:39:42Z</time>
        <name>WPT.1284</name>
      </trkpt>
      <trkpt lat="35.829131670" lon="-105.624562340">
        <ele>2875.900</ele>
        <time>2020-05-21T21:39:46Z</time>
        <name>WPT.1285</name>
      </trkpt>
      <trkpt lat="35.829099330" lon="-105.624592630">
        <ele>2876.000</ele>
        <time>2020-05-21T21:39:50Z</time>
        <name>WPT.1286</name>
      </trkpt>
      <trkpt lat="35.829066890" lon="-105.624626750">
        <ele>2875.300</ele>
        <time>2020-05-21T21:39:54Z</time>
        <name>WPT.1287</name>
      </trkpt>
      <trkpt lat="35.829031820" lon="-105.624656820">
        <ele>2874.200</ele>
        <time>2020-05-21T21:39:59Z</time>
        <name>WPT.1288</name>
      </trkpt>
      <trkpt lat="35.828990020" lon="-105.624675390">
        <ele>2875.800</ele>
        <time>2020-05-21T21:40:09Z</time>
        <name>WPT.1289</name>
      </trkpt>
      <trkpt lat="35.828948250" lon="-105.624672990">
        <ele>2876.900</ele>
        <time>2020-05-21T21:40:13Z</time>
        <name>WPT.1290</name>
      </trkpt>
      <trkpt lat="35.828911000" lon="-105.624681230">
        <ele>2876.600</ele>
        <time>2020-05-21T21:40:17Z</time>
        <name>WPT.1291</name>
      </trkpt>
      <trkpt lat="35.828874700" lon="-105.624703370">
        <ele>2876.200</ele>
        <time>2020-05-21T21:40:21Z</time>
        <name>WPT.1292</name>
      </trkpt>
      <trkpt lat="35.828855100" lon="-105.624746150">
        <ele>2875.300</ele>
        <time>2020-05-21T21:40:24Z</time>
        <name>WPT.1293</name>
      </trkpt>
      <trkpt lat="35.828826110" lon="-105.624791710">
        <ele>2875.200</ele>
        <time>2020-05-21T21:40:28Z</time>
        <name>WPT.1294</name>
      </trkpt>
      <trkpt lat="35.828799800" lon="-105.624830730">
        <ele>2876.000</ele>
        <time>2020-05-21T21:40:33Z</time>
        <name>WPT.1295</name>
      </trkpt>
      <trkpt lat="35.828763360" lon="-105.624856620">
        <ele>2876.000</ele>
        <time>2020-05-21T21:40:37Z</time>
        <name>WPT.1296</name>
      </trkpt>
      <trkpt lat="35.828721550" lon="-105.624861390">
        <ele>2875.700</ele>
        <time>2020-05-21T21:40:42Z</time>
        <name>WPT.1297</name>
      </trkpt>
      <trkpt lat="35.828686850" lon="-105.624841810">
        <ele>2877.900</ele>
        <time>2020-05-21T21:40:46Z</time>
        <name>WPT.1298</name>
      </trkpt>
      <trkpt lat="35.828652970" lon="-105.624826350">
        <ele>2878.200</ele>
        <time>2020-05-21T21:40:49Z</time>
        <name>WPT.1299</name>
      </trkpt>
      <trkpt lat="35.828608620" lon="-105.624818870">
        <ele>2878.600</ele>
        <time>2020-05-21T21:40:53Z</time>
        <name>WPT.1300</name>
      </trkpt>
      <trkpt lat="35.828571180" lon="-105.624845680">
        <ele>2877.400</ele>
        <time>2020-05-21T21:40:57Z</time>
        <name>WPT.1301</name>
      </trkpt>
      <trkpt lat="35.828530100" lon="-105.624842300">
        <ele>2878.700</ele>
        <time>2020-05-21T21:41:01Z</time>
        <name>WPT.1302</name>
      </trkpt>
      <trkpt lat="35.828489480" lon="-105.624858240">
        <ele>2877.900</ele>
        <time>2020-05-21T21:41:05Z</time>
        <name>WPT.1303</name>
      </trkpt>
      <trkpt lat="35.828446080" lon="-105.624871940">
        <ele>2878.100</ele>
        <time>2020-05-21T21:41:09Z</time>
        <name>WPT.1304</name>
      </trkpt>
      <trkpt lat="35.828407500" lon="-105.624852380">
        <ele>2879.200</ele>
        <time>2020-05-21T21:41:13Z</time>
        <name>WPT.1305</name>
      </trkpt>
      <trkpt lat="35.828371170" lon="-105.624850730">
        <ele>2878.400</ele>
        <time>2020-05-21T21:41:17Z</time>
        <name>WPT.1306</name>
      </trkpt>
      <trkpt lat="35.828337500" lon="-105.624873240">
        <ele>2878.800</ele>
        <time>2020-05-21T21:41:21Z</time>
        <name>WPT.1307</name>
      </trkpt>
      <trkpt lat="35.828312110" lon="-105.624916130">
        <ele>2878.600</ele>
        <time>2020-05-21T21:41:24Z</time>
        <name>WPT.1308</name>
      </trkpt>
      <trkpt lat="35.828276490" lon="-105.624941540">
        <ele>2877.500</ele>
        <time>2020-05-21T21:41:28Z</time>
        <name>WPT.1309</name>
      </trkpt>
      <trkpt lat="35.828235010" lon="-105.624959570">
        <ele>2877.600</ele>
        <time>2020-05-21T21:41:32Z</time>
        <name>WPT.1310</name>
      </trkpt>
      <trkpt lat="35.828198100" lon="-105.624954720">
        <ele>2876.100</ele>
        <time>2020-05-21T21:41:36Z</time>
        <name>WPT.1311</name>
      </trkpt>
      <trkpt lat="35.828152220" lon="-105.624942680">
        <ele>2876.500</ele>
        <time>2020-05-21T21:41:41Z</time>
        <name>WPT.1312</name>
      </trkpt>
      <trkpt lat="35.828115550" lon="-105.624947570">
        <ele>2876.000</ele>
        <time>2020-05-21T21:41:44Z</time>
        <name>WPT.1313</name>
      </trkpt>
      <trkpt lat="35.828076140" lon="-105.624977130">
        <ele>2875.300</ele>
        <time>2020-05-21T21:41:48Z</time>
        <name>WPT.1314</name>
      </trkpt>
      <trkpt lat="35.828041780" lon="-105.625009970">
        <ele>2873.500</ele>
        <time>2020-05-21T21:41:51Z</time>
        <name>WPT.1315</name>
      </trkpt>
      <trkpt lat="35.828004450" lon="-105.625012650">
        <ele>2873.800</ele>
        <time>2020-05-21T21:41:54Z</time>
        <name>WPT.1316</name>
      </trkpt>
      <trkpt lat="35.827961280" lon="-105.625014010">
        <ele>2873.000</ele>
        <time>2020-05-21T21:41:58Z</time>
        <name>WPT.1317</name>
      </trkpt>
      <trkpt lat="35.827924230" lon="-105.625017440">
        <ele>2873.300</ele>
        <time>2020-05-21T21:42:01Z</time>
        <name>WPT.1318</name>
      </trkpt>
      <trkpt lat="35.827890210" lon="-105.625033970">
        <ele>2873.500</ele>
        <time>2020-05-21T21:42:04Z</time>
        <name>WPT.1319</name>
      </trkpt>
      <trkpt lat="35.827849690" lon="-105.625044950">
        <ele>2875.900</ele>
        <time>2020-05-21T21:42:08Z</time>
        <name>WPT.1320</name>
      </trkpt>
      <trkpt lat="35.827812270" lon="-105.625061600">
        <ele>2877.400</ele>
        <time>2020-05-21T21:42:12Z</time>
        <name>WPT.1321</name>
      </trkpt>
      <trkpt lat="35.827781570" lon="-105.625092800">
        <ele>2876.300</ele>
        <time>2020-05-21T21:42:16Z</time>
        <name>WPT.1322</name>
      </trkpt>
      <trkpt lat="35.827747040" lon="-105.625115200">
        <ele>2878.000</ele>
        <time>2020-05-21T21:42:26Z</time>
        <name>WPT.1323</name>
      </trkpt>
      <trkpt lat="35.827718530" lon="-105.625152360">
        <ele>2876.500</ele>
        <time>2020-05-21T21:42:41Z</time>
        <name>WPT.1324</name>
      </trkpt>
      <trkpt lat="35.827707540" lon="-105.625196400">
        <ele>2874.600</ele>
        <time>2020-05-21T21:42:44Z</time>
        <name>WPT.1325</name>
      </trkpt>
      <trkpt lat="35.827676290" lon="-105.625230040">
        <ele>2874.600</ele>
        <time>2020-05-21T21:43:39Z</time>
        <name>WPT.1326</name>
      </trkpt>
      <trkpt lat="35.827652250" lon="-105.625266470">
        <ele>2874.600</ele>
        <time>2020-05-21T21:43:43Z</time>
        <name>WPT.1327</name>
      </trkpt>
      <trkpt lat="35.827623610" lon="-105.625302880">
        <ele>2874.100</ele>
        <time>2020-05-21T21:43:49Z</time>
        <name>WPT.1328</name>
      </trkpt>
      <trkpt lat="35.827596480" lon="-105.625341130">
        <ele>2874.500</ele>
        <time>2020-05-21T21:43:54Z</time>
        <name>WPT.1329</name>
      </trkpt>
      <trkpt lat="35.827569310" lon="-105.625370620">
        <ele>2875.100</ele>
        <time>2020-05-21T21:44:04Z</time>
        <name>WPT.1330</name>
      </trkpt>
      <trkpt lat="35.827547070" lon="-105.625407080">
        <ele>2874.800</ele>
        <time>2020-05-21T21:44:08Z</time>
        <name>WPT.1331</name>
      </trkpt>
      <trkpt lat="35.827527690" lon="-105.625454960">
        <ele>2875.100</ele>
        <time>2020-05-21T21:44:12Z</time>
        <name>WPT.1332</name>
      </trkpt>
      <trkpt lat="35.827504950" lon="-105.625499220">
        <ele>2874.500</ele>
        <time>2020-05-21T21:44:16Z</time>
        <name>WPT.1333</name>
      </trkpt>
      <trkpt lat="35.827489780" lon="-105.625547360">
        <ele>2873.700</ele>
        <time>2020-05-21T21:44:20Z</time>
        <name>WPT.1334</name>
      </trkpt>
      <trkpt lat="35.827485470" lon="-105.625597010">
        <ele>2871.200</ele>
        <time>2020-05-21T21:44:26Z</time>
        <name>WPT.1335</name>
      </trkpt>
      <trkpt lat="35.827495830" lon="-105.625642230">
        <ele>2869.800</ele>
        <time>2020-05-21T21:44:30Z</time>
        <name>WPT.1336</name>
      </trkpt>
      <trkpt lat="35.827521600" lon="-105.625678770">
        <ele>2866.700</ele>
        <time>2020-05-21T21:44:35Z</time>
        <name>WPT.1337</name>
      </trkpt>
      <trkpt lat="35.827525170" lon="-105.625723820">
        <ele>2863.700</ele>
        <time>2020-05-21T21:44:44Z</time>
        <name>WPT.1338</name>
      </trkpt>
      <trkpt lat="35.827501440" lon="-105.625763000">
        <ele>2865.200</ele>
        <time>2020-05-21T21:45:18Z</time>
        <name>WPT.1339</name>
      </trkpt>
      <trkpt lat="35.827476430" lon="-105.625803050">
        <ele>2864.700</ele>
        <time>2020-05-21T21:45:28Z</time>
        <name>WPT.1340</name>
      </trkpt>
      <trkpt lat="35.827452480" lon="-105.625838300">
        <ele>2865.600</ele>
        <time>2020-05-21T21:45:34Z</time>
        <name>WPT.1341</name>
      </trkpt>
      <trkpt lat="35.827438930" lon="-105.625881070">
        <ele>2867.000</ele>
        <time>2020-05-21T21:45:51Z</time>
        <name>WPT.1342</name>
      </trkpt>
      <trkpt lat="35.827423570" lon="-105.625924830">
        <ele>2867.000</ele>
        <time>2020-05-21T21:45:56Z</time>
        <name>WPT.1343</name>
      </trkpt>
      <trkpt lat="35.827405170" lon="-105.625973300">
        <ele>2865.200</ele>
        <time>2020-05-21T21:46:01Z</time>
        <name>WPT.1344</name>
      </trkpt>
      <trkpt lat="35.827386120" lon="-105.626013110">
        <ele>2865.300</ele>
        <time>2020-05-21T21:46:06Z</time>
        <name>WPT.1345</name>
      </trkpt>
      <trkpt lat="35.827380090" lon="-105.626068460">
        <ele>2864.100</ele>
        <time>2020-05-21T21:46:11Z</time>
        <name>WPT.1346</name>
      </trkpt>
      <trkpt lat="35.827358790" lon="-105.626104930">
        <ele>2865.200</ele>
        <time>2020-05-21T21:46:15Z</time>
        <name>WPT.1347</name>
      </trkpt>
      <trkpt lat="35.827333920" lon="-105.626137080">
        <ele>2864.800</ele>
        <time>2020-05-21T21:46:19Z</time>
        <name>WPT.1348</name>
      </trkpt>
      <trkpt lat="35.827315090" lon="-105.626176360">
        <ele>2863.500</ele>
        <time>2020-05-21T21:46:23Z</time>
        <name>WPT.1349</name>
      </trkpt>
      <trkpt lat="35.827286950" lon="-105.626206540">
        <ele>2864.500</ele>
        <time>2020-05-21T21:46:27Z</time>
        <name>WPT.1350</name>
      </trkpt>
      <trkpt lat="35.827261920" lon="-105.626246690">
        <ele>2864.400</ele>
        <time>2020-05-21T21:46:31Z</time>
        <name>WPT.1351</name>
      </trkpt>
      <trkpt lat="35.827239340" lon="-105.626281540">
        <ele>2865.000</ele>
        <time>2020-05-21T21:46:39Z</time>
        <name>WPT.1352</name>
      </trkpt>
      <trkpt lat="35.827207810" lon="-105.626303800">
        <ele>2864.700</ele>
        <time>2020-05-21T21:46:44Z</time>
        <name>WPT.1353</name>
      </trkpt>
      <trkpt lat="35.827184040" lon="-105.626339230">
        <ele>2865.600</ele>
        <time>2020-05-21T21:46:48Z</time>
        <name>WPT.1354</name>
      </trkpt>
      <trkpt lat="35.827146860" lon="-105.626369840">
        <ele>2866.900</ele>
        <time>2020-05-21T21:46:52Z</time>
        <name>WPT.1355</name>
      </trkpt>
      <trkpt lat="35.827110590" lon="-105.626400420">
        <ele>2866.100</ele>
        <time>2020-05-21T21:46:56Z</time>
        <name>WPT.1356</name>
      </trkpt>
      <trkpt lat="35.827079400" lon="-105.626430740">
        <ele>2865.800</ele>
        <time>2020-05-21T21:47:00Z</time>
        <name>WPT.1357</name>
      </trkpt>
      <trkpt lat="35.827057180" lon="-105.626478810">
        <ele>2865.000</ele>
        <time>2020-05-21T21:47:06Z</time>
        <name>WPT.1358</name>
      </trkpt>
      <trkpt lat="35.827031410" lon="-105.626509950">
        <ele>2866.100</ele>
        <time>2020-05-21T21:47:10Z</time>
        <name>WPT.1359</name>
      </trkpt>
      <trkpt lat="35.827005660" lon="-105.626545590">
        <ele>2867.300</ele>
        <time>2020-05-21T21:47:14Z</time>
        <name>WPT.1360</name>
      </trkpt>
      <trkpt lat="35.826984400" lon="-105.626583710">
        <ele>2867.800</ele>
        <time>2020-05-21T21:47:18Z</time>
        <name>WPT.1361</name>
      </trkpt>
      <trkpt lat="35.826956890" lon="-105.626626860">
        <ele>2867.100</ele>
        <time>2020-05-21T21:47:24Z</time>
        <name>WPT.1362</name>
      </trkpt>
      <trkpt lat="35.826925760" lon="-105.626658650">
        <ele>2866.600</ele>
        <time>2020-05-21T21:47:28Z</time>
        <name>WPT.1363</name>
      </trkpt>
      <trkpt lat="35.826901330" lon="-105.626696900">
        <ele>2869.800</ele>
        <time>2020-05-21T21:47:33Z</time>
        <name>WPT.1364</name>
      </trkpt>
      <trkpt lat="35.826871360" lon="-105.626731870">
        <ele>2870.400</ele>
        <time>2020-05-21T21:47:37Z</time>
        <name>WPT.1365</name>
      </trkpt>
      <trkpt lat="35.826856770" lon="-105.626776580">
        <ele>2870.200</ele>
        <time>2020-05-21T21:47:41Z</time>
        <name>WPT.1366</name>
      </trkpt>
      <trkpt lat="35.826829880" lon="-105.626819060">
        <ele>2868.500</ele>
        <time>2020-05-21T21:47:46Z</time>
        <name>WPT.1367</name>
      </trkpt>
      <trkpt lat="35.826808110" lon="-105.626868840">
        <ele>2867.300</ele>
        <time>2020-05-21T21:47:50Z</time>
        <name>WPT.1368</name>
      </trkpt>
      <trkpt lat="35.826795630" lon="-105.626912630">
        <ele>2866.100</ele>
        <time>2020-05-21T21:47:53Z</time>
        <name>WPT.1369</name>
      </trkpt>
      <trkpt lat="35.826790080" lon="-105.626962860">
        <ele>2863.300</ele>
        <time>2020-05-21T21:47:56Z</time>
        <name>WPT.1370</name>
      </trkpt>
      <trkpt lat="35.826779020" lon="-105.627005590">
        <ele>2861.400</ele>
        <time>2020-05-21T21:47:59Z</time>
        <name>WPT.1371</name>
      </trkpt>
      <trkpt lat="35.826749660" lon="-105.627033460">
        <ele>2859.600</ele>
        <time>2020-05-21T21:48:03Z</time>
        <name>WPT.1372</name>
      </trkpt>
      <trkpt lat="35.826713400" lon="-105.627058580">
        <ele>2859.800</ele>
        <time>2020-05-21T21:48:08Z</time>
        <name>WPT.1373</name>
      </trkpt>
      <trkpt lat="35.826677720" lon="-105.627084680">
        <ele>2858.700</ele>
        <time>2020-05-21T21:48:13Z</time>
        <name>WPT.1374</name>
      </trkpt>
      <trkpt lat="35.826642010" lon="-105.627103470">
        <ele>2858.600</ele>
        <time>2020-05-21T21:48:17Z</time>
        <name>WPT.1375</name>
      </trkpt>
      <trkpt lat="35.826609090" lon="-105.627122440">
        <ele>2860.700</ele>
        <time>2020-05-21T21:48:21Z</time>
        <name>WPT.1376</name>
      </trkpt>
      <trkpt lat="35.826582270" lon="-105.627156830">
        <ele>2861.000</ele>
        <time>2020-05-21T21:48:25Z</time>
        <name>WPT.1377</name>
      </trkpt>
      <trkpt lat="35.826561040" lon="-105.627195680">
        <ele>2861.400</ele>
        <time>2020-05-21T21:48:29Z</time>
        <name>WPT.1378</name>
      </trkpt>
      <trkpt lat="35.826535680" lon="-105.627236630">
        <ele>2862.800</ele>
        <time>2020-05-21T21:48:34Z</time>
        <name>WPT.1379</name>
      </trkpt>
      <trkpt lat="35.826498220" lon="-105.627267570">
        <ele>2861.700</ele>
        <time>2020-05-21T21:48:39Z</time>
        <name>WPT.1380</name>
      </trkpt>
      <trkpt lat="35.826468690" lon="-105.627301500">
        <ele>2862.400</ele>
        <time>2020-05-21T21:48:43Z</time>
        <name>WPT.1381</name>
      </trkpt>
      <trkpt lat="35.826433890" lon="-105.627330220">
        <ele>2864.300</ele>
        <time>2020-05-21T21:48:48Z</time>
        <name>WPT.1382</name>
      </trkpt>
      <trkpt lat="35.826396580" lon="-105.627335240">
        <ele>2867.200</ele>
        <time>2020-05-21T21:48:54Z</time>
        <name>WPT.1383</name>
      </trkpt>
      <trkpt lat="35.826416940" lon="-105.627385370">
        <ele>2864.200</ele>
        <time>2020-05-21T21:49:18Z</time>
        <name>WPT.1384</name>
      </trkpt>
      <trkpt lat="35.826440200" lon="-105.627422420">
        <ele>2859.500</ele>
        <time>2020-05-21T21:49:43Z</time>
        <name>WPT.1385</name>
      </trkpt>
      <trkpt lat="35.826445480" lon="-105.627467490">
        <ele>2856.000</ele>
        <time>2020-05-21T21:50:07Z</time>
        <name>WPT.1386</name>
      </trkpt>
      <trkpt lat="35.826450980" lon="-105.627518290">
        <ele>2855.800</ele>
        <time>2020-05-21T21:50:11Z</time>
        <name>WPT.1387</name>
      </trkpt>
      <trkpt lat="35.826473290" lon="-105.627561840">
        <ele>2855.800</ele>
        <time>2020-05-21T21:50:15Z</time>
        <name>WPT.1388</name>
      </trkpt>
      <trkpt lat="35.826492210" lon="-105.627611460">
        <ele>2856.300</ele>
        <time>2020-05-21T21:50:19Z</time>
        <name>WPT.1389</name>
      </trkpt>
      <trkpt lat="35.826516750" lon="-105.627652230">
        <ele>2857.000</ele>
        <time>2020-05-21T21:50:23Z</time>
        <name>WPT.1390</name>
      </trkpt>
      <trkpt lat="35.826538810" lon="-105.627690960">
        <ele>2858.300</ele>
        <time>2020-05-21T21:50:27Z</time>
        <name>WPT.1391</name>
      </trkpt>
      <trkpt lat="35.826559100" lon="-105.627734830">
        <ele>2859.100</ele>
        <time>2020-05-21T21:50:31Z</time>
        <name>WPT.1392</name>
      </trkpt>
      <trkpt lat="35.826587650" lon="-105.627775890">
        <ele>2858.400</ele>
        <time>2020-05-21T21:50:35Z</time>
        <name>WPT.1393</name>
      </trkpt>
      <trkpt lat="35.826621880" lon="-105.627799050">
        <ele>2857.000</ele>
        <time>2020-05-21T21:50:38Z</time>
        <name>WPT.1394</name>
      </trkpt>
      <trkpt lat="35.826663380" lon="-105.627806250">
        <ele>2856.300</ele>
        <time>2020-05-21T21:50:41Z</time>
        <name>WPT.1395</name>
      </trkpt>
      <trkpt lat="35.826699550" lon="-105.627811520">
        <ele>2855.400</ele>
        <time>2020-05-21T21:50:44Z</time>
        <name>WPT.1396</name>
      </trkpt>
      <trkpt lat="35.826734240" lon="-105.627838410">
        <ele>2854.100</ele>
        <time>2020-05-21T21:50:48Z</time>
        <name>WPT.1397</name>
      </trkpt>
      <trkpt lat="35.826761470" lon="-105.627882580">
        <ele>2853.100</ele>
        <time>2020-05-21T21:50:54Z</time>
        <name>WPT.1398</name>
      </trkpt>
      <trkpt lat="35.826791310" lon="-105.627913350">
        <ele>2851.400</ele>
        <time>2020-05-21T21:50:57Z</time>
        <name>WPT.1399</name>
      </trkpt>
      <trkpt lat="35.826835940" lon="-105.627921220">
        <ele>2849.200</ele>
        <time>2020-05-21T21:51:01Z</time>
        <name>WPT.1400</name>
      </trkpt>
      <trkpt lat="35.826872430" lon="-105.627919080">
        <ele>2848.400</ele>
        <time>2020-05-21T21:51:05Z</time>
        <name>WPT.1401</name>
      </trkpt>
      <trkpt lat="35.826911050" lon="-105.627903450">
        <ele>2850.000</ele>
        <time>2020-05-21T21:51:09Z</time>
        <name>WPT.1402</name>
      </trkpt>
      <trkpt lat="35.826948200" lon="-105.627920710">
        <ele>2853.700</ele>
        <time>2020-05-21T21:51:13Z</time>
        <name>WPT.1403</name>
      </trkpt>
      <trkpt lat="35.826987080" lon="-105.627932020">
        <ele>2853.200</ele>
        <time>2020-05-21T21:51:17Z</time>
        <name>WPT.1404</name>
      </trkpt>
      <trkpt lat="35.827029670" lon="-105.627932390">
        <ele>2852.600</ele>
        <time>2020-05-21T21:51:20Z</time>
        <name>WPT.1405</name>
      </trkpt>
      <trkpt lat="35.827073420" lon="-105.627919650">
        <ele>2852.900</ele>
        <time>2020-05-21T21:51:24Z</time>
        <name>WPT.1406</name>
      </trkpt>
      <trkpt lat="35.827106360" lon="-105.627899390">
        <ele>2852.300</ele>
        <time>2020-05-21T21:51:27Z</time>
        <name>WPT.1407</name>
      </trkpt>
      <trkpt lat="35.827145970" lon="-105.627893970">
        <ele>2852.300</ele>
        <time>2020-05-21T21:51:31Z</time>
        <name>WPT.1408</name>
      </trkpt>
      <trkpt lat="35.827181990" lon="-105.627886270">
        <ele>2852.400</ele>
        <time>2020-05-21T21:51:34Z</time>
        <name>WPT.1409</name>
      </trkpt>
      <trkpt lat="35.827220050" lon="-105.627867390">
        <ele>2853.000</ele>
        <time>2020-05-21T21:51:37Z</time>
        <name>WPT.1410</name>
      </trkpt>
      <trkpt lat="35.827249550" lon="-105.627840670">
        <ele>2852.600</ele>
        <time>2020-05-21T21:51:40Z</time>
        <name>WPT.1411</name>
      </trkpt>
      <trkpt lat="35.827278790" lon="-105.627797890">
        <ele>2852.000</ele>
        <time>2020-05-21T21:51:45Z</time>
        <name>WPT.1412</name>
      </trkpt>
      <trkpt lat="35.827308950" lon="-105.627770380">
        <ele>2849.800</ele>
        <time>2020-05-21T21:51:48Z</time>
        <name>WPT.1413</name>
      </trkpt>
      <trkpt lat="35.827345180" lon="-105.627769020">
        <ele>2851.800</ele>
        <time>2020-05-21T21:51:53Z</time>
        <name>WPT.1414</name>
      </trkpt>
      <trkpt lat="35.827385440" lon="-105.627759390">
        <ele>2851.100</ele>
        <time>2020-05-21T21:51:57Z</time>
        <name>WPT.1415</name>
      </trkpt>
      <trkpt lat="35.827422390" lon="-105.627732140">
        <ele>2850.100</ele>
        <time>2020-05-21T21:52:01Z</time>
        <name>WPT.1416</name>
      </trkpt>
      <trkpt lat="35.827436490" lon="-105.627776150">
        <ele>2847.500</ele>
        <time>2020-05-21T21:52:14Z</time>
        <name>WPT.1417</name>
      </trkpt>
      <trkpt lat="35.827418230" lon="-105.627818340">
        <ele>2847.600</ele>
        <time>2020-05-21T21:52:21Z</time>
        <name>WPT.1418</name>
      </trkpt>
      <trkpt lat="35.827392400" lon="-105.627857490">
        <ele>2845.700</ele>
        <time>2020-05-21T21:52:29Z</time>
        <name>WPT.1419</name>
      </trkpt>
      <trkpt lat="35.827403460" lon="-105.627908640">
        <ele>2846.100</ele>
        <time>2020-05-21T21:52:34Z</time>
        <name>WPT.1420</name>
      </trkpt>
      <trkpt lat="35.827390850" lon="-105.627957300">
        <ele>2846.600</ele>
        <time>2020-05-21T21:52:38Z</time>
        <name>WPT.1421</name>
      </trkpt>
      <trkpt lat="35.827361570" lon="-105.627991590">
        <ele>2851.700</ele>
        <time>2020-05-21T21:52:44Z</time>
        <name>WPT.1422</name>
      </trkpt>
      <trkpt lat="35.827332410" lon="-105.628021520">
        <ele>2855.200</ele>
        <time>2020-05-21T21:52:53Z</time>
        <name>WPT.1423</name>
      </trkpt>
      <trkpt lat="35.827328620" lon="-105.628078290">
        <ele>2853.300</ele>
        <time>2020-05-21T21:52:57Z</time>
        <name>WPT.1424</name>
      </trkpt>
      <trkpt lat="35.827320820" lon="-105.628127440">
        <ele>2850.000</ele>
        <time>2020-05-21T21:53:01Z</time>
        <name>WPT.1425</name>
      </trkpt>
      <trkpt lat="35.827281390" lon="-105.628139040">
        <ele>2851.400</ele>
        <time>2020-05-21T21:53:07Z</time>
        <name>WPT.1426</name>
      </trkpt>
      <trkpt lat="35.827272110" lon="-105.628183340">
        <ele>2851.000</ele>
        <time>2020-05-21T21:53:10Z</time>
        <name>WPT.1427</name>
      </trkpt>
      <trkpt lat="35.827274920" lon="-105.628235980">
        <ele>2850.200</ele>
        <time>2020-05-21T21:53:14Z</time>
        <name>WPT.1428</name>
      </trkpt>
      <trkpt lat="35.827270510" lon="-105.628287910">
        <ele>2850.400</ele>
        <time>2020-05-21T21:53:19Z</time>
        <name>WPT.1429</name>
      </trkpt>
      <trkpt lat="35.827256230" lon="-105.628330020">
        <ele>2851.100</ele>
        <time>2020-05-21T21:53:22Z</time>
        <name>WPT.1430</name>
      </trkpt>
      <trkpt lat="35.827243850" lon="-105.628378380">
        <ele>2852.800</ele>
        <time>2020-05-21T21:53:26Z</time>
        <name>WPT.1431</name>
      </trkpt>
      <trkpt lat="35.827231220" lon="-105.628424200">
        <ele>2853.100</ele>
        <time>2020-05-21T21:53:33Z</time>
        <name>WPT.1432</name>
      </trkpt>
      <trkpt lat="35.827234050" lon="-105.628482400">
        <ele>2847.400</ele>
        <time>2020-05-21T21:53:37Z</time>
        <name>WPT.1433</name>
      </trkpt>
      <trkpt lat="35.827241580" lon="-105.628526860">
        <ele>2847.200</ele>
        <time>2020-05-21T21:53:40Z</time>
        <name>WPT.1434</name>
      </trkpt>
      <trkpt lat="35.827268300" lon="-105.628564930">
        <ele>2846.200</ele>
        <time>2020-05-21T21:53:44Z</time>
        <name>WPT.1435</name>
      </trkpt>
      <trkpt lat="35.827287620" lon="-105.628606050">
        <ele>2841.900</ele>
        <time>2020-05-21T21:53:48Z</time>
        <name>WPT.1436</name>
      </trkpt>
      <trkpt lat="35.827318810" lon="-105.628633280">
        <ele>2841.600</ele>
        <time>2020-05-21T21:53:52Z</time>
        <name>WPT.1437</name>
      </trkpt>
      <trkpt lat="35.827350730" lon="-105.628662910">
        <ele>2841.900</ele>
        <time>2020-05-21T21:53:56Z</time>
        <name>WPT.1438</name>
      </trkpt>
      <trkpt lat="35.827380500" lon="-105.628696870">
        <ele>2842.500</ele>
        <time>2020-05-21T21:54:06Z</time>
        <name>WPT.1439</name>
      </trkpt>
      <trkpt lat="35.827416280" lon="-105.628720880">
        <ele>2837.900</ele>
        <time>2020-05-21T21:54:14Z</time>
        <name>WPT.1440</name>
      </trkpt>
      <trkpt lat="35.827449910" lon="-105.628739660">
        <ele>2835.100</ele>
        <time>2020-05-21T21:54:18Z</time>
        <name>WPT.1441</name>
      </trkpt>
      <trkpt lat="35.827488190" lon="-105.628741130">
        <ele>2833.800</ele>
        <time>2020-05-21T21:54:23Z</time>
        <name>WPT.1442</name>
      </trkpt>
      <trkpt lat="35.827523180" lon="-105.628730450">
        <ele>2834.100</ele>
        <time>2020-05-21T21:55:03Z</time>
        <name>WPT.1443</name>
      </trkpt>
      <trkpt lat="35.827557340" lon="-105.628707130">
        <ele>2832.900</ele>
        <time>2020-05-21T21:55:19Z</time>
        <name>WPT.1444</name>
      </trkpt>
      <trkpt lat="35.827595370" lon="-105.628699520">
        <ele>2831.700</ele>
        <time>2020-05-21T21:55:27Z</time>
        <name>WPT.1445</name>
      </trkpt>
      <trkpt lat="35.827626160" lon="-105.628675520">
        <ele>2832.300</ele>
        <time>2020-05-21T21:56:05Z</time>
        <name>WPT.1446</name>
      </trkpt>
      <trkpt lat="35.827665740" lon="-105.628670210">
        <ele>2832.800</ele>
        <time>2020-05-21T21:56:10Z</time>
        <name>WPT.1447</name>
      </trkpt>
      <trkpt lat="35.827706760" lon="-105.628676510">
        <ele>2833.000</ele>
        <time>2020-05-21T21:56:14Z</time>
        <name>WPT.1448</name>
      </trkpt>
      <trkpt lat="35.827748550" lon="-105.628674640">
        <ele>2829.000</ele>
        <time>2020-05-21T21:56:19Z</time>
        <name>WPT.1449</name>
      </trkpt>
      <trkpt lat="35.827789590" lon="-105.628676810">
        <ele>2827.700</ele>
        <time>2020-05-21T21:56:23Z</time>
        <name>WPT.1450</name>
      </trkpt>
      <trkpt lat="35.827829190" lon="-105.628696600">
        <ele>2827.900</ele>
        <time>2020-05-21T21:56:39Z</time>
        <name>WPT.1451</name>
      </trkpt>
      <trkpt lat="35.827840500" lon="-105.628741600">
        <ele>2828.800</ele>
        <time>2020-05-21T21:57:07Z</time>
        <name>WPT.1452</name>
      </trkpt>
      <trkpt lat="35.827851060" lon="-105.628788400">
        <ele>2829.400</ele>
        <time>2020-05-21T21:57:14Z</time>
        <name>WPT.1453</name>
      </trkpt>
      <trkpt lat="35.827850410" lon="-105.628843600">
        <ele>2831.400</ele>
        <time>2020-05-21T21:57:21Z</time>
        <name>WPT.1454</name>
      </trkpt>
      <trkpt lat="35.827852890" lon="-105.628897200">
        <ele>2829.500</ele>
        <time>2020-05-21T21:57:26Z</time>
        <name>WPT.1455</name>
      </trkpt>
      <trkpt lat="35.827871740" lon="-105.628939700">
        <ele>2829.100</ele>
        <time>2020-05-21T21:57:31Z</time>
        <name>WPT.1456</name>
      </trkpt>
      <trkpt lat="35.827887200" lon="-105.628987790">
        <ele>2825.400</ele>
        <time>2020-05-21T21:57:35Z</time>
        <name>WPT.1457</name>
      </trkpt>
      <trkpt lat="35.827877350" lon="-105.629034710">
        <ele>2825.900</ele>
        <time>2020-05-21T21:57:41Z</time>
        <name>WPT.1458</name>
      </trkpt>
      <trkpt lat="35.827851890" lon="-105.629074860">
        <ele>2824.500</ele>
        <time>2020-05-21T21:57:47Z</time>
        <name>WPT.1459</name>
      </trkpt>
      <trkpt lat="35.827853430" lon="-105.629120660">
        <ele>2825.500</ele>
        <time>2020-05-21T21:57:52Z</time>
        <name>WPT.1460</name>
      </trkpt>
      <trkpt lat="35.827851370" lon="-105.629171450">
        <ele>2826.800</ele>
        <time>2020-05-21T21:57:59Z</time>
        <name>WPT.1461</name>
      </trkpt>
      <trkpt lat="35.827850050" lon="-105.629216780">
        <ele>2830.300</ele>
        <time>2020-05-21T21:58:04Z</time>
        <name>WPT.1462</name>
      </trkpt>
      <trkpt lat="35.827871310" lon="-105.629252550">
        <ele>2826.600</ele>
        <time>2020-05-21T21:58:48Z</time>
        <name>WPT.1463</name>
      </trkpt>
      <trkpt lat="35.827847530" lon="-105.629294900">
        <ele>2826.400</ele>
        <time>2020-05-21T21:59:04Z</time>
        <name>WPT.1464</name>
      </trkpt>
      <trkpt lat="35.827837120" lon="-105.629342700">
        <ele>2827.300</ele>
        <time>2020-05-21T21:59:09Z</time>
        <name>WPT.1465</name>
      </trkpt>
      <trkpt lat="35.827841750" lon="-105.629399690">
        <ele>2827.000</ele>
        <time>2020-05-21T21:59:14Z</time>
        <name>WPT.1466</name>
      </trkpt>
      <trkpt lat="35.827847200" lon="-105.629454150">
        <ele>2827.400</ele>
        <time>2020-05-21T21:59:20Z</time>
        <name>WPT.1467</name>
      </trkpt>
      <trkpt lat="35.827848130" lon="-105.629499330">
        <ele>2828.600</ele>
        <time>2020-05-21T21:59:28Z</time>
        <name>WPT.1468</name>
      </trkpt>
      <trkpt lat="35.827855490" lon="-105.629554020">
        <ele>2826.800</ele>
        <time>2020-05-21T21:59:34Z</time>
        <name>WPT.1469</name>
      </trkpt>
      <trkpt lat="35.827862690" lon="-105.629599360">
        <ele>2824.700</ele>
        <time>2020-05-21T21:59:37Z</time>
        <name>WPT.1470</name>
      </trkpt>
      <trkpt lat="35.827858390" lon="-105.629651840">
        <ele>2823.500</ele>
        <time>2020-05-21T21:59:42Z</time>
        <name>WPT.1471</name>
      </trkpt>
      <trkpt lat="35.827856020" lon="-105.629699860">
        <ele>2823.200</ele>
        <time>2020-05-21T21:59:46Z</time>
        <name>WPT.1472</name>
      </trkpt>
      <trkpt lat="35.827851910" lon="-105.629750890">
        <ele>2824.800</ele>
        <time>2020-05-21T21:59:52Z</time>
        <name>WPT.1473</name>
      </trkpt>
      <trkpt lat="35.827839570" lon="-105.629798010">
        <ele>2825.900</ele>
        <time>2020-05-21T21:59:58Z</time>
        <name>WPT.1474</name>
      </trkpt>
      <trkpt lat="35.827844500" lon="-105.629853810">
        <ele>2824.300</ele>
        <time>2020-05-21T22:00:02Z</time>
        <name>WPT.1475</name>
      </trkpt>
      <trkpt lat="35.827846090" lon="-105.629902950">
        <ele>2823.600</ele>
        <time>2020-05-21T22:00:06Z</time>
        <name>WPT.1476</name>
      </trkpt>
      <trkpt lat="35.827840220" lon="-105.629950700">
        <ele>2822.500</ele>
        <time>2020-05-21T22:00:11Z</time>
        <name>WPT.1477</name>
      </trkpt>
      <trkpt lat="35.827839190" lon="-105.630005900">
        <ele>2820.700</ele>
        <time>2020-05-21T22:00:16Z</time>
        <name>WPT.1478</name>
      </trkpt>
      <trkpt lat="35.827843340" lon="-105.630061210">
        <ele>2820.400</ele>
        <time>2020-05-21T22:00:21Z</time>
        <name>WPT.1479</name>
      </trkpt>
      <trkpt lat="35.827849260" lon="-105.630112390">
        <ele>2819.900</ele>
        <time>2020-05-21T22:00:42Z</time>
        <name>WPT.1480</name>
      </trkpt>
      <trkpt lat="35.827845710" lon="-105.630164000">
        <ele>2818.500</ele>
        <time>2020-05-21T22:00:46Z</time>
        <name>WPT.1481</name>
      </trkpt>
      <trkpt lat="35.827835150" lon="-105.630213490">
        <ele>2817.200</ele>
        <time>2020-05-21T22:00:50Z</time>
        <name>WPT.1482</name>
      </trkpt>
      <trkpt lat="35.827833930" lon="-105.630262620">
        <ele>2816.400</ele>
        <time>2020-05-21T22:00:54Z</time>
        <name>WPT.1483</name>
      </trkpt>
      <trkpt lat="35.827822050" lon="-105.630309230">
        <ele>2816.800</ele>
        <time>2020-05-21T22:00:59Z</time>
        <name>WPT.1484</name>
      </trkpt>
      <trkpt lat="35.827825560" lon="-105.630356320">
        <ele>2817.700</ele>
        <time>2020-05-21T22:01:04Z</time>
        <name>WPT.1485</name>
      </trkpt>
      <trkpt lat="35.827824450" lon="-105.630401290">
        <ele>2816.100</ele>
        <time>2020-05-21T22:01:08Z</time>
        <name>WPT.1486</name>
      </trkpt>
      <trkpt lat="35.827838440" lon="-105.630443970">
        <ele>2815.800</ele>
        <time>2020-05-21T22:01:14Z</time>
        <name>WPT.1487</name>
      </trkpt>
      <trkpt lat="35.827854570" lon="-105.630485670">
        <ele>2815.600</ele>
        <time>2020-05-21T22:01:18Z</time>
        <name>WPT.1488</name>
      </trkpt>
      <trkpt lat="35.827852050" lon="-105.630537210">
        <ele>2816.200</ele>
        <time>2020-05-21T22:01:23Z</time>
        <name>WPT.1489</name>
      </trkpt>
      <trkpt lat="35.827853280" lon="-105.630592200">
        <ele>2814.700</ele>
        <time>2020-05-21T22:01:27Z</time>
        <name>WPT.1490</name>
      </trkpt>
      <trkpt lat="35.827856540" lon="-105.630643290">
        <ele>2813.800</ele>
        <time>2020-05-21T22:01:31Z</time>
        <name>WPT.1491</name>
      </trkpt>
      <trkpt lat="35.827845920" lon="-105.630689330">
        <ele>2813.500</ele>
        <time>2020-05-21T22:01:34Z</time>
        <name>WPT.1492</name>
      </trkpt>
      <trkpt lat="35.827836400" lon="-105.630744430">
        <ele>2813.000</ele>
        <time>2020-05-21T22:01:38Z</time>
        <name>WPT.1493</name>
      </trkpt>
      <trkpt lat="35.827834760" lon="-105.630789680">
        <ele>2815.500</ele>
        <time>2020-05-21T22:01:42Z</time>
        <name>WPT.1494</name>
      </trkpt>
      <trkpt lat="35.827840520" lon="-105.630837590">
        <ele>2814.200</ele>
        <time>2020-05-21T22:01:47Z</time>
        <name>WPT.1495</name>
      </trkpt>
      <trkpt lat="35.827838740" lon="-105.630889180">
        <ele>2813.700</ele>
        <time>2020-05-21T22:01:51Z</time>
        <name>WPT.1496</name>
      </trkpt>
      <trkpt lat="35.827858240" lon="-105.630929670">
        <ele>2812.700</ele>
        <time>2020-05-21T22:01:55Z</time>
        <name>WPT.1497</name>
      </trkpt>
      <trkpt lat="35.827856840" lon="-105.630980410">
        <ele>2811.600</ele>
        <time>2020-05-21T22:01:59Z</time>
        <name>WPT.1498</name>
      </trkpt>
      <trkpt lat="35.827865320" lon="-105.631028540">
        <ele>2812.700</ele>
        <time>2020-05-21T22:02:03Z</time>
        <name>WPT.1499</name>
      </trkpt>
      <trkpt lat="35.827859770" lon="-105.631074150">
        <ele>2812.100</ele>
        <time>2020-05-21T22:02:07Z</time>
        <name>WPT.1500</name>
      </trkpt>
      <trkpt lat="35.827848020" lon="-105.631119490">
        <ele>2811.900</ele>
        <time>2020-05-21T22:02:10Z</time>
        <name>WPT.1501</name>
      </trkpt>
      <trkpt lat="35.827839860" lon="-105.631173120">
        <ele>2809.000</ele>
        <time>2020-05-21T22:02:14Z</time>
        <name>WPT.1502</name>
      </trkpt>
      <trkpt lat="35.827827560" lon="-105.631217140">
        <ele>2810.600</ele>
        <time>2020-05-21T22:02:18Z</time>
        <name>WPT.1503</name>
      </trkpt>
      <trkpt lat="35.827829280" lon="-105.631265110">
        <ele>2811.100</ele>
        <time>2020-05-21T22:02:23Z</time>
        <name>WPT.1504</name>
      </trkpt>
      <trkpt lat="35.827810760" lon="-105.631311610">
        <ele>2810.200</ele>
        <time>2020-05-21T22:02:28Z</time>
        <name>WPT.1505</name>
      </trkpt>
      <trkpt lat="35.827814880" lon="-105.631358110">
        <ele>2811.300</ele>
        <time>2020-05-21T22:02:34Z</time>
        <name>WPT.1506</name>
      </trkpt>
      <trkpt lat="35.827820160" lon="-105.631406670">
        <ele>2810.600</ele>
        <time>2020-05-21T22:02:40Z</time>
        <name>WPT.1507</name>
      </trkpt>
      <trkpt lat="35.827817600" lon="-105.631452060">
        <ele>2808.500</ele>
        <time>2020-05-21T22:02:44Z</time>
        <name>WPT.1508</name>
      </trkpt>
      <trkpt lat="35.827805050" lon="-105.631497590">
        <ele>2805.700</ele>
        <time>2020-05-21T22:02:49Z</time>
        <name>WPT.1509</name>
      </trkpt>
      <trkpt lat="35.827801570" lon="-105.631541840">
        <ele>2808.900</ele>
        <time>2020-05-21T22:02:54Z</time>
        <name>WPT.1510</name>
      </trkpt>
      <trkpt lat="35.827810500" lon="-105.631591540">
        <ele>2806.600</ele>
        <time>2020-05-21T22:03:00Z</time>
        <name>WPT.1511</name>
      </trkpt>
      <trkpt lat="35.827811760" lon="-105.631636210">
        <ele>2807.500</ele>
        <time>2020-05-21T22:03:05Z</time>
        <name>WPT.1512</name>
      </trkpt>
      <trkpt lat="35.827801250" lon="-105.631686150">
        <ele>2805.600</ele>
        <time>2020-05-21T22:03:11Z</time>
        <name>WPT.1513</name>
      </trkpt>
      <trkpt lat="35.827795790" lon="-105.631738460">
        <ele>2802.700</ele>
        <time>2020-05-21T22:03:15Z</time>
        <name>WPT.1514</name>
      </trkpt>
      <trkpt lat="35.827809310" lon="-105.631789480">
        <ele>2801.600</ele>
        <time>2020-05-21T22:03:19Z</time>
        <name>WPT.1515</name>
      </trkpt>
      <trkpt lat="35.827824540" lon="-105.631829740">
        <ele>2799.800</ele>
        <time>2020-05-21T22:03:23Z</time>
        <name>WPT.1516</name>
      </trkpt>
      <trkpt lat="35.827848340" lon="-105.631863570">
        <ele>2798.500</ele>
        <time>2020-05-21T22:03:27Z</time>
        <name>WPT.1517</name>
      </trkpt>
      <trkpt lat="35.827865490" lon="-105.631903580">
        <ele>2801.100</ele>
        <time>2020-05-21T22:03:31Z</time>
        <name>WPT.1518</name>
      </trkpt>
      <trkpt lat="35.827871810" lon="-105.631956320">
        <ele>2799.900</ele>
        <time>2020-05-21T22:03:36Z</time>
        <name>WPT.1519</name>
      </trkpt>
      <trkpt lat="35.827874710" lon="-105.632004870">
        <ele>2801.700</ele>
        <time>2020-05-21T22:03:42Z</time>
        <name>WPT.1520</name>
      </trkpt>
      <trkpt lat="35.827864520" lon="-105.632050960">
        <ele>2800.400</ele>
        <time>2020-05-21T22:03:50Z</time>
        <name>WPT.1521</name>
      </trkpt>
      <trkpt lat="35.827844410" lon="-105.632099370">
        <ele>2799.400</ele>
        <time>2020-05-21T22:03:57Z</time>
        <name>WPT.1522</name>
      </trkpt>
      <trkpt lat="35.827839190" lon="-105.632143570">
        <ele>2798.400</ele>
        <time>2020-05-21T22:04:02Z</time>
        <name>WPT.1523</name>
      </trkpt>
      <trkpt lat="35.827852050" lon="-105.632186800">
        <ele>2798.600</ele>
        <time>2020-05-21T22:04:06Z</time>
        <name>WPT.1524</name>
      </trkpt>
      <trkpt lat="35.827861770" lon="-105.632234260">
        <ele>2798.200</ele>
        <time>2020-05-21T22:04:10Z</time>
        <name>WPT.1525</name>
      </trkpt>
      <trkpt lat="35.827866530" lon="-105.632280610">
        <ele>2797.900</ele>
        <time>2020-05-21T22:04:14Z</time>
        <name>WPT.1526</name>
      </trkpt>
      <trkpt lat="35.827879830" lon="-105.632333870">
        <ele>2798.400</ele>
        <time>2020-05-21T22:04:19Z</time>
        <name>WPT.1527</name>
      </trkpt>
      <trkpt lat="35.827903180" lon="-105.632368430">
        <ele>2799.300</ele>
        <time>2020-05-21T22:04:22Z</time>
        <name>WPT.1528</name>
      </trkpt>
      <trkpt lat="35.827919690" lon="-105.632418520">
        <ele>2797.400</ele>
        <time>2020-05-21T22:04:26Z</time>
        <name>WPT.1529</name>
      </trkpt>
      <trkpt lat="35.827954100" lon="-105.632444590">
        <ele>2798.100</ele>
        <time>2020-05-21T22:04:30Z</time>
        <name>WPT.1530</name>
      </trkpt>
      <trkpt lat="35.827981550" lon="-105.632491960">
        <ele>2797.700</ele>
        <time>2020-05-21T22:04:35Z</time>
        <name>WPT.1531</name>
      </trkpt>
      <trkpt lat="35.828008950" lon="-105.632536080">
        <ele>2799.800</ele>
        <time>2020-05-21T22:04:40Z</time>
        <name>WPT.1532</name>
      </trkpt>
      <trkpt lat="35.828042460" lon="-105.632552810">
        <ele>2799.300</ele>
        <time>2020-05-21T22:04:43Z</time>
        <name>WPT.1533</name>
      </trkpt>
      <trkpt lat="35.828076060" lon="-105.632579950">
        <ele>2797.800</ele>
        <time>2020-05-21T22:04:47Z</time>
        <name>WPT.1534</name>
      </trkpt>
      <trkpt lat="35.828102080" lon="-105.632611520">
        <ele>2797.500</ele>
        <time>2020-05-21T22:04:51Z</time>
        <name>WPT.1535</name>
      </trkpt>
      <trkpt lat="35.828145370" lon="-105.632626060">
        <ele>2796.700</ele>
        <time>2020-05-21T22:04:56Z</time>
        <name>WPT.1536</name>
      </trkpt>
      <trkpt lat="35.828185150" lon="-105.632622640">
        <ele>2796.300</ele>
        <time>2020-05-21T22:05:00Z</time>
        <name>WPT.1537</name>
      </trkpt>
      <trkpt lat="35.828223440" lon="-105.632621170">
        <ele>2796.100</ele>
        <time>2020-05-21T22:05:04Z</time>
        <name>WPT.1538</name>
      </trkpt>
      <trkpt lat="35.828268060" lon="-105.632614300">
        <ele>2795.800</ele>
        <time>2020-05-21T22:05:08Z</time>
        <name>WPT.1539</name>
      </trkpt>
      <trkpt lat="35.828304210" lon="-105.632592990">
        <ele>2795.100</ele>
        <time>2020-05-21T22:05:12Z</time>
        <name>WPT.1540</name>
      </trkpt>
      <trkpt lat="35.828340090" lon="-105.632572740">
        <ele>2793.300</ele>
        <time>2020-05-21T22:05:16Z</time>
        <name>WPT.1541</name>
      </trkpt>
      <trkpt lat="35.828378710" lon="-105.632563190">
        <ele>2793.800</ele>
        <time>2020-05-21T22:05:20Z</time>
        <name>WPT.1542</name>
      </trkpt>
      <trkpt lat="35.828416230" lon="-105.632554620">
        <ele>2793.900</ele>
        <time>2020-05-21T22:05:24Z</time>
        <name>WPT.1543</name>
      </trkpt>
      <trkpt lat="35.828458230" lon="-105.632553470">
        <ele>2792.600</ele>
        <time>2020-05-21T22:05:29Z</time>
        <name>WPT.1544</name>
      </trkpt>
      <trkpt lat="35.828493970" lon="-105.632536530">
        <ele>2791.800</ele>
        <time>2020-05-21T22:05:33Z</time>
        <name>WPT.1545</name>
      </trkpt>
      <trkpt lat="35.828531220" lon="-105.632526770">
        <ele>2793.000</ele>
        <time>2020-05-21T22:05:38Z</time>
        <name>WPT.1546</name>
      </trkpt>
      <trkpt lat="35.828569000" lon="-105.632518530">
        <ele>2792.100</ele>
        <time>2020-05-21T22:05:43Z</time>
        <name>WPT.1547</name>
      </trkpt>
      <trkpt lat="35.828612250" lon="-105.632520340">
        <ele>2792.500</ele>
        <time>2020-05-21T22:05:48Z</time>
        <name>WPT.1548</name>
      </trkpt>
      <trkpt lat="35.828650750" lon="-105.632517930">
        <ele>2791.400</ele>
        <time>2020-05-21T22:05:52Z</time>
        <name>WPT.1549</name>
      </trkpt>
      <trkpt lat="35.828691050" lon="-105.632509240">
        <ele>2790.300</ele>
        <time>2020-05-21T22:05:56Z</time>
        <name>WPT.1550</name>
      </trkpt>
      <trkpt lat="35.828725830" lon="-105.632495090">
        <ele>2790.300</ele>
        <time>2020-05-21T22:06:00Z</time>
        <name>WPT.1551</name>
      </trkpt>
      <trkpt lat="35.828761700" lon="-105.632482630">
        <ele>2790.900</ele>
        <time>2020-05-21T22:06:04Z</time>
        <name>WPT.1552</name>
      </trkpt>
      <trkpt lat="35.828800460" lon="-105.632462910">
        <ele>2789.600</ele>
        <time>2020-05-21T22:06:08Z</time>
        <name>WPT.1553</name>
      </trkpt>
      <trkpt lat="35.828838240" lon="-105.632450740">
        <ele>2789.600</ele>
        <time>2020-05-21T22:06:13Z</time>
        <name>WPT.1554</name>
      </trkpt>
      <trkpt lat="35.828882620" lon="-105.632453920">
        <ele>2790.500</ele>
        <time>2020-05-21T22:06:21Z</time>
        <name>WPT.1555</name>
      </trkpt>
      <trkpt lat="35.828925250" lon="-105.632454960">
        <ele>2790.000</ele>
        <time>2020-05-21T22:06:26Z</time>
        <name>WPT.1556</name>
      </trkpt>
      <trkpt lat="35.828963570" lon="-105.632459200">
        <ele>2790.600</ele>
        <time>2020-05-21T22:06:31Z</time>
        <name>WPT.1557</name>
      </trkpt>
      <trkpt lat="35.829005980" lon="-105.632444800">
        <ele>2789.000</ele>
        <time>2020-05-21T22:06:37Z</time>
        <name>WPT.1558</name>
      </trkpt>
      <trkpt lat="35.829048880" lon="-105.632433750">
        <ele>2789.700</ele>
        <time>2020-05-21T22:06:42Z</time>
        <name>WPT.1559</name>
      </trkpt>
      <trkpt lat="35.829083040" lon="-105.632410450">
        <ele>2790.100</ele>
        <time>2020-05-21T22:06:46Z</time>
        <name>WPT.1560</name>
      </trkpt>
      <trkpt lat="35.829117430" lon="-105.632393260">
        <ele>2791.100</ele>
        <time>2020-05-21T22:06:50Z</time>
        <name>WPT.1561</name>
      </trkpt>
      <trkpt lat="35.829153020" lon="-105.632367630">
        <ele>2791.000</ele>
        <time>2020-05-21T22:06:54Z</time>
        <name>WPT.1562</name>
      </trkpt>
      <trkpt lat="35.829185250" lon="-105.632347010">
        <ele>2791.000</ele>
        <time>2020-05-21T22:06:59Z</time>
        <name>WPT.1563</name>
      </trkpt>
      <trkpt lat="35.829220970" lon="-105.632321280">
        <ele>2790.400</ele>
        <time>2020-05-21T22:07:04Z</time>
        <name>WPT.1564</name>
      </trkpt>
      <trkpt lat="35.829257430" lon="-105.632305090">
        <ele>2790.400</ele>
        <time>2020-05-21T22:07:08Z</time>
        <name>WPT.1565</name>
      </trkpt>
      <trkpt lat="35.829289420" lon="-105.632278740">
        <ele>2789.700</ele>
        <time>2020-05-21T22:07:12Z</time>
        <name>WPT.1566</name>
      </trkpt>
      <trkpt lat="35.829330360" lon="-105.632268940">
        <ele>2790.200</ele>
        <time>2020-05-21T22:07:16Z</time>
        <name>WPT.1567</name>
      </trkpt>
      <trkpt lat="35.829360930" lon="-105.632244690">
        <ele>2789.500</ele>
        <time>2020-05-21T22:07:21Z</time>
        <name>WPT.1568</name>
      </trkpt>
      <trkpt lat="35.829397840" lon="-105.632232170">
        <ele>2789.800</ele>
        <time>2020-05-21T22:07:26Z</time>
        <name>WPT.1569</name>
      </trkpt>
      <trkpt lat="35.829440860" lon="-105.632226990">
        <ele>2790.300</ele>
        <time>2020-05-21T22:07:31Z</time>
        <name>WPT.1570</name>
      </trkpt>
      <trkpt lat="35.829486140" lon="-105.632220680">
        <ele>2789.900</ele>
        <time>2020-05-21T22:07:35Z</time>
        <name>WPT.1571</name>
      </trkpt>
      <trkpt lat="35.829524880" lon="-105.632210420">
        <ele>2788.100</ele>
        <time>2020-05-21T22:07:40Z</time>
        <name>WPT.1572</name>
      </trkpt>
      <trkpt lat="35.829561260" lon="-105.632225320">
        <ele>2788.300</ele>
        <time>2020-05-21T22:07:50Z</time>
        <name>WPT.1573</name>
      </trkpt>
      <trkpt lat="35.829599890" lon="-105.632227750">
        <ele>2787.900</ele>
        <time>2020-05-21T22:07:55Z</time>
        <name>WPT.1574</name>
      </trkpt>
      <trkpt lat="35.829634800" lon="-105.632254040">
        <ele>2787.000</ele>
        <time>2020-05-21T22:08:01Z</time>
        <name>WPT.1575</name>
      </trkpt>
      <trkpt lat="35.829666680" lon="-105.632281900">
        <ele>2786.700</ele>
        <time>2020-05-21T22:08:07Z</time>
        <name>WPT.1576</name>
      </trkpt>
      <trkpt lat="35.829703430" lon="-105.632287680">
        <ele>2785.100</ele>
        <time>2020-05-21T22:08:28Z</time>
        <name>WPT.1577</name>
      </trkpt>
      <trkpt lat="35.829739280" lon="-105.632311110">
        <ele>2784.000</ele>
        <time>2020-05-21T22:08:36Z</time>
        <name>WPT.1578</name>
      </trkpt>
      <trkpt lat="35.829770210" lon="-105.632341980">
        <ele>2781.800</ele>
        <time>2020-05-21T22:08:43Z</time>
        <name>WPT.1579</name>
      </trkpt>
      <trkpt lat="35.829801660" lon="-105.632370250">
        <ele>2780.200</ele>
        <time>2020-05-21T22:08:51Z</time>
        <name>WPT.1580</name>
      </trkpt>
      <trkpt lat="35.829823080" lon="-105.632409360">
        <ele>2781.100</ele>
        <time>2020-05-21T22:08:56Z</time>
        <name>WPT.1581</name>
      </trkpt>
      <trkpt lat="35.829860720" lon="-105.632425110">
        <ele>2783.500</ele>
        <time>2020-05-21T22:09:01Z</time>
        <name>WPT.1582</name>
      </trkpt>
      <trkpt lat="35.829902020" lon="-105.632440230">
        <ele>2782.800</ele>
        <time>2020-05-21T22:09:06Z</time>
        <name>WPT.1583</name>
      </trkpt>
      <trkpt lat="35.829928040" lon="-105.632478620">
        <ele>2782.200</ele>
        <time>2020-05-21T22:09:11Z</time>
        <name>WPT.1584</name>
      </trkpt>
      <trkpt lat="35.829950790" lon="-105.632516430">
        <ele>2778.600</ele>
        <time>2020-05-21T22:09:15Z</time>
        <name>WPT.1585</name>
      </trkpt>
      <trkpt lat="35.829965280" lon="-105.632560800">
        <ele>2776.000</ele>
        <time>2020-05-21T22:09:19Z</time>
        <name>WPT.1586</name>
      </trkpt>
      <trkpt lat="35.829967760" lon="-105.632609620">
        <ele>2773.900</ele>
        <time>2020-05-21T22:09:26Z</time>
        <name>WPT.1587</name>
      </trkpt>
      <trkpt lat="35.829968370" lon="-105.632656680">
        <ele>2771.800</ele>
        <time>2020-05-21T22:09:34Z</time>
        <name>WPT.1588</name>
      </trkpt>
      <trkpt lat="35.829957080" lon="-105.632706060">
        <ele>2770.700</ele>
        <time>2020-05-21T22:10:16Z</time>
        <name>WPT.1589</name>
      </trkpt>
      <trkpt lat="35.829940690" lon="-105.632752430">
        <ele>2769.300</ele>
        <time>2020-05-21T22:10:20Z</time>
        <name>WPT.1590</name>
      </trkpt>
      <trkpt lat="35.829937840" lon="-105.632797600">
        <ele>2769.600</ele>
        <time>2020-05-21T22:10:24Z</time>
        <name>WPT.1591</name>
      </trkpt>
      <trkpt lat="35.829920770" lon="-105.632837860">
        <ele>2769.800</ele>
        <time>2020-05-21T22:10:31Z</time>
        <name>WPT.1592</name>
      </trkpt>
      <trkpt lat="35.829916760" lon="-105.632884190">
        <ele>2772.100</ele>
        <time>2020-05-21T22:10:38Z</time>
        <name>WPT.1593</name>
      </trkpt>
      <trkpt lat="35.829930810" lon="-105.632926190">
        <ele>2771.900</ele>
        <time>2020-05-21T22:10:42Z</time>
        <name>WPT.1594</name>
      </trkpt>
      <trkpt lat="35.829936400" lon="-105.632971320">
        <ele>2771.200</ele>
        <time>2020-05-21T22:10:46Z</time>
        <name>WPT.1595</name>
      </trkpt>
      <trkpt lat="35.829918090" lon="-105.633009650">
        <ele>2773.400</ele>
        <time>2020-05-21T22:10:53Z</time>
        <name>WPT.1596</name>
      </trkpt>
      <trkpt lat="35.829884660" lon="-105.633028880">
        <ele>2774.500</ele>
        <time>2020-05-21T22:10:58Z</time>
        <name>WPT.1597</name>
      </trkpt>
      <trkpt lat="35.829850630" lon="-105.633056870">
        <ele>2774.900</ele>
        <time>2020-05-21T22:11:03Z</time>
        <name>WPT.1598</name>
      </trkpt>
      <trkpt lat="35.829842910" lon="-105.633106620">
        <ele>2776.000</ele>
        <time>2020-05-21T22:11:09Z</time>
        <name>WPT.1599</name>
      </trkpt>
      <trkpt lat="35.829842780" lon="-105.633157920">
        <ele>2772.400</ele>
        <time>2020-05-21T22:11:12Z</time>
        <name>WPT.1600</name>
      </trkpt>
      <trkpt lat="35.829840310" lon="-105.633204040">
        <ele>2769.400</ele>
        <time>2020-05-21T22:11:14Z</time>
        <name>WPT.1601</name>
      </trkpt>
      <trkpt lat="35.829850310" lon="-105.633256640">
        <ele>2768.800</ele>
        <time>2020-05-21T22:11:18Z</time>
        <name>WPT.1602</name>
      </trkpt>
      <trkpt lat="35.829858930" lon="-105.633307630">
        <ele>2768.300</ele>
        <time>2020-05-21T22:11:23Z</time>
        <name>WPT.1603</name>
      </trkpt>
      <trkpt lat="35.829871140" lon="-105.633353670">
        <ele>2766.500</ele>
        <time>2020-05-21T22:11:48Z</time>
        <name>WPT.1604</name>
      </trkpt>
      <trkpt lat="35.829872910" lon="-105.633397940">
        <ele>2770.000</ele>
        <time>2020-05-21T22:12:00Z</time>
        <name>WPT.1605</name>
      </trkpt>
      <trkpt lat="35.829863540" lon="-105.633441320">
        <ele>2770.100</ele>
        <time>2020-05-21T22:12:06Z</time>
        <name>WPT.1606</name>
      </trkpt>
      <trkpt lat="35.829849080" lon="-105.633484380">
        <ele>2771.200</ele>
        <time>2020-05-21T22:12:12Z</time>
        <name>WPT.1607</name>
      </trkpt>
      <trkpt lat="35.829849920" lon="-105.633528820">
        <ele>2769.400</ele>
        <time>2020-05-21T22:12:18Z</time>
        <name>WPT.1608</name>
      </trkpt>
      <trkpt lat="35.829835160" lon="-105.633570980">
        <ele>2768.800</ele>
        <time>2020-05-21T22:12:24Z</time>
        <name>WPT.1609</name>
      </trkpt>
      <trkpt lat="35.829827410" lon="-105.633615760">
        <ele>2769.700</ele>
        <time>2020-05-21T22:12:29Z</time>
        <name>WPT.1610</name>
      </trkpt>
      <trkpt lat="35.829835630" lon="-105.633662980">
        <ele>2770.400</ele>
        <time>2020-05-21T22:12:33Z</time>
        <name>WPT.1611</name>
      </trkpt>
      <trkpt lat="35.829839600" lon="-105.633711570">
        <ele>2770.700</ele>
        <time>2020-05-21T22:12:39Z</time>
        <name>WPT.1612</name>
      </trkpt>
      <trkpt lat="35.829826690" lon="-105.633762210">
        <ele>2772.400</ele>
        <time>2020-05-21T22:12:43Z</time>
        <name>WPT.1613</name>
      </trkpt>
      <trkpt lat="35.829817560" lon="-105.633815050">
        <ele>2769.400</ele>
        <time>2020-05-21T22:12:47Z</time>
        <name>WPT.1614</name>
      </trkpt>
      <trkpt lat="35.829837040" lon="-105.633858970">
        <ele>2767.500</ele>
        <time>2020-05-21T22:12:53Z</time>
        <name>WPT.1615</name>
      </trkpt>
      <trkpt lat="35.829815460" lon="-105.633910770">
        <ele>2767.100</ele>
        <time>2020-05-21T22:12:57Z</time>
        <name>WPT.1616</name>
      </trkpt>
      <trkpt lat="35.829794040" lon="-105.633947870">
        <ele>2767.500</ele>
        <time>2020-05-21T22:13:00Z</time>
        <name>WPT.1617</name>
      </trkpt>
      <trkpt lat="35.829787190" lon="-105.633999450">
        <ele>2763.600</ele>
        <time>2020-05-21T22:13:05Z</time>
        <name>WPT.1618</name>
      </trkpt>
      <trkpt lat="35.829802650" lon="-105.634043920">
        <ele>2763.800</ele>
        <time>2020-05-21T22:13:09Z</time>
        <name>WPT.1619</name>
      </trkpt>
      <trkpt lat="35.829811310" lon="-105.634095150">
        <ele>2763.900</ele>
        <time>2020-05-21T22:13:16Z</time>
        <name>WPT.1620</name>
      </trkpt>
      <trkpt lat="35.829805670" lon="-105.634146820">
        <ele>2761.500</ele>
        <time>2020-05-21T22:13:22Z</time>
        <name>WPT.1621</name>
      </trkpt>
      <trkpt lat="35.829796090" lon="-105.634190680">
        <ele>2764.300</ele>
        <time>2020-05-21T22:13:37Z</time>
        <name>WPT.1622</name>
      </trkpt>
      <trkpt lat="35.829780710" lon="-105.634234070">
        <ele>2766.400</ele>
        <time>2020-05-21T22:13:45Z</time>
        <name>WPT.1623</name>
      </trkpt>
      <trkpt lat="35.829765530" lon="-105.634282960">
        <ele>2764.800</ele>
        <time>2020-05-21T22:13:53Z</time>
        <name>WPT.1624</name>
      </trkpt>
      <trkpt lat="35.829749910" lon="-105.634328980">
        <ele>2764.900</ele>
        <time>2020-05-21T22:13:58Z</time>
        <name>WPT.1625</name>
      </trkpt>
      <trkpt lat="35.829734580" lon="-105.634370940">
        <ele>2764.800</ele>
        <time>2020-05-21T22:14:01Z</time>
        <name>WPT.1626</name>
      </trkpt>
      <trkpt lat="35.829718950" lon="-105.634415670">
        <ele>2762.400</ele>
        <time>2020-05-21T22:14:06Z</time>
        <name>WPT.1627</name>
      </trkpt>
      <trkpt lat="35.829700150" lon="-105.634461730">
        <ele>2759.700</ele>
        <time>2020-05-21T22:14:11Z</time>
        <name>WPT.1628</name>
      </trkpt>
      <trkpt lat="35.829687510" lon="-105.634504660">
        <ele>2761.600</ele>
        <time>2020-05-21T22:14:14Z</time>
        <name>WPT.1629</name>
      </trkpt>
      <trkpt lat="35.829685280" lon="-105.634552040">
        <ele>2761.600</ele>
        <time>2020-05-21T22:14:19Z</time>
        <name>WPT.1630</name>
      </trkpt>
      <trkpt lat="35.829669860" lon="-105.634595610">
        <ele>2759.800</ele>
        <time>2020-05-21T22:14:29Z</time>
        <name>WPT.1631</name>
      </trkpt>
      <trkpt lat="35.829650500" lon="-105.634639080">
        <ele>2761.000</ele>
        <time>2020-05-21T22:14:40Z</time>
        <name>WPT.1632</name>
      </trkpt>
      <trkpt lat="35.829659250" lon="-105.634684740">
        <ele>2757.700</ele>
        <time>2020-05-21T22:14:56Z</time>
        <name>WPT.1633</name>
      </trkpt>
      <trkpt lat="35.829658400" lon="-105.634730400">
        <ele>2758.200</ele>
        <time>2020-05-21T22:15:14Z</time>
        <name>WPT.1634</name>
      </trkpt>
      <trkpt lat="35.829638430" lon="-105.634774490">
        <ele>2757.400</ele>
        <time>2020-05-21T22:15:19Z</time>
        <name>WPT.1635</name>
      </trkpt>
      <trkpt lat="35.829611730" lon="-105.634811170">
        <ele>2756.800</ele>
        <time>2020-05-21T22:15:26Z</time>
        <name>WPT.1636</name>
      </trkpt>
      <trkpt lat="35.829582160" lon="-105.634854640">
        <ele>2757.100</ele>
        <time>2020-05-21T22:15:31Z</time>
        <name>WPT.1637</name>
      </trkpt>
      <trkpt lat="35.829557490" lon="-105.634896490">
        <ele>2756.700</ele>
        <time>2020-05-21T22:15:35Z</time>
        <name>WPT.1638</name>
      </trkpt>
      <trkpt lat="35.829558060" lon="-105.634949590">
        <ele>2752.600</ele>
        <time>2020-05-21T22:15:40Z</time>
        <name>WPT.1639</name>
      </trkpt>
      <trkpt lat="35.829570460" lon="-105.635002760">
        <ele>2749.000</ele>
        <time>2020-05-21T22:15:46Z</time>
        <name>WPT.1640</name>
      </trkpt>
      <trkpt lat="35.829572560" lon="-105.635056750">
        <ele>2746.200</ele>
        <time>2020-05-21T22:15:50Z</time>
        <name>WPT.1641</name>
      </trkpt>
      <trkpt lat="35.829556390" lon="-105.635101350">
        <ele>2745.300</ele>
        <time>2020-05-21T22:15:54Z</time>
        <name>WPT.1642</name>
      </trkpt>
      <trkpt lat="35.829531020" lon="-105.635132920">
        <ele>2744.100</ele>
        <time>2020-05-21T22:15:59Z</time>
        <name>WPT.1643</name>
      </trkpt>
      <trkpt lat="35.829494690" lon="-105.635151860">
        <ele>2742.200</ele>
        <time>2020-05-21T22:16:05Z</time>
        <name>WPT.1644</name>
      </trkpt>
      <trkpt lat="35.829458030" lon="-105.635157880">
        <ele>2743.700</ele>
        <time>2020-05-21T22:16:09Z</time>
        <name>WPT.1645</name>
      </trkpt>
      <trkpt lat="35.829418830" lon="-105.635165280">
        <ele>2742.900</ele>
        <time>2020-05-21T22:16:13Z</time>
        <name>WPT.1646</name>
      </trkpt>
      <trkpt lat="35.829393650" lon="-105.635202610">
        <ele>2740.100</ele>
        <time>2020-05-21T22:16:23Z</time>
        <name>WPT.1647</name>
      </trkpt>
      <trkpt lat="35.829366840" lon="-105.635238140">
        <ele>2741.200</ele>
        <time>2020-05-21T22:16:27Z</time>
        <name>WPT.1648</name>
      </trkpt>
      <trkpt lat="35.829338790" lon="-105.635268830">
        <ele>2743.700</ele>
        <time>2020-05-21T22:16:31Z</time>
        <name>WPT.1649</name>
      </trkpt>
      <trkpt lat="35.829308210" lon="-105.635301000">
        <ele>2744.100</ele>
        <time>2020-05-21T22:16:36Z</time>
        <name>WPT.1650</name>
      </trkpt>
      <trkpt lat="35.829275970" lon="-105.635330370">
        <ele>2745.900</ele>
        <time>2020-05-21T22:16:42Z</time>
        <name>WPT.1651</name>
      </trkpt>
      <trkpt lat="35.829256020" lon="-105.635372600">
        <ele>2749.200</ele>
        <time>2020-05-21T22:16:49Z</time>
        <name>WPT.1652</name>
      </trkpt>
      <trkpt lat="35.829231710" lon="-105.635406290">
        <ele>2748.700</ele>
        <time>2020-05-21T22:17:02Z</time>
        <name>WPT.1653</name>
      </trkpt>
      <trkpt lat="35.829215250" lon="-105.635449090">
        <ele>2746.100</ele>
        <time>2020-05-21T22:17:06Z</time>
        <name>WPT.1654</name>
      </trkpt>
      <trkpt lat="35.829223530" lon="-105.635496970">
        <ele>2746.700</ele>
        <time>2020-05-21T22:17:09Z</time>
        <name>WPT.1655</name>
      </trkpt>
      <trkpt lat="35.829222290" lon="-105.635553040">
        <ele>2748.500</ele>
        <time>2020-05-21T22:17:13Z</time>
        <name>WPT.1656</name>
      </trkpt>
      <trkpt lat="35.829207260" lon="-105.635596710">
        <ele>2745.900</ele>
        <time>2020-05-21T22:17:18Z</time>
        <name>WPT.1657</name>
      </trkpt>
      <trkpt lat="35.829197910" lon="-105.635649840">
        <ele>2743.500</ele>
        <time>2020-05-21T22:17:22Z</time>
        <name>WPT.1658</name>
      </trkpt>
      <trkpt lat="35.829191030" lon="-105.635695380">
        <ele>2741.800</ele>
        <time>2020-05-21T22:17:26Z</time>
        <name>WPT.1659</name>
      </trkpt>
      <trkpt lat="35.829186170" lon="-105.635741210">
        <ele>2741.400</ele>
        <time>2020-05-21T22:17:30Z</time>
        <name>WPT.1660</name>
      </trkpt>
      <trkpt lat="35.829196360" lon="-105.635796870">
        <ele>2742.500</ele>
        <time>2020-05-21T22:17:35Z</time>
        <name>WPT.1661</name>
      </trkpt>
      <trkpt lat="35.829206760" lon="-105.635843010">
        <ele>2741.400</ele>
        <time>2020-05-21T22:17:38Z</time>
        <name>WPT.1662</name>
      </trkpt>
      <trkpt lat="35.829238500" lon="-105.635877000">
        <ele>2742.800</ele>
        <time>2020-05-21T22:17:42Z</time>
        <name>WPT.1663</name>
      </trkpt>
      <trkpt lat="35.829258860" lon="-105.635926340">
        <ele>2739.100</ele>
        <time>2020-05-21T22:17:48Z</time>
        <name>WPT.1664</name>
      </trkpt>
      <trkpt lat="35.829249580" lon="-105.635969760">
        <ele>2738.300</ele>
        <time>2020-05-21T22:17:54Z</time>
        <name>WPT.1665</name>
      </trkpt>
      <trkpt lat="35.829224450" lon="-105.636006210">
        <ele>2735.200</ele>
        <time>2020-05-21T22:18:04Z</time>
        <name>WPT.1666</name>
      </trkpt>
      <trkpt lat="35.829191190" lon="-105.636041160">
        <ele>2734.000</ele>
        <time>2020-05-21T22:18:08Z</time>
        <name>WPT.1667</name>
      </trkpt>
      <trkpt lat="35.829152360" lon="-105.636064730">
        <ele>2733.400</ele>
        <time>2020-05-21T22:18:19Z</time>
        <name>WPT.1668</name>
      </trkpt>
      <trkpt lat="35.829113920" lon="-105.636074250">
        <ele>2734.200</ele>
        <time>2020-05-21T22:18:24Z</time>
        <name>WPT.1669</name>
      </trkpt>
      <trkpt lat="35.829076570" lon="-105.636077670">
        <ele>2734.400</ele>
        <time>2020-05-21T22:18:28Z</time>
        <name>WPT.1670</name>
      </trkpt>
      <trkpt lat="35.829043320" lon="-105.636102590">
        <ele>2734.600</ele>
        <time>2020-05-21T22:18:33Z</time>
        <name>WPT.1671</name>
      </trkpt>
      <trkpt lat="35.829002570" lon="-105.636125520">
        <ele>2731.900</ele>
        <time>2020-05-21T22:18:38Z</time>
        <name>WPT.1672</name>
      </trkpt>
      <trkpt lat="35.828975310" lon="-105.636160470">
        <ele>2735.500</ele>
        <time>2020-05-21T22:18:43Z</time>
        <name>WPT.1673</name>
      </trkpt>
      <trkpt lat="35.828964530" lon="-105.636211260">
        <ele>2734.900</ele>
        <time>2020-05-21T22:18:47Z</time>
        <name>WPT.1674</name>
      </trkpt>
      <trkpt lat="35.828937690" lon="-105.636247210">
        <ele>2735.500</ele>
        <time>2020-05-21T22:18:51Z</time>
        <name>WPT.1675</name>
      </trkpt>
      <trkpt lat="35.828898730" lon="-105.636271280">
        <ele>2733.700</ele>
        <time>2020-05-21T22:18:55Z</time>
        <name>WPT.1676</name>
      </trkpt>
      <trkpt lat="35.828868930" lon="-105.636302070">
        <ele>2734.500</ele>
        <time>2020-05-21T22:18:59Z</time>
        <name>WPT.1677</name>
      </trkpt>
      <trkpt lat="35.828877910" lon="-105.636345300">
        <ele>2734.100</ele>
        <time>2020-05-21T22:19:05Z</time>
        <name>WPT.1678</name>
      </trkpt>
      <trkpt lat="35.828844410" lon="-105.636380600">
        <ele>2736.600</ele>
        <time>2020-05-21T22:19:27Z</time>
        <name>WPT.1679</name>
      </trkpt>
      <trkpt lat="35.828805790" lon="-105.636388140">
        <ele>2736.500</ele>
        <time>2020-05-21T22:19:30Z</time>
        <name>WPT.1680</name>
      </trkpt>
      <trkpt lat="35.828769570" lon="-105.636414360">
        <ele>2736.400</ele>
        <time>2020-05-21T22:19:35Z</time>
        <name>WPT.1681</name>
      </trkpt>
      <trkpt lat="35.828758160" lon="-105.636462140">
        <ele>2735.500</ele>
        <time>2020-05-21T22:19:40Z</time>
        <name>WPT.1682</name>
      </trkpt>
      <trkpt lat="35.828722550" lon="-105.636484060">
        <ele>2735.000</ele>
        <time>2020-05-21T22:19:45Z</time>
        <name>WPT.1683</name>
      </trkpt>
      <trkpt lat="35.828697710" lon="-105.636521530">
        <ele>2734.800</ele>
        <time>2020-05-21T22:19:50Z</time>
        <name>WPT.1684</name>
      </trkpt>
      <trkpt lat="35.828671150" lon="-105.636562820">
        <ele>2735.400</ele>
        <time>2020-05-21T22:19:54Z</time>
        <name>WPT.1685</name>
      </trkpt>
      <trkpt lat="35.828627590" lon="-105.636589840">
        <ele>2731.700</ele>
        <time>2020-05-21T22:19:58Z</time>
        <name>WPT.1686</name>
      </trkpt>
      <trkpt lat="35.828591220" lon="-105.636615750">
        <ele>2732.800</ele>
        <time>2020-05-21T22:20:02Z</time>
        <name>WPT.1687</name>
      </trkpt>
      <trkpt lat="35.828559460" lon="-105.636641490">
        <ele>2733.700</ele>
        <time>2020-05-21T22:20:06Z</time>
        <name>WPT.1688</name>
      </trkpt>
      <trkpt lat="35.828547110" lon="-105.636689140">
        <ele>2735.200</ele>
        <time>2020-05-21T22:20:10Z</time>
        <name>WPT.1689</name>
      </trkpt>
      <trkpt lat="35.828518200" lon="-105.636730740">
        <ele>2733.500</ele>
        <time>2020-05-21T22:20:14Z</time>
        <name>WPT.1690</name>
      </trkpt>
      <trkpt lat="35.828494390" lon="-105.636774160">
        <ele>2735.400</ele>
        <time>2020-05-21T22:20:19Z</time>
        <name>WPT.1691</name>
      </trkpt>
      <trkpt lat="35.828471650" lon="-105.636808970">
        <ele>2732.800</ele>
        <time>2020-05-21T22:20:23Z</time>
        <name>WPT.1692</name>
      </trkpt>
      <trkpt lat="35.828443920" lon="-105.636850080">
        <ele>2731.400</ele>
        <time>2020-05-21T22:20:28Z</time>
        <name>WPT.1693</name>
      </trkpt>
      <trkpt lat="35.828420680" lon="-105.636886010">
        <ele>2729.500</ele>
        <time>2020-05-21T22:20:33Z</time>
        <name>WPT.1694</name>
      </trkpt>
      <trkpt lat="35.828419090" lon="-105.636934180">
        <ele>2731.400</ele>
        <time>2020-05-21T22:20:37Z</time>
        <name>WPT.1695</name>
      </trkpt>
      <trkpt lat="35.828378400" lon="-105.636957360">
        <ele>2729.400</ele>
        <time>2020-05-21T22:20:44Z</time>
        <name>WPT.1696</name>
      </trkpt>
      <trkpt lat="35.828360560" lon="-105.637002230">
        <ele>2729.900</ele>
        <time>2020-05-21T22:20:48Z</time>
        <name>WPT.1697</name>
      </trkpt>
      <trkpt lat="35.828330560" lon="-105.637037320">
        <ele>2730.300</ele>
        <time>2020-05-21T22:20:53Z</time>
        <name>WPT.1698</name>
      </trkpt>
      <trkpt lat="35.828305610" lon="-105.637078250">
        <ele>2728.700</ele>
        <time>2020-05-21T22:20:58Z</time>
        <name>WPT.1699</name>
      </trkpt>
      <trkpt lat="35.828285360" lon="-105.637118410">
        <ele>2728.000</ele>
        <time>2020-05-21T22:21:04Z</time>
        <name>WPT.1700</name>
      </trkpt>
      <trkpt lat="35.828257310" lon="-105.637151660">
        <ele>2728.000</ele>
        <time>2020-05-21T22:21:09Z</time>
        <name>WPT.1701</name>
      </trkpt>
      <trkpt lat="35.828219450" lon="-105.637169810">
        <ele>2731.200</ele>
        <time>2020-05-21T22:21:16Z</time>
        <name>WPT.1702</name>
      </trkpt>
      <trkpt lat="35.828200660" lon="-105.637218470">
        <ele>2733.500</ele>
        <time>2020-05-21T22:21:21Z</time>
        <name>WPT.1703</name>
      </trkpt>
      <trkpt lat="35.828178770" lon="-105.637262620">
        <ele>2734.500</ele>
        <time>2020-05-21T22:21:27Z</time>
        <name>WPT.1704</name>
      </trkpt>
      <trkpt lat="35.828158570" lon="-105.637301940">
        <ele>2734.900</ele>
        <time>2020-05-21T22:21:31Z</time>
        <name>WPT.1705</name>
      </trkpt>
      <trkpt lat="35.828116820" lon="-105.637318720">
        <ele>2732.500</ele>
        <time>2020-05-21T22:21:35Z</time>
        <name>WPT.1706</name>
      </trkpt>
      <trkpt lat="35.828079800" lon="-105.637343040">
        <ele>2731.500</ele>
        <time>2020-05-21T22:21:40Z</time>
        <name>WPT.1707</name>
      </trkpt>
      <trkpt lat="35.828047100" lon="-105.637378020">
        <ele>2732.100</ele>
        <time>2020-05-21T22:21:44Z</time>
        <name>WPT.1708</name>
      </trkpt>
      <trkpt lat="35.828012860" lon="-105.637392490">
        <ele>2728.700</ele>
        <time>2020-05-21T22:21:49Z</time>
        <name>WPT.1709</name>
      </trkpt>
      <trkpt lat="35.827970650" lon="-105.637414960">
        <ele>2726.900</ele>
        <time>2020-05-21T22:21:53Z</time>
        <name>WPT.1710</name>
      </trkpt>
      <trkpt lat="35.827941200" lon="-105.637448650">
        <ele>2723.500</ele>
        <time>2020-05-21T22:21:58Z</time>
        <name>WPT.1711</name>
      </trkpt>
      <trkpt lat="35.827909960" lon="-105.637480520">
        <ele>2725.200</ele>
        <time>2020-05-21T22:22:03Z</time>
        <name>WPT.1712</name>
      </trkpt>
      <trkpt lat="35.827876380" lon="-105.637513980">
        <ele>2723.900</ele>
        <time>2020-05-21T22:22:08Z</time>
        <name>WPT.1713</name>
      </trkpt>
      <trkpt lat="35.827857220" lon="-105.637552950">
        <ele>2721.600</ele>
        <time>2020-05-21T22:22:12Z</time>
        <name>WPT.1714</name>
      </trkpt>
      <trkpt lat="35.827849630" lon="-105.637610840">
        <ele>2721.000</ele>
        <time>2020-05-21T22:22:16Z</time>
        <name>WPT.1715</name>
      </trkpt>
      <trkpt lat="35.827862330" lon="-105.637657240">
        <ele>2720.300</ele>
        <time>2020-05-21T22:22:20Z</time>
        <name>WPT.1716</name>
      </trkpt>
      <trkpt lat="35.827821140" lon="-105.637668190">
        <ele>2719.700</ele>
        <time>2020-05-21T22:22:37Z</time>
        <name>WPT.1717</name>
      </trkpt>
      <trkpt lat="35.827785320" lon="-105.637695350">
        <ele>2718.500</ele>
        <time>2020-05-21T22:23:08Z</time>
        <name>WPT.1718</name>
      </trkpt>
      <trkpt lat="35.827774830" lon="-105.637741770">
        <ele>2716.600</ele>
        <time>2020-05-21T22:23:14Z</time>
        <name>WPT.1719</name>
      </trkpt>
      <trkpt lat="35.827735710" lon="-105.637736070">
        <ele>2715.200</ele>
        <time>2020-05-21T22:23:39Z</time>
        <name>WPT.1720</name>
      </trkpt>
      <trkpt lat="35.827690540" lon="-105.637736280">
        <ele>2715.200</ele>
        <time>2020-05-21T22:23:43Z</time>
        <name>WPT.1721</name>
      </trkpt>
      <trkpt lat="35.827644880" lon="-105.637745170">
        <ele>2715.100</ele>
        <time>2020-05-21T22:23:47Z</time>
        <name>WPT.1722</name>
      </trkpt>
      <trkpt lat="35.827606990" lon="-105.637747230">
        <ele>2714.700</ele>
        <time>2020-05-21T22:23:50Z</time>
        <name>WPT.1723</name>
      </trkpt>
      <trkpt lat="35.827566640" lon="-105.637736670">
        <ele>2716.000</ele>
        <time>2020-05-21T22:23:54Z</time>
        <name>WPT.1724</name>
      </trkpt>
      <trkpt lat="35.827528020" lon="-105.637718990">
        <ele>2716.600</ele>
        <time>2020-05-21T22:23:58Z</time>
        <name>WPT.1725</name>
      </trkpt>
      <trkpt lat="35.827488390" lon="-105.637735450">
        <ele>2716.200</ele>
        <time>2020-05-21T22:24:15Z</time>
        <name>WPT.1726</name>
      </trkpt>
      <trkpt lat="35.827447810" lon="-105.637751110">
        <ele>2712.800</ele>
        <time>2020-05-21T22:24:19Z</time>
        <name>WPT.1727</name>
      </trkpt>
      <trkpt lat="35.827411440" lon="-105.637772770">
        <ele>2711.400</ele>
        <time>2020-05-21T22:24:23Z</time>
        <name>WPT.1728</name>
      </trkpt>
      <trkpt lat="35.827372760" lon="-105.637790340">
        <ele>2709.800</ele>
        <time>2020-05-21T22:24:28Z</time>
        <name>WPT.1729</name>
      </trkpt>
      <trkpt lat="35.827338850" lon="-105.637773420">
        <ele>2709.800</ele>
        <time>2020-05-21T22:24:33Z</time>
        <name>WPT.1730</name>
      </trkpt>
      <trkpt lat="35.827303230" lon="-105.637754590">
        <ele>2709.400</ele>
        <time>2020-05-21T22:24:38Z</time>
        <name>WPT.1731</name>
      </trkpt>
      <trkpt lat="35.827265490" lon="-105.637772920">
        <ele>2709.400</ele>
        <time>2020-05-21T22:24:42Z</time>
        <name>WPT.1732</name>
      </trkpt>
      <trkpt lat="35.827229110" lon="-105.637803010">
        <ele>2708.300</ele>
        <time>2020-05-21T22:24:46Z</time>
        <name>WPT.1733</name>
      </trkpt>
      <trkpt lat="35.827188500" lon="-105.637818720">
        <ele>2707.900</ele>
        <time>2020-05-21T22:24:50Z</time>
        <name>WPT.1734</name>
      </trkpt>
      <trkpt lat="35.827148600" lon="-105.637832920">
        <ele>2708.200</ele>
        <time>2020-05-21T22:24:54Z</time>
        <name>WPT.1735</name>
      </trkpt>
      <trkpt lat="35.827101100" lon="-105.637839130">
        <ele>2708.100</ele>
        <time>2020-05-21T22:24:58Z</time>
        <name>WPT.1736</name>
      </trkpt>
      <trkpt lat="35.827068590" lon="-105.637873710">
        <ele>2708.400</ele>
        <time>2020-05-21T22:25:02Z</time>
        <name>WPT.1737</name>
      </trkpt>
      <trkpt lat="35.827045720" lon="-105.637919640">
        <ele>2708.700</ele>
        <time>2020-05-21T22:25:06Z</time>
        <name>WPT.1738</name>
      </trkpt>
      <trkpt lat="35.827032220" lon="-105.637967110">
        <ele>2709.700</ele>
        <time>2020-05-21T22:25:10Z</time>
        <name>WPT.1739</name>
      </trkpt>
      <trkpt lat="35.827017040" lon="-105.638021540">
        <ele>2710.900</ele>
        <time>2020-05-21T22:25:14Z</time>
        <name>WPT.1740</name>
      </trkpt>
      <trkpt lat="35.827029720" lon="-105.638057220">
        <ele>2711.500</ele>
        <time>2020-05-21T22:25:20Z</time>
        <name>WPT.1741</name>
      </trkpt>
    </trkseg>
  </trk>
</gpx>
